GFSMW_850_rhum_000.txt.gz
RH
26 23 22 22 23 22 24 29 32 38 46 49 48 48 47 46 46 46 50 60 67 74 79 80 80 81 85 84 86 88 90 89 90 94 92 89 85 83 79 79 77 73 72
25 24 23 23 22 23 24 24 26 29 32 38 49 52 51 51 53 60 66 70 70 75 80 82 82 83 83 83 86 91 96 98 98 98 100 99 90 90 84 77 61 45 51
32 29 26 24 23 21 22 23 25 29 34 38 43 52 58 59 63 73 76 74 78 81 82 86 86 84 84 83 83 86 90 93 89 92 100 99 90 81 78 77 74 74 70
36 35 32 28 28 29 29 28 29 34 38 42 46 52 62 65 64 62 62 66 69 71 74 77 78 78 80 83 84 86 86 87 84 87 90 97 100 98 90 79 87 89 88
36 36 35 35 33 31 30 31 31 31 33 34 39 43 44 44 44 44 48 55 63 74 78 79 83 81 82 79 80 87 92 91 84 85 94 93 99 100 100 98 87 82 85
36 35 38 37 36 37 36 35 34 35 37 37 38 40 42 43 42 43 44 45 44 43 42 44 53 60 64 65 72 78 82 87 94 97 99 100 100 99 100 100 100 98 78
31 34 35 36 39 38 38 40 43 43 44 44 44 44 45 46 48 52 53 53 52 51 51 50 46 45 47 49 52 55 59 66 74 80 92 98 100 100 100 100 100 100 98
33 32 35 39 43 44 45 46 46 47 46 44 43 42 42 44 49 53 54 54 51 48 43 39 36 32 30 31 36 45 50 55 59 60 59 61 68 81 91 98 100 98 97
35 37 38 44 48 49 50 50 50 50 49 40 33 34 37 37 40 43 47 47 49 47 44 40 36 33 31 29 28 28 29 36 45 52 56 59 64 66 66 70 83 95 97
39 41 44 50 52 52 53 52 52 52 46 29 30 37 37 36 38 40 42 45 46 46 44 41 38 37 37 38 39 38 38 41 40 55 70 69 72 75 79 84 85 91 100
42 45 49 53 54 56 55 56 55 50 38 27 32 36 37 42 46 47 47 49 50 47 43 40 40 44 48 49 52 58 57 61 72 80 73 69 69 72 78 81 81 82 89
44 50 53 55 57 57 56 52 49 44 33 36 40 37 34 34 41 45 48 50 45 39 35 35 38 42 48 56 66 62 74 78 66 64 66 78 83 84 82 81 82 86 86
51 54 53 53 52 52 50 49 48 39 38 40 40 40 44 48 47 42 37 32 25 20 18 22 28 34 47 54 57 81 81 60 68 71 81 81 78 76 66 74 85 86 86
53 51 50 51 53 52 50 48 40 40 42 42 43 44 40 35 31 21 10 4 3 3 3 5 8 20 42 43 53 55 54 64 68 65 62 57 48 39 44 84 88 88 96
50 48 50 54 53 51 48 40 46 48 48 47 42 32 23 10 3 3 4 4 4 4 5 6 8 16 25 25 42 39 45 57 64 49 42 36 26 27 74 43 43 68 99
49 50 53 52 50 44 46 54 55 52 48 38 23 8 2 4 5 4 4 4 5 6 7 7 8 9 11 22 21 26 54 62 48 41 34 26 19 36 28 13 28 45 97
48 51 53 52 44 54 60 60 58 52 35 15 3 4 6 5 6 7 9 10 11 12 13 14 14 14 14 19 36 58 66 48 45 46 36 19 28 83 46 19 23 32 74
54 60 55 51 59 70 69 63 52 32 9 4 6 7 7 8 10 12 13 14 15 16 17 17 18 20 19 25 48 59 46 36 27 44 23 20 88 78 51 50 57 51 99
61 60 60 67 78 76 70 51 29 8 5 7 7 8 10 12 13 14 14 16 19 20 23 25 24 25 35 44 44 38 26 31 52 60 50 81 92 92 95 97 89 97 97
68 67 67 79 80 70 54 29 8 8 8 8 9 11 15 17 17 18 19 21 22 24 25 27 28 33 43 44 50 67 71 81 85 85 90 93 95 97 95 99 99 100 100
70 66 76 84 84 69 34 10 10 9 10 12 13 16 18 20 21 22 22 22 25 29 32 35 35 49 59 63 75 82 88 88 93 94 94 85 84 93 94 100 100 100 99
69 75 83 86 88 39 12 10 10 12 14 15 16 17 19 21 22 24 25 27 30 34 42 57 68 74 81 83 89 92 91 90 91 96 90 91 90 90 100 100 99 98 98
82 87 88 88 72 18 14 11 14 16 16 16 17 18 20 22 24 31 30 32 39 51 65 82 90 93 88 74 86 90 91 96 96 94 99 92 96 94 100 100 100 98 99
91 86 90 53 13 15 13 14 16 16 18 18 18 20 23 28 32 33 35 42 51 72 90 98 99 100 94 93 88 98 94 93 94 94 92 92 96 97 100 95 95 100 99
89 74 39 13 16 14 13 16 18 19 20 21 21 23 29 35 37 35 41 54 65 95 97 96 98 97 96 90 96 94 94 98 96 87 88 84 86 86 87 84 96 100 100
66 42 14 18 16 15 15 17 20 22 23 22 24 31 39 41 47 48 44 45 66 94 95 95 93 92 90 95 89 90 96 98 89 90 89 92 92 99 96 100 100 98 100

GFSMW_850_rhum_006.txt.gz
RH
38 35 30 29 27 26 26 22 22 22 26 31 39 51 60 64 69 73 75 77 76 80 85 86 82 82 81 80 83 86 89 87 90 100 81 80 73 72 69 65 63 64 66
34 33 30 27 26 25 24 22 22 25 29 35 45 53 62 70 77 76 74 70 68 68 69 71 73 76 76 78 80 84 93 98 94 100 100 98 95 90 84 84 82 78 76
35 36 32 32 31 27 27 27 27 26 27 32 42 57 70 72 63 54 50 52 58 60 59 57 55 54 53 56 61 64 65 94 94 100 99 98 96 98 96 92 78 81 88
41 39 38 34 33 34 34 32 31 32 34 37 36 38 41 41 47 50 51 50 49 49 49 49 48 46 44 41 40 40 42 48 55 64 79 94 97 99 97 97 95 91 90
40 42 40 38 40 39 37 36 35 36 39 38 40 41 43 48 50 46 43 39 37 36 35 35 36 38 39 40 39 36 34 33 34 37 42 49 54 69 95 96 90 88 83
45 45 43 43 42 43 42 42 40 41 43 43 42 40 39 38 34 31 30 30 30 31 32 33 36 39 41 41 39 38 36 36 37 39 43 53 71 75 83 93 98 100 93
46 45 45 44 45 44 45 45 45 45 45 37 33 33 34 33 32 33 33 33 33 33 34 34 34 35 34 33 32 31 32 34 39 44 51 58 69 75 78 77 91 94 89
46 46 46 46 45 46 46 48 48 47 46 40 31 32 34 35 35 35 35 36 36 35 32 29 24 20 17 14 13 15 22 32 41 54 72 79 72 65 64 81 94 99 94
44 46 48 48 46 48 50 52 52 50 43 34 30 33 36 37 39 40 39 37 30 22 14 7 3 3 3 3 4 5 9 23 50 84 88 61 56 61 82 90 79 79 96
46 49 49 48 49 52 53 55 54 48 40 33 35 39 42 44 44 40 32 22 10 3 2 3 3 3 4 4 4 5 7 17 60 55 40 32 40 65 78 46 45 38 81
45 47 50 52 53 55 57 57 52 45 38 38 45 48 49 46 37 26 12 3 2 3 3 4 4 5 6 6 6 6 8 12 20 25 28 42 77 92 70 48 56 32 53
44 48 51 53 56 59 60 56 50 42 40 49 54 55 49 39 22 7 2 2 4 4 4 5 6 6 7 7 7 8 11 14 19 32 58 72 65 57 54 49 45 46 99
48 54 56 58 60 62 60 55 46 42 51 57 57 52 40 20 6 3 3 4 5 5 5 6 7 7 8 7 7 9 11 20 33 72 75 62 52 48 48 46 46 80 100
48 53 60 63 65 64 59 50 46 57 64 65 55 37 19 9 5 5 5 5 6 6 7 7 8 8 8 8 8 9 13 22 44 74 61 49 49 55 62 69 78 95 96
54 57 62 66 66 63 54 49 62 73 74 58 39 22 13 6 6 6 6 6 7 8 8 9 10 10 10 10 12 15 23 37 52 56 46 44 45 65 80 89 88 91 92
57 59 64 66 67 60 50 66 74 73 65 49 34 16 9 7 6 7 7 8 8 9 10 11 11 11 10 10 14 41 65 64 69 66 67 61 66 79 91 91 88 87 86
52 57 63 69 65 53 68 76 77 68 58 53 30 13 7 7 7 8 9 10 10 12 13 13 12 12 13 16 22 60 78 80 79 80 71 72 81 98 94 91 90 90 93
54 58 65 68 57 65 75 78 71 64 53 34 17 7 7 8 10 10 11 12 14 15 15 14 14 16 17 23 44 87 89 88 83 78 78 95 96 81 93 95 95 96 69
55 60 68 62 62 71 76 76 71 50 32 16 8 8 10 11 12 11 13 16 18 18 17 17 17 20 19 33 76 93 90 87 83 76 87 100 90 92 91 97 96 89 86
60 67 66 62 68 76 83 74 61 47 17 9 9 10 12 12 13 16 18 20 21 20 18 18 20 23 36 49 94 92 91 93 87 89 95 88 88 88 96 89 94 98 83
69 68 67 72 78 84 74 72 39 16 13 10 11 12 12 15 18 20 22 23 23 22 21 20 21 35 69 87 94 92 89 94 97 97 90 74 92 98 89 85 93 94 88
73 75 76 77 83 77 68 30 16 12 11 11 12 14 17 20 22 24 24 24 25 24 23 26 43 76 97 95 94 93 91 93 96 94 79 89 97 95 87 92 95 95 96
80 79 79 84 81 63 35 15 13 13 12 13 15 18 22 25 26 26 26 27 27 31 39 73 98 100 98 87 86 94 100 97 90 84 96 96 97 85 72 95 96 97 93
84 83 87 84 61 36 16 16 14 13 14 17 20 24 27 28 28 28 29 31 37 59 84 100 100 98 96 92 84 98 94 91 92 93 97 96 78 66 93 90 80 84 98
87 91 84 66 46 19 16 16 16 17 19 22 25 29 30 30 30 31 35 44 62 91 98 96 98 96 96 93 94 94 93 95 97 92 92 80 78 97 100 97 98 84 93
82 80 70 67 22 18 18 18 20 22 24 26 30 32 32 32 33 35 37 55 80 95 93 96 95 94 95 94 95 91 94 96 80 78 84 93 100 100 100 100 100 87 97

GFSMW_850_rhum_009.txt.gz
RH
42 39 33 30 29 26 26 24 24 27 32 35 43 50 55 62 66 72 74 74 72 70 68 68 69 68 69 69 68 66 66 65 72 93 94 98 92 87 84 83 85 82 75
40 37 33 30 27 26 25 22 22 24 25 30 43 56 67 71 71 68 63 58 56 56 54 51 49 47 46 44 43 42 40 40 41 89 83 91 84 83 91 86 77 79 80
40 41 36 32 32 29 26 25 25 25 27 31 41 54 58 55 48 45 46 48 50 50 49 47 43 40 38 38 39 39 39 39 36 35 65 86 79 86 67 80 79 81 93
44 40 36 36 34 34 33 31 30 30 34 37 38 39 41 43 51 53 51 44 36 33 33 33 33 34 34 35 36 37 37 37 38 37 46 40 60 82 76 56 68 68 82
42 42 40 40 40 40 37 36 36 37 41 42 42 42 42 42 39 35 32 32 33 35 36 36 35 33 30 27 24 23 23 26 32 40 50 53 65 80 90 90 73 81 80
46 46 46 46 44 44 43 43 41 42 40 37 35 33 32 32 31 32 34 37 39 39 37 34 28 21 13 7 4 3 4 5 10 23 45 89 100 99 96 92 85 85 81
47 48 48 48 48 47 47 46 45 43 42 38 32 31 32 34 36 39 40 42 43 40 34 23 13 5 2 3 4 4 4 4 6 14 43 77 90 82 81 82 89 93 93
50 50 49 49 50 50 50 49 48 46 40 34 32 34 37 40 44 47 46 40 33 23 11 5 2 3 4 5 6 6 6 6 7 12 24 29 22 32 68 82 91 98 83
52 50 51 51 52 53 52 53 51 46 40 35 35 39 45 49 49 46 40 32 19 10 4 3 4 5 6 7 7 8 8 7 7 7 11 12 16 49 84 92 97 84 95
53 53 53 54 56 55 55 56 52 46 40 37 42 50 52 49 46 41 32 20 8 4 4 5 6 6 7 8 8 9 9 8 9 13 14 25 50 68 82 76 79 86 84
52 54 55 58 57 58 58 57 51 44 40 45 53 55 54 48 40 30 18 8 4 5 6 6 7 7 8 9 10 10 10 10 14 18 41 75 78 57 43 65 62 62 58
51 54 56 58 60 61 61 57 50 43 47 56 63 60 52 45 33 18 8 6 6 6 7 7 8 9 10 12 11 11 11 15 21 50 75 76 59 54 59 61 71 78 84
53 57 60 62 62 63 62 57 48 50 62 70 62 55 49 37 21 12 7 6 7 7 7 8 10 12 14 14 12 12 11 17 31 50 69 63 65 65 72 80 85 89 87
50 58 62 64 66 66 63 55 52 64 72 67 62 55 47 28 15 8 7 7 8 8 9 12 15 16 16 14 13 12 19 37 48 60 69 72 77 77 84 88 91 89 91
53 59 62 66 68 68 62 53 64 73 71 70 58 51 33 16 7 7 8 8 9 11 14 17 19 18 16 14 14 26 36 50 52 73 75 78 84 90 90 92 90 94 90
53 58 64 67 70 69 58 62 73 74 72 60 48 33 18 8 8 8 9 9 12 17 20 21 20 19 16 16 16 32 69 84 88 84 79 84 86 90 93 96 92 89 93
52 56 62 71 73 66 59 70 74 74 65 50 38 24 10 9 9 9 10 14 20 22 23 22 21 19 19 19 24 87 91 92 89 89 88 86 92 97 93 90 89 95 95
50 57 66 76 73 61 67 72 76 72 58 47 26 11 10 10 10 11 16 22 24 25 24 24 22 21 21 26 49 94 91 89 88 90 90 95 96 95 90 96 97 87 59
50 59 68 74 66 64 70 77 74 64 51 28 14 10 10 11 13 19 24 27 27 26 26 25 24 23 25 37 82 94 87 83 87 90 96 100 90 88 90 97 93 80 85
53 63 73 70 64 71 77 79 67 54 31 15 10 11 12 15 20 26 28 28 28 28 27 25 25 32 39 52 97 92 89 94 90 99 100 92 84 89 95 97 94 92 83
64 72 71 68 73 78 80 70 53 35 17 12 12 14 17 21 27 30 30 30 29 28 26 26 35 45 61 90 95 92 94 95 96 93 94 87 90 97 97 89 87 92 91
69 71 72 75 79 82 74 53 32 20 13 13 15 18 21 26 31 32 31 30 29 29 30 33 47 66 94 96 96 94 93 95 96 96 86 93 97 91 90 86 92 92 95
78 80 80 80 83 80 54 33 24 15 15 16 18 20 24 32 34 33 32 30 30 34 37 58 89 96 85 89 95 99 100 95 91 91 100 88 77 82 89 91 91 95 98
85 84 83 85 84 56 49 26 17 16 17 19 21 24 33 36 34 32 30 31 34 46 70 96 98 94 85 88 85 98 92 95 97 96 86 78 80 94 96 90 93 99 100
87 86 88 83 64 64 25 19 18 19 20 21 25 36 38 35 33 31 33 37 45 76 97 97 97 95 95 91 95 92 92 96 96 84 83 82 99 95 92 94 99 100 100
85 86 78 70 67 25 21 20 21 22 22 28 38 39 36 34 32 31 29 38 54 92 93 99 97 94 95 95 93 90 96 96 87 88 88 92 98 99 100 100 100 100 100

GFSMW_850_rhum_012.txt.gz
RH
43 38 37 36 35 32 31 32 36 38 43 52 59 69 70 74 74 72 70 67 62 54 50 45 43 43 43 41 38 38 41 51 58 57 55 58 62 65 58 77 81 67 74
46 42 37 34 30 28 26 26 27 31 39 50 58 65 67 67 64 56 48 45 45 44 41 36 32 31 32 33 33 35 38 57 58 60 61 50 50 46 59 49 51 56 53
44 48 38 34 31 28 28 27 26 28 32 41 50 52 49 47 46 47 46 41 34 32 33 35 36 35 33 30 26 28 31 56 48 55 56 50 55 61 54 53 53 52 60
46 50 51 42 35 34 33 32 32 33 35 37 39 41 42 43 42 36 34 34 36 38 39 37 33 27 19 14 9 7 11 39 52 52 52 57 58 63 63 51 58 53 62
49 55 57 40 39 39 37 36 36 37 39 39 37 35 34 32 33 34 38 40 42 39 34 29 23 16 8 4 4 5 8 32 48 50 58 61 62 58 62 65 47 48 48
53 58 46 43 42 42 40 40 39 38 37 35 32 31 31 34 38 42 45 41 37 34 32 25 15 6 4 5 6 7 8 10 12 30 54 63 61 54 50 43 44 48 44
56 60 56 48 46 45 44 43 42 40 38 34 31 32 35 41 45 42 40 39 37 33 29 19 8 5 5 6 7 8 9 16 18 43 61 60 48 45 41 42 56 59 60
54 58 61 51 49 48 47 46 45 41 37 34 34 37 43 46 44 45 43 39 34 27 16 7 5 5 6 7 8 9 17 32 37 32 33 57 45 46 53 62 72 81 82
56 59 63 55 52 51 51 50 47 42 38 37 39 44 48 49 51 46 40 37 28 15 6 5 6 6 7 8 9 13 17 21 36 37 47 48 49 55 61 66 65 63 69
57 61 64 63 57 54 54 52 48 43 40 41 46 51 55 54 48 43 39 28 13 8 6 6 7 7 9 12 15 21 22 32 37 41 46 51 52 63 58 53 49 54 58
57 62 66 64 57 57 56 54 49 44 43 49 56 59 55 50 45 39 30 18 10 6 7 7 8 10 14 18 20 22 29 37 42 46 48 53 56 60 54 53 54 56 58
58 61 69 63 59 59 59 56 50 45 49 59 61 57 54 49 42 32 22 9 6 7 8 10 13 17 20 20 20 31 38 43 47 49 51 53 52 59 58 59 60 64 66
61 64 72 66 63 62 61 57 51 50 60 65 63 58 52 47 37 20 8 7 8 9 11 16 20 21 21 22 27 36 44 49 52 55 58 60 62 63 63 65 69 69 70
61 65 73 71 67 65 63 58 52 59 66 67 62 53 48 41 24 10 8 9 10 12 19 22 23 23 23 23 32 30 52 58 60 62 67 68 69 68 73 74 73 80 86
62 67 73 72 69 66 65 58 58 68 69 66 56 50 43 28 14 8 9 10 14 21 24 26 25 25 24 31 21 29 69 70 70 70 69 69 74 82 82 85 87 91 81
57 67 74 75 70 68 66 58 65 72 70 62 55 48 33 16 9 10 11 17 24 27 28 28 28 26 28 23 22 59 85 79 73 69 69 68 70 71 83 87 90 84 95
57 66 74 77 72 72 66 62 71 72 69 60 50 37 20 10 10 12 18 25 28 29 29 31 31 30 34 35 43 92 90 80 72 70 69 69 68 86 88 83 79 90 98
52 61 73 75 76 73 63 67 72 74 64 54 40 24 11 11 13 18 25 29 31 32 35 37 37 45 49 64 85 96 86 76 72 71 72 72 85 90 85 82 91 98 89
51 58 65 75 78 71 66 71 76 68 55 43 29 12 12 13 17 23 28 32 33 34 39 40 49 51 53 72 94 94 82 74 72 74 76 90 86 82 80 96 96 93 85
53 58 68 78 75 67 70 75 73 59 47 34 15 12 14 18 22 26 32 34 34 40 47 50 51 57 64 78 93 92 84 78 81 82 91 82 83 88 96 95 81 98 83
57 66 74 74 68 70 75 76 63 50 39 19 13 15 18 20 24 34 35 35 40 46 49 50 54 64 75 82 88 93 88 88 91 94 90 82 88 92 82 81 92 92 92
64 70 71 70 71 76 78 71 52 40 22 15 15 18 20 24 35 36 33 32 48 49 48 54 62 73 75 81 87 92 90 94 97 90 92 91 92 82 80 86 89 84 88
67 71 72 74 78 80 80 56 38 29 16 16 18 19 23 37 38 35 33 45 49 51 56 64 70 72 78 80 86 88 92 91 93 92 97 91 81 82 86 90 86 89 89
71 78 80 80 82 84 58 50 33 18 17 18 19 26 38 38 35 40 47 44 52 61 66 75 76 81 84 83 86 90 90 88 90 98 96 80 80 82 87 84 85 89 96
77 82 84 84 85 60 51 40 19 18 19 20 28 39 40 41 41 41 44 50 59 70 90 90 92 94 89 89 92 94 94 95 97 96 83 81 82 90 88 88 90 90 96
84 87 86 82 64 55 38 20 19 20 21 29 39 41 39 43 39 44 52 65 79 92 95 88 99 95 95 93 92 91 95 97 93 89 86 87 94 95 94 95 93 92 100

GFSMW_850_rhum_015.txt.gz
RH
41 46 47 48 51 60 68 71 73 77 79 83 86 82 74 72 71 68 63 50 44 42 36 31 32 33 35 39 37 37 38 34 50 46 52 34 45 42 43 57 67 55 47
39 45 46 46 47 53 60 72 77 85 84 75 74 70 69 65 52 44 45 42 32 31 33 36 37 36 33 32 28 27 26 34 28 46 43 43 42 39 31 29 40 41 51
37 42 45 48 50 46 35 32 35 39 45 49 48 48 46 53 51 43 33 32 34 37 38 34 30 28 25 23 15 18 18 36 37 42 45 42 42 51 48 44 45 48 42
36 41 45 52 51 34 33 32 33 34 39 50 52 56 50 40 33 32 36 39 40 36 33 32 30 26 19 13 8 12 13 30 44 37 39 42 47 54 51 39 40 39 36
39 44 51 58 50 39 37 37 36 37 39 38 37 34 32 31 34 39 42 38 37 36 35 31 27 19 12 7 7 8 9 13 38 40 39 44 47 50 42 42 37 36 33
42 49 58 61 47 43 42 40 38 37 35 34 32 31 32 36 41 41 40 41 38 36 34 28 19 11 7 7 7 8 9 13 35 32 38 45 46 48 44 39 40 44 48
46 53 58 62 60 51 44 42 39 37 35 33 32 34 38 42 42 45 46 42 39 36 34 26 14 8 7 7 8 8 11 22 32 31 43 35 38 49 44 42 47 53 60
46 52 55 61 68 60 52 45 41 38 36 35 36 39 44 46 48 50 47 42 38 35 29 19 11 7 7 8 10 14 27 32 30 32 37 36 44 42 46 49 56 64 63
46 50 57 63 67 64 59 49 43 40 38 38 41 46 49 52 51 48 45 42 37 32 23 12 7 7 8 12 18 22 26 30 29 33 35 40 44 45 49 52 62 58 56
47 51 57 61 62 63 56 51 46 42 40 42 48 52 54 52 50 48 44 40 31 22 10 7 7 8 12 19 23 24 26 31 33 36 39 43 46 47 51 53 56 56 57
47 52 56 61 63 62 54 52 49 44 43 48 55 56 55 54 50 46 39 30 17 10 7 8 8 13 20 23 27 28 32 33 36 40 44 46 49 51 52 57 59 60 62
47 51 56 63 64 63 58 55 52 47 47 55 58 58 57 52 48 40 30 18 9 8 8 9 17 21 25 28 32 35 34 36 42 46 49 52 55 58 63 64 64 66 68
48 51 58 63 62 62 59 57 54 49 53 60 61 60 55 51 44 34 20 10 8 8 11 20 24 27 30 35 37 36 38 45 52 55 58 60 63 65 65 67 72 73 78
50 51 59 61 59 59 58 54 53 52 59 63 63 58 55 48 36 23 12 9 9 13 22 26 29 33 38 40 40 37 44 59 66 68 67 67 64 64 68 72 80 88 89
50 52 59 60 59 59 56 52 53 56 64 65 62 59 51 40 24 12 9 10 14 23 28 33 39 41 41 39 41 51 68 76 79 75 69 64 63 68 72 73 91 94 96
48 52 60 61 61 59 56 54 56 62 67 66 63 55 45 27 12 10 10 15 22 29 37 41 42 41 40 43 56 72 84 87 83 76 69 65 64 64 70 79 82 90 85
44 54 60 64 64 60 58 58 58 66 68 66 58 47 34 17 11 11 15 22 30 38 41 42 41 41 42 49 61 77 92 90 79 72 67 67 68 74 72 82 86 87 90
48 54 62 69 67 62 61 56 59 69 69 62 49 38 22 12 12 16 22 28 36 40 41 40 40 43 45 51 65 84 90 84 77 71 71 73 78 77 84 96 90 97 91
56 64 69 73 68 65 62 62 68 71 66 51 39 26 14 12 15 19 23 34 40 40 38 38 43 44 45 55 70 88 88 84 80 79 82 87 94 84 92 96 95 90 86
62 68 73 70 70 66 65 67 69 69 56 44 33 19 13 15 18 21 34 39 39 36 40 43 43 44 49 60 77 83 87 88 88 90 90 84 84 90 98 93 91 95 89
52 60 68 72 65 67 67 67 72 62 47 39 28 14 15 18 20 34 38 34 32 38 44 43 44 48 58 66 73 82 87 94 96 93 93 92 86 95 88 79 88 90 93
59 68 69 66 66 68 71 74 69 50 47 41 17 16 17 20 33 38 35 31 43 47 43 45 48 57 63 68 76 82 86 87 97 96 96 93 99 85 77 82 81 85 90
63 68 67 67 69 73 77 75 63 55 51 18 17 18 18 32 39 38 36 44 48 47 49 53 60 70 77 80 82 85 87 88 94 93 92 96 84 78 81 83 85 87 87
66 70 71 72 76 79 80 66 63 60 19 18 18 20 31 38 40 44 49 48 49 56 62 71 85 91 90 90 87 90 96 95 92 96 97 82 79 81 85 88 88 92 95
69 74 76 71 77 82 74 62 59 21 18 19 19 29 40 42 44 49 47 50 56 67 82 90 94 96 96 91 90 91 93 95 96 95 92 85 86 90 94 91 93 95 100
73 79 80 81 82 75 65 54 21 19 18 19 29 41 43 48 51 49 47 53 62 69 74 82 88 90 90 91 92 91 94 96 90 94 91 90 96 97 96 97 96 100 100

GFSMW_850_rhum_018.txt.gz
RH
38 43 48 52 63 68 71 67 68 74 79 86 91 92 89 77 72 68 58 45 40 32 31 35 36 34 30 28 28 25 22 20 16 18 18 19 26 24 30 39 20 17 21
41 46 46 51 63 76 78 78 79 82 87 89 84 71 66 66 53 45 40 32 31 35 36 34 32 30 29 27 23 18 14 13 13 34 24 36 30 37 15 25 20 46 49
42 45 46 49 58 68 72 78 78 73 73 68 63 62 50 47 43 34 32 35 37 36 35 35 34 32 29 24 16 12 10 11 11 16 34 45 41 40 35 30 34 38 21
40 44 49 53 53 51 47 48 50 50 52 50 48 46 44 39 35 36 38 38 37 38 37 36 33 29 25 18 12 10 10 10 11 12 14 17 30 49 48 42 27 33 23
39 44 51 54 51 49 45 44 44 47 53 54 50 40 33 33 36 40 39 41 41 41 40 37 33 29 23 16 11 10 9 9 13 19 24 18 30 31 36 45 44 43 36
40 47 56 60 54 51 46 43 42 40 39 36 34 33 33 37 41 41 44 43 43 42 41 38 33 27 18 13 10 9 8 9 14 18 22 26 47 41 40 53 47 45 47
44 53 60 62 55 50 47 43 38 36 34 33 33 35 39 42 44 47 47 46 45 44 42 37 31 21 13 9 8 8 9 13 18 22 24 31 33 32 45 49 48 53 55
48 55 62 62 56 50 48 42 39 36 35 35 36 40 42 45 48 49 48 48 46 43 40 32 20 12 9 8 8 10 15 18 22 24 25 30 31 42 44 47 54 56 58
50 55 60 64 59 54 50 45 41 38 37 38 40 43 46 49 50 51 50 48 44 39 28 18 12 9 8 9 15 19 20 20 21 25 30 30 36 41 48 50 50 57 63
50 54 60 65 63 59 55 49 44 40 39 40 43 47 50 52 52 51 49 45 38 28 18 12 10 8 11 18 21 21 19 21 26 31 28 34 43 49 51 54 56 59 65
50 53 60 64 63 61 57 53 47 44 42 44 48 51 54 55 53 52 48 41 29 18 12 9 8 13 19 22 22 20 21 27 34 28 30 45 50 57 59 61 66 68 69
49 54 59 62 62 60 59 54 50 46 45 48 52 55 57 56 54 51 43 31 20 12 8 10 15 20 23 24 22 26 30 38 33 29 38 52 64 64 66 68 66 69 69
48 54 58 62 62 62 59 56 53 50 48 53 56 59 59 58 54 45 33 20 11 9 11 16 20 24 25 25 29 32 39 37 36 42 57 61 69 72 69 66 67 71 81
49 53 59 62 62 62 59 57 54 52 51 56 60 61 60 56 51 38 22 11 10 12 16 20 26 27 28 33 32 40 44 54 62 58 57 74 77 70 69 70 74 84 97
49 52 59 62 61 61 58 54 53 54 55 60 62 62 60 54 44 29 14 10 13 16 22 27 28 29 34 37 46 53 60 67 73 61 74 82 76 73 72 73 85 89 87
50 52 59 61 59 59 57 53 52 54 58 63 64 63 58 49 34 17 12 14 16 21 28 30 32 32 35 42 53 61 66 74 75 77 85 78 74 74 78 80 80 90 97
50 52 58 60 59 59 57 54 54 56 62 65 65 60 52 42 24 13 14 16 21 30 32 29 28 33 37 45 56 62 72 80 78 87 80 82 79 77 79 81 96 96 99
46 52 58 62 62 60 58 57 57 58 64 66 62 53 46 30 14 14 14 19 30 32 30 27 31 37 37 47 55 66 76 81 85 79 85 89 89 86 90 97 96 97 87
48 54 60 65 65 62 60 59 55 61 67 65 53 46 29 16 14 14 17 30 34 30 27 29 29 32 38 43 58 72 76 80 84 91 97 96 90 93 92 95 96 96 93
59 63 67 70 67 63 61 61 63 67 67 56 47 39 20 15 14 15 28 35 34 29 29 26 29 35 42 48 66 73 78 85 93 98 97 98 92 86 96 95 95 97 82
66 67 68 66 66 66 65 64 64 68 59 49 46 24 16 14 15 26 36 37 34 31 29 29 30 38 51 63 73 82 85 94 96 95 91 94 87 97 94 85 95 86 94
63 65 64 66 67 65 63 64 70 65 52 53 28 16 14 15 28 39 41 35 32 33 32 37 41 51 60 81 90 89 88 90 97 96 90 80 98 89 86 87 85 88 89
62 64 62 64 64 65 68 74 72 59 58 31 16 14 17 30 41 42 37 34 34 38 44 52 62 71 83 82 88 94 92 89 93 90 94 100 93 88 85 89 90 91 83
60 61 63 66 68 73 77 76 62 61 34 17 14 18 31 42 42 38 34 37 40 49 57 70 77 80 83 85 84 98 95 97 95 93 97 95 88 84 92 92 87 86 98
64 67 69 70 74 79 79 64 61 41 18 15 19 31 42 43 41 36 36 40 43 59 70 73 76 80 86 86 84 86 88 94 97 96 92 78 86 97 98 97 92 97 98
70 74 70 71 75 80 70 64 43 18 16 20 29 41 44 44 40 38 36 34 43 64 73 76 79 81 82 84 86 86 92 92 93 94 84 97 100 100 100 100 96 96 98

GFSMW_850_rhum_021.txt.gz
RH
36 38 39 48 58 58 56 63 58 64 71 83 85 85 88 91 92 92 73 49 38 31 35 34 33 32 32 31 30 27 24 21 18 18 19 18 18 20 30 24 16 7 19
40 41 47 60 70 74 74 73 73 78 80 83 86 86 88 86 72 54 39 32 35 36 35 36 35 34 32 29 25 21 18 16 13 18 20 26 20 27 12 17 9 16 29
40 46 50 62 77 78 81 82 82 82 81 82 85 79 70 56 42 34 33 36 37 38 37 39 39 37 34 29 22 17 14 13 13 12 28 37 39 24 26 15 33 26 17
42 46 48 59 74 83 85 84 86 89 86 75 62 54 43 39 34 34 37 38 40 41 42 42 42 39 33 26 20 15 12 10 10 11 14 21 28 37 49 33 15 21 23
40 45 46 50 65 70 82 84 76 69 61 49 42 41 38 34 36 39 39 42 43 44 45 45 42 37 30 23 16 13 11 10 11 15 16 18 18 21 49 48 38 36 32
45 49 50 50 56 59 58 55 49 50 51 50 50 37 33 35 40 41 44 45 46 46 46 44 37 30 21 14 12 10 10 10 14 17 19 23 26 36 34 36 46 53 50
49 53 52 54 56 57 54 52 52 52 53 46 36 34 36 40 42 46 47 47 48 47 44 35 28 20 14 11 10 9 12 16 17 16 17 20 25 30 30 43 49 51 57
52 52 53 55 56 53 48 44 43 39 38 36 35 38 41 44 47 48 49 49 48 45 38 29 22 15 11 9 11 15 18 19 16 16 18 24 25 22 30 45 52 58 56
54 54 56 55 55 51 45 40 38 36 36 36 38 41 44 48 50 50 50 50 47 41 31 24 17 11 9 14 18 20 21 18 17 18 23 25 23 20 32 46 53 62 72
56 57 58 57 57 50 46 43 40 37 37 39 42 45 48 50 52 52 52 51 45 34 26 16 10 11 16 20 22 22 20 18 18 21 27 28 26 23 36 66 66 64 71
55 58 61 62 58 54 50 46 42 40 40 42 45 48 51 53 54 54 54 49 38 26 14 10 12 16 21 23 22 21 21 22 25 30 34 34 30 37 55 67 72 72 72
55 58 62 66 63 58 54 49 46 43 43 45 48 51 54 56 57 57 54 42 26 14 10 13 16 22 24 22 20 22 24 29 36 41 45 44 41 61 71 75 74 73 72
54 58 64 66 64 61 58 54 50 46 45 47 51 55 58 59 59 56 45 30 17 11 12 16 23 25 23 21 20 24 36 46 52 59 59 53 61 74 80 81 78 78 88
54 60 64 64 62 61 58 56 52 49 48 50 54 58 60 61 59 50 36 20 13 12 15 24 27 24 21 21 23 38 48 57 62 62 64 60 66 87 87 80 81 91 90
58 59 61 62 62 62 60 58 55 53 50 53 58 61 62 61 54 45 29 14 13 15 25 29 26 21 21 22 36 53 62 63 65 67 69 67 79 87 82 83 85 87 95
59 60 59 61 62 61 61 58 55 52 52 56 60 63 62 56 51 39 18 13 14 24 30 28 24 21 21 25 52 63 63 65 70 74 75 75 80 85 84 87 88 92 97
54 56 58 60 60 61 60 57 54 53 53 59 63 63 57 52 40 21 14 13 22 31 31 24 23 22 22 26 53 62 66 70 73 78 80 86 86 92 93 88 94 92 96
51 52 56 59 60 60 59 56 53 53 56 63 64 58 52 47 29 15 13 22 33 33 27 24 24 25 25 32 58 66 72 75 78 80 92 97 95 94 94 95 98 95 95
49 51 55 60 60 60 58 56 55 56 61 64 61 54 51 35 15 13 21 34 36 30 25 25 25 29 32 40 64 77 82 81 84 90 97 100 96 93 86 94 97 95 89
52 55 60 62 61 60 59 59 57 58 65 63 54 53 38 16 13 22 36 38 34 28 28 28 30 35 42 49 82 91 90 91 84 86 85 90 92 85 96 97 97 96 76
58 61 64 65 64 63 62 60 61 65 64 55 54 40 17 14 23 37 40 36 31 30 30 31 32 41 53 60 88 94 92 93 95 88 91 80 89 98 89 88 91 89 96
69 69 69 68 65 63 64 64 64 67 60 57 44 17 15 24 39 41 40 34 33 35 33 34 41 55 67 71 75 91 92 95 96 97 83 88 98 90 90 91 92 91 94
59 63 62 65 65 63 62 66 71 66 61 44 17 15 24 39 42 42 39 35 36 35 33 51 63 70 72 76 73 86 96 91 91 90 100 100 95 92 90 96 99 100 89
57 60 61 62 62 62 68 74 67 62 48 18 16 23 36 41 44 43 38 37 34 32 60 70 73 76 79 81 82 92 91 93 96 94 96 88 84 94 95 86 87 96 97
60 61 62 65 68 73 76 70 62 49 19 17 22 31 38 44 46 41 38 36 31 57 68 75 80 83 85 84 85 88 90 95 96 95 86 76 93 96 90 93 96 98 99
64 66 68 69 74 78 74 64 49 20 18 21 27 33 41 48 45 40 35 23 28 37 51 74 85 86 87 88 89 89 94 95 94 94 92 100 100 100 100 100 99 94 97

GFSMW_850_rhum_024.txt.gz
RH
34 34 34 32 34 40 42 44 42 44 58 72 84 83 82 83 84 90 93 85 60 36 34 34 35 35 34 34 32 28 24 22 21 20 20 18 18 17 26 25 11 6 7
37 39 36 34 41 43 49 48 45 42 63 74 85 85 86 84 90 94 71 38 34 35 36 36 38 39 40 36 31 27 22 18 14 14 20 20 17 24 16 12 9 11 12
36 39 40 42 52 56 64 66 64 72 79 84 87 87 91 92 85 54 35 35 36 38 39 41 44 44 41 34 28 22 18 14 13 14 22 22 31 22 17 11 14 15 9
36 41 48 54 61 65 74 79 81 85 87 88 88 86 84 75 47 35 35 37 40 42 44 46 45 40 33 28 20 15 13 12 12 12 19 23 28 30 30 18 10 14 10
36 42 49 57 73 71 78 83 82 83 85 84 78 71 59 42 35 35 38 41 43 45 47 46 40 31 27 20 15 13 12 12 15 18 18 17 17 20 44 48 35 14 10
45 50 60 72 82 83 85 87 90 90 85 67 54 42 37 34 34 38 41 44 46 47 47 42 33 26 21 16 13 12 14 17 20 20 18 19 23 31 35 34 34 47 40
49 56 65 70 77 85 87 85 84 76 56 47 44 40 34 36 39 41 45 47 48 48 45 37 28 22 17 12 11 15 18 20 20 18 17 18 24 29 28 24 26 44 47
51 55 57 63 68 69 73 65 57 50 53 52 44 36 37 40 43 46 48 49 49 47 41 30 23 16 11 12 16 18 20 20 18 17 16 20 22 24 26 28 40 61 63
61 57 57 58 62 61 58 55 54 54 55 46 38 39 41 43 47 49 50 51 50 45 36 26 17 11 13 16 19 22 20 18 16 16 19 23 25 27 23 22 39 76 84
72 61 60 57 59 57 56 55 51 46 43 40 39 41 44 48 50 51 52 53 49 40 28 18 12 13 15 21 22 20 18 17 17 21 26 30 33 30 24 36 57 72 78
68 62 61 59 55 52 49 46 42 39 39 40 41 44 48 50 53 54 55 53 44 31 19 13 13 15 21 23 20 18 19 21 25 30 37 42 44 38 39 47 64 75 81
66 62 62 59 56 52 47 44 41 40 40 42 44 48 51 54 56 57 56 48 35 22 14 13 15 23 24 20 19 20 21 28 34 41 50 53 54 51 50 58 76 84 82
68 64 64 62 57 52 50 47 44 42 42 44 47 51 54 57 59 58 52 43 28 16 14 16 24 26 22 20 20 21 27 30 42 53 61 63 66 63 62 83 85 88 93
63 65 67 64 58 56 54 52 48 45 44 46 50 54 57 60 60 56 49 34 18 14 15 24 28 25 22 21 19 23 28 35 53 62 65 69 72 72 90 91 89 98 93
70 66 66 67 63 60 59 56 52 48 46 47 52 56 60 61 58 52 39 21 14 14 25 30 27 22 22 20 20 29 52 61 63 66 70 77 77 89 89 90 96 95 96
68 65 64 65 65 63 62 58 54 50 50 50 54 59 62 59 53 45 29 16 14 24 32 30 24 23 21 20 21 60 66 64 71 74 79 78 80 90 91 92 90 92 97
62 62 61 62 64 64 62 60 56 53 52 52 57 62 60 54 48 35 18 13 23 34 32 26 26 24 21 20 24 68 73 75 78 82 76 79 88 92 86 90 94 92 95
59 60 60 62 63 64 63 60 56 54 53 54 60 62 55 50 44 20 14 24 35 34 29 27 27 25 22 26 30 49 72 74 72 74 76 92 87 85 92 95 95 95 82
54 55 56 59 62 63 62 59 55 53 53 58 62 58 54 48 23 14 25 38 38 33 30 29 28 25 26 33 38 89 85 81 76 74 94 95 95 90 93 97 95 95 84
53 54 58 60 62 63 60 57 55 54 56 63 61 55 51 26 14 24 39 40 38 33 32 28 24 26 32 37 59 92 89 90 79 92 93 94 93 92 99 94 98 94 75
54 58 60 61 62 61 57 56 57 56 63 63 54 53 28 14 24 39 42 41 37 33 30 24 21 26 34 49 76 92 91 92 98 93 90 83 97 98 90 91 94 94 96
61 62 62 62 60 58 58 59 58 64 63 57 56 29 15 23 38 42 44 41 36 33 25 21 23 30 43 62 68 93 90 96 92 97 85 92 98 94 94 98 100 99 99
65 64 64 63 61 61 61 64 65 67 62 58 27 16 22 37 42 46 45 39 34 26 21 32 43 55 57 70 78 96 91 89 94 88 100 100 97 88 71 94 100 100 91
69 68 66 64 63 61 61 68 72 65 60 30 16 20 33 40 46 48 43 37 28 22 32 48 62 68 76 83 93 95 84 97 96 96 96 83 74 72 86 78 82 89 99
60 60 60 61 61 62 70 73 66 60 31 17 20 29 37 43 48 47 40 33 24 32 60 66 78 85 88 92 93 90 94 95 96 95 87 72 75 74 81 83 88 92 97
58 60 62 65 68 73 75 67 58 29 18 20 28 32 38 47 49 42 35 23 26 29 33 38 75 79 93 94 94 92 96 96 100 97 82 85 90 91 95 97 96 93 95

GFSMW_850_rhum_027.txt.gz
RH
35 33 32 34 35 33 34 45 55 65 65 74 80 84 73 88 91 92 90 88 91 80 38 35 35 35 37 40 39 35 30 26 23 21 20 17 17 14 17 27 20 9 7
38 35 33 35 36 34 36 42 47 56 64 69 77 79 78 80 81 89 91 88 52 35 35 37 38 42 42 39 32 29 24 20 17 16 16 15 14 18 19 11 10 9 10
36 36 33 35 37 37 39 41 46 48 51 72 80 84 76 82 79 83 89 53 35 36 38 40 44 44 35 28 26 23 19 16 14 13 23 18 24 19 15 12 11 13 9
40 37 34 37 39 44 47 52 54 50 61 85 82 80 76 77 80 83 54 35 37 40 42 45 45 38 29 26 24 20 17 13 13 15 18 20 24 24 24 19 13 13 10
40 37 35 38 44 52 56 69 67 69 81 87 85 86 86 87 84 53 35 37 40 43 46 47 42 35 28 24 21 17 13 13 16 19 20 18 18 21 38 42 22 11 9
38 39 38 50 54 62 69 82 86 91 92 92 91 90 89 81 56 36 37 41 43 46 48 46 40 32 25 21 16 12 14 17 20 20 19 19 23 29 36 40 36 38 22
45 43 45 65 65 66 75 86 88 90 91 90 82 77 67 47 35 36 40 44 47 48 48 44 36 28 20 14 12 14 17 20 20 19 17 18 24 29 30 34 31 43 29
49 45 46 61 67 70 79 88 91 89 88 77 62 50 40 36 38 40 44 48 49 49 48 41 30 20 14 13 15 18 21 19 18 17 18 22 27 30 35 41 42 55 60
58 54 58 67 74 77 83 88 91 89 78 54 47 42 38 40 41 45 48 50 51 50 44 32 20 14 14 15 18 21 19 16 16 18 21 26 32 38 38 37 40 63 90
68 69 69 70 77 81 86 85 83 73 54 54 48 39 40 42 46 49 51 52 53 47 36 24 15 14 15 19 22 20 17 16 17 19 24 32 41 42 42 46 45 52 71
76 77 76 72 68 74 76 71 64 59 60 54 43 41 42 47 50 52 54 55 50 40 28 18 15 15 18 23 21 18 17 16 17 21 36 40 50 53 56 56 55 67 79
85 77 69 66 66 66 64 62 60 56 52 46 42 43 46 50 52 55 57 53 44 33 21 16 15 19 24 23 20 18 17 17 21 33 48 52 56 62 67 67 78 82 80
82 71 64 65 64 63 61 58 54 49 44 42 44 47 50 53 56 58 55 48 38 25 17 15 19 26 25 21 19 18 18 23 36 47 55 60 69 74 77 83 87 89 98
76 67 64 63 60 58 54 49 45 43 42 43 46 49 53 56 58 57 52 44 30 19 15 19 28 28 23 21 19 18 24 34 46 54 63 69 74 78 87 92 92 98 97
77 69 65 62 59 55 51 47 44 43 43 44 48 52 56 58 58 54 48 37 24 16 19 30 30 25 23 21 20 25 36 50 54 65 63 67 69 80 90 90 91 89 95
79 70 66 63 60 56 53 50 47 45 44 46 49 53 58 60 56 52 43 30 17 18 33 32 28 25 24 22 19 25 47 52 56 55 52 59 65 80 91 93 93 93 92
70 67 64 63 60 58 56 54 51 48 47 47 50 55 59 58 53 46 36 18 18 34 35 32 29 26 24 20 20 32 69 53 54 57 63 70 83 84 83 84 95 98 96
68 67 66 67 64 62 60 58 54 51 50 50 52 57 59 54 50 43 20 17 34 38 36 32 30 26 21 21 25 42 55 56 63 68 76 91 87 89 94 95 97 81 77
58 58 60 62 66 65 63 59 55 54 51 52 55 59 56 53 45 21 17 34 39 39 37 33 30 22 20 24 27 45 58 73 78 79 98 95 95 93 97 96 96 96 76
57 56 60 64 66 66 64 60 56 53 52 52 58 59 54 46 26 16 34 40 41 41 36 32 24 21 24 26 27 62 87 87 84 97 91 99 96 95 99 94 97 95 76
57 60 62 63 66 66 63 59 55 52 53 58 60 53 49 30 16 32 40 42 43 40 35 26 19 20 23 26 33 86 91 86 100 86 90 84 96 96 93 94 95 93 96
63 64 63 66 66 64 60 56 54 55 58 60 54 52 29 17 29 38 41 45 43 38 27 19 17 18 22 32 47 94 92 91 87 96 84 91 99 96 96 92 100 100 100
65 66 64 66 63 58 56 57 57 60 62 56 53 28 17 27 36 40 45 46 41 29 20 23 23 26 32 45 62 92 95 91 94 94 97 99 97 78 58 73 100 100 88
66 65 64 60 56 57 59 61 64 63 58 54 27 17 25 34 38 45 48 44 34 24 22 25 32 37 47 58 86 97 88 96 99 98 95 81 66 61 68 75 79 88 100
64 63 63 62 61 60 61 65 67 62 56 28 18 24 30 33 41 48 46 38 26 26 32 36 51 63 73 88 95 93 96 94 96 99 86 67 66 65 78 82 86 90 93
64 63 62 63 60 62 69 69 62 53 25 18 23 28 30 39 49 47 40 28 25 22 25 31 40 55 71 96 97 96 96 99 100 91 75 74 76 81 92 94 93 90 92

GFSMW_850_rhum_030.txt.gz
RH
43 41 38 36 32 33 32 30 33 36 51 69 78 88 90 88 90 95 95 95 89 85 86 40 35 36 38 39 32 24 23 23 22 21 18 14 14 14 15 17 23 16 10
39 39 39 39 33 36 33 31 32 45 59 73 78 84 92 90 89 94 96 96 91 79 37 36 37 41 42 35 28 23 23 23 21 16 14 13 12 16 18 11 11 11 10
47 39 37 38 36 35 33 32 35 52 68 79 83 91 91 88 87 92 96 88 69 38 36 38 42 44 40 36 28 24 23 20 14 13 16 16 18 18 15 13 12 11 10
42 42 40 38 37 36 37 38 40 50 63 80 86 85 83 76 85 79 74 76 43 36 39 43 45 45 42 35 26 23 19 14 13 14 17 19 21 22 22 17 12 12 11
30 33 38 36 36 38 38 42 45 54 57 72 90 88 84 77 70 76 77 49 37 40 43 46 46 45 40 32 24 18 14 14 15 18 18 16 15 16 34 34 17 12 12
40 40 38 38 38 43 46 51 51 58 59 73 91 82 79 74 73 74 57 37 40 43 46 47 47 44 36 26 18 15 14 15 18 18 17 16 20 22 33 40 36 41 26
38 42 42 39 42 47 50 61 65 66 73 90 82 82 82 83 83 72 40 39 42 46 48 48 46 40 30 20 16 15 16 18 18 16 15 17 22 26 31 39 37 43 30
42 43 42 41 42 49 54 69 80 84 90 88 87 91 93 87 62 39 39 43 47 48 49 47 43 34 24 17 16 16 19 19 16 16 17 18 24 30 38 46 51 50 53
29 42 46 46 49 54 59 70 88 94 95 94 94 86 70 49 38 39 43 47 49 50 49 45 36 27 19 16 16 19 20 17 16 17 17 19 26 35 41 47 54 66 77
43 46 53 56 60 68 72 85 92 94 94 89 74 58 44 40 40 43 47 50 52 52 48 40 33 23 17 17 21 22 19 17 17 17 18 22 31 40 46 56 64 71 71
38 50 64 67 70 80 86 92 95 94 87 69 53 45 40 41 44 48 51 53 53 50 44 37 26 19 17 22 24 21 19 18 16 17 22 25 37 43 52 66 76 77 85
65 73 77 83 86 85 91 94 92 88 72 56 50 42 41 44 48 52 54 55 52 48 43 31 21 18 22 26 23 20 19 18 18 20 26 32 42 52 63 74 76 86 83
90 86 81 88 89 87 87 86 81 71 61 55 46 43 45 48 52 54 56 54 51 48 37 24 18 22 28 26 23 21 20 19 22 28 35 42 53 58 63 74 89 90 98
88 86 83 85 84 82 80 75 68 63 58 48 44 45 48 51 55 57 56 54 50 41 28 18 22 29 29 26 24 22 20 20 23 27 32 41 49 56 85 96 95 99 87
88 84 78 74 71 69 66 62 59 54 48 44 45 48 51 54 57 57 56 52 44 32 19 22 32 32 29 27 24 21 20 24 27 33 42 54 62 70 95 95 94 93 91
88 81 74 69 66 64 61 57 52 47 44 44 47 50 54 57 58 56 53 46 35 20 22 33 34 33 30 27 22 18 29 33 42 47 58 67 75 78 93 94 96 95 98
84 77 69 65 63 60 55 50 45 43 43 45 48 52 55 58 56 53 47 38 22 22 34 37 36 34 31 24 17 17 23 40 53 64 70 76 82 75 79 82 96 98 93
83 74 66 63 60 56 52 48 46 44 45 46 49 52 56 57 54 49 41 25 22 34 38 39 38 34 26 18 16 19 29 53 69 72 78 89 80 87 96 93 98 86 78
74 67 66 63 61 57 54 51 49 47 46 48 50 54 56 55 50 42 28 21 34 38 41 40 37 29 18 16 16 21 57 76 78 78 92 91 94 92 95 96 97 92 75
67 66 67 65 62 60 58 55 52 48 48 49 52 55 54 49 44 30 21 33 38 41 42 40 30 20 17 18 21 52 90 92 85 97 89 85 98 95 100 95 97 95 75
64 66 66 65 66 64 61 57 53 51 50 51 54 54 49 46 33 21 34 38 40 43 42 34 22 16 18 20 27 55 95 93 97 88 86 89 94 98 95 97 96 90 96
69 68 68 70 69 66 61 57 53 51 50 53 53 50 50 34 20 32 36 39 44 44 37 23 16 15 18 26 37 70 96 94 91 95 92 92 98 99 98 88 98 100 100
69 71 69 70 68 64 59 56 53 52 53 55 53 52 30 20 30 34 37 44 46 40 24 19 18 20 23 32 40 67 95 93 96 96 99 100 97 70 60 64 98 92 85
71 72 70 68 63 57 55 55 54 55 57 56 52 27 20 28 32 35 42 46 42 26 20 21 28 32 36 40 67 93 86 94 95 98 93 76 66 63 63 76 78 83 89
70 69 66 61 54 53 55 57 59 59 61 50 26 21 28 30 32 41 47 44 27 24 28 33 40 50 54 71 96 95 94 96 94 99 78 66 65 63 76 81 82 85 90
63 60 57 57 56 58 61 62 62 59 43 22 21 26 28 30 39 48 44 27 21 21 24 30 36 40 45 82 98 97 97 99 100 88 71 71 73 73 89 90 88 88 92

GFSMW_850_rhum_033.txt.gz
RH
39 42 44 42 40 38 35 32 31 31 31 34 55 79 84 91 89 92 91 96 96 91 88 84 46 35 36 41 36 31 24 21 18 16 13 11 12 11 15 18 22 13 11
38 36 39 42 42 40 35 33 34 37 35 41 51 74 83 90 92 94 98 98 93 96 85 53 34 37 42 40 37 32 26 21 17 14 13 12 12 20 14 12 12 12 11
36 32 35 35 38 39 37 35 36 39 39 43 60 83 94 99 100 100 99 98 96 87 52 35 37 42 44 42 40 33 24 18 15 14 14 16 21 15 13 12 12 11 10
39 24 29 36 37 37 38 36 38 38 44 57 73 81 86 92 97 96 98 97 86 54 37 38 41 45 45 43 38 30 22 17 15 14 15 16 15 19 27 15 15 13 13
32 28 24 34 36 36 38 37 39 45 50 68 85 91 96 92 93 95 93 79 64 45 39 41 45 46 45 42 35 26 19 16 15 16 16 14 13 14 23 33 19 16 16
29 34 34 31 38 39 40 42 43 50 56 76 93 94 94 90 91 86 81 71 58 40 42 45 46 47 45 39 31 23 18 16 16 17 15 15 16 19 28 46 45 49 27
32 35 43 44 39 42 39 44 46 53 61 77 94 96 95 89 81 73 73 64 44 41 45 47 48 48 43 36 28 20 18 18 18 16 15 15 17 19 22 32 49 57 50
29 37 41 40 44 41 41 44 47 58 64 79 93 96 94 87 78 73 61 47 41 45 47 49 49 46 40 33 23 19 18 19 18 16 16 16 18 21 28 38 51 57 53
28 33 28 45 46 44 42 44 52 63 66 80 92 94 92 90 80 59 42 41 44 47 49 50 48 44 38 26 20 19 21 20 18 17 17 17 21 25 31 39 49 71 70
36 32 32 40 46 50 53 60 67 71 80 88 88 93 94 71 59 44 41 45 48 50 51 50 47 41 29 22 20 22 22 20 19 18 18 20 24 27 32 42 52 60 80
42 38 35 44 49 57 71 79 85 89 89 84 92 89 69 51 40 41 45 48 50 52 51 49 43 32 23 20 24 24 23 21 20 20 20 21 27 28 34 40 48 60 79
56 58 57 60 66 79 91 93 96 94 91 90 82 64 49 41 42 46 49 51 53 52 50 45 36 25 21 26 27 26 24 22 20 19 19 21 28 28 30 38 45 59 78
81 83 84 87 87 94 99 100 97 92 88 74 58 46 41 42 46 50 52 54 53 52 47 40 27 21 27 30 29 27 25 22 19 19 23 27 29 36 44 52 71 86 98
91 92 92 92 97 98 100 98 93 85 74 54 46 43 43 46 50 53 55 53 52 49 43 30 23 28 32 32 31 28 24 19 18 20 26 33 44 52 61 92 99 100 98
92 90 91 94 98 99 97 92 84 72 56 49 44 44 46 50 53 55 54 52 50 44 33 24 28 34 34 34 32 26 19 18 18 22 30 41 53 62 94 97 96 96 94
92 87 88 92 91 91 88 79 69 59 52 47 44 46 49 53 55 54 53 51 45 35 26 29 35 37 37 34 28 18 17 19 26 33 36 48 62 75 100 97 100 97 93
91 85 85 88 85 83 80 70 62 54 47 45 46 49 52 54 55 53 51 45 37 28 30 36 38 39 37 31 20 15 17 22 27 34 53 71 82 82 89 87 100 99 98
89 82 80 76 72 69 64 59 53 47 45 46 48 51 54 55 54 50 45 40 30 30 36 39 40 39 32 21 15 15 18 24 37 52 68 83 86 94 99 97 98 93 89
84 78 74 69 65 61 57 53 46 44 45 47 50 52 54 54 51 47 42 30 29 36 38 40 40 36 23 16 15 16 23 39 59 72 84 91 98 100 94 96 94 97 98
76 71 70 66 62 56 50 45 44 44 46 48 50 52 53 50 49 46 32 28 35 37 40 42 37 24 16 15 15 22 55 78 91 99 100 95 100 98 100 96 96 99 84
74 71 68 63 58 53 48 46 45 46 47 49 52 52 51 50 46 32 27 34 36 40 43 40 27 16 16 17 20 26 91 98 98 99 97 99 98 99 96 96 99 98 97
76 73 69 64 58 54 50 49 47 47 49 51 52 53 52 49 32 26 33 34 39 44 42 27 16 14 15 18 25 38 96 97 96 98 97 95 99 98 98 86 83 100 100
78 75 69 65 59 54 52 52 50 50 51 52 55 54 51 28 26 31 33 38 44 42 25 17 15 15 16 21 30 60 96 96 98 96 98 100 93 64 60 58 84 80 82
78 75 70 65 59 54 53 54 51 51 54 58 57 48 25 25 29 31 37 46 41 24 18 17 18 20 24 31 56 93 91 90 100 98 96 74 61 61 56 72 77 82 88
76 72 68 63 56 52 52 52 54 57 58 57 42 23 24 28 30 37 46 40 23 20 21 23 28 35 44 60 96 97 95 96 95 99 82 64 61 59 67 79 83 86 90
71 67 62 57 51 52 55 56 58 58 57 36 22 24 27 30 40 48 37 21 18 19 21 24 29 34 40 66 99 100 100 100 100 93 70 66 69 68 83 90 89 88 92

GFSMW_850_rhum_036.txt.gz
RH
37 40 43 43 44 42 33 36 34 33 33 39 78 96 99 85 82 88 96 94 88 94 94 90 88 56 34 35 40 39 37 31 24 17 19 13 11 12 19 20 20 13 12
27 29 37 41 45 45 43 39 36 34 32 47 62 86 91 82 78 82 98 99 94 96 92 89 72 34 36 41 41 41 38 33 24 16 20 25 24 29 20 17 13 19 12
24 24 25 36 41 45 46 40 36 33 35 43 75 67 73 88 96 100 99 99 99 97 96 70 36 36 39 43 44 43 37 30 24 16 17 22 24 24 21 18 18 15 14
29 29 27 28 34 42 41 40 38 35 40 42 45 53 64 91 99 100 100 100 100 97 60 41 37 39 43 44 45 42 36 28 19 17 15 15 16 24 24 27 30 29 28
27 28 31 32 35 42 34 38 39 40 40 43 47 72 93 100 99 100 100 99 98 78 44 39 40 43 44 46 45 41 33 24 18 16 16 17 20 29 35 31 27 31 35
26 29 31 36 38 47 37 38 40 42 43 47 57 85 93 94 98 99 98 98 89 62 41 40 43 45 46 47 44 38 30 21 18 17 17 16 25 28 32 31 33 37 37
24 28 38 42 49 52 39 42 44 46 46 52 73 92 94 98 96 91 96 94 76 53 46 42 45 46 48 46 42 34 23 19 18 18 18 17 18 26 35 42 42 42 42
28 29 37 47 54 47 34 45 48 52 52 62 83 93 99 100 97 92 92 83 59 51 42 44 46 48 47 44 36 26 20 20 20 19 18 18 18 24 37 49 53 48 41
30 34 33 46 56 62 43 44 51 56 60 71 86 92 90 99 97 90 83 62 49 44 45 47 48 47 45 39 29 22 21 22 21 20 20 20 24 29 39 50 59 60 54
35 40 40 45 55 69 59 67 69 69 70 77 86 93 88 95 89 82 64 50 44 45 47 48 47 45 40 31 24 22 24 24 23 22 22 23 27 27 44 59 63 65 63
46 52 49 53 70 83 88 74 77 76 77 82 85 94 91 84 87 67 49 43 45 48 49 48 46 41 34 26 23 26 27 26 25 24 23 21 23 33 50 60 64 66 65
65 71 67 74 87 94 93 85 84 80 79 83 90 93 89 90 77 47 43 46 48 50 48 48 43 37 28 25 28 29 29 28 26 24 21 23 36 29 47 62 67 69 74
74 82 85 85 88 92 90 90 88 85 87 91 88 92 89 61 42 42 46 49 50 50 49 45 40 31 26 29 31 32 31 28 25 22 20 23 31 48 66 72 78 81 80
80 83 85 87 88 89 87 91 92 91 90 88 92 82 57 42 42 46 49 51 50 50 48 43 34 28 31 33 34 33 30 27 24 21 22 32 49 70 78 82 84 79 86
84 84 84 85 88 82 92 96 95 90 90 87 70 48 42 42 46 50 51 50 50 48 44 36 30 31 34 36 35 31 30 34 33 30 42 60 65 48 78 95 91 88 88
85 83 82 82 77 90 96 95 90 86 75 58 51 42 43 47 50 51 50 49 48 44 37 31 32 34 37 37 34 26 19 26 39 58 62 69 79 84 95 95 94 95 96
87 80 79 77 77 95 96 89 85 68 56 53 44 44 48 50 51 51 50 47 44 38 32 32 34 37 38 36 28 18 14 45 52 64 71 75 78 90 90 94 96 99 98
84 78 77 79 87 89 84 84 67 58 54 44 46 48 50 52 51 50 47 44 39 32 32 35 37 38 38 30 19 14 19 56 74 76 81 84 87 88 92 94 95 96 94
80 75 87 88 80 75 72 61 50 45 45 46 48 50 52 52 51 48 45 40 32 31 34 37 39 39 31 19 14 14 36 70 74 81 83 87 88 91 92 95 94 88 82
76 77 80 75 74 64 59 53 47 45 46 48 50 51 51 51 50 46 40 32 31 34 36 39 40 31 18 14 14 17 45 73 77 79 81 82 90 92 95 98 90 91 81
78 74 69 66 63 58 52 47 44 45 47 49 51 51 50 49 46 40 30 31 33 34 39 41 31 17 15 15 16 19 58 86 85 84 79 83 90 94 95 96 95 93 97
75 70 66 60 55 52 46 44 44 46 48 50 51 52 51 46 38 28 30 31 34 41 42 30 16 18 20 22 21 25 52 96 92 86 92 92 96 96 97 95 89 100 100
81 76 66 56 48 45 44 45 46 47 49 51 52 50 47 37 27 29 31 35 42 41 25 17 19 24 26 41 40 53 95 92 92 96 95 98 98 95 55 69 77 90 100
72 66 59 53 48 46 46 48 48 50 51 52 51 49 34 26 28 30 35 43 39 21 19 39 50 54 56 66 76 89 90 89 92 95 95 96 93 88 87 83 96 100 100
71 65 59 54 50 47 48 50 50 51 53 55 50 31 26 28 29 36 45 35 18 18 20 26 27 49 69 77 95 96 96 98 97 97 95 89 85 93 92 96 100 100 100
69 63 58 53 49 50 51 51 52 54 58 47 27 25 27 30 39 46 28 17 18 18 18 19 24 30 44 80 100 100 100 100 100 100 93 91 98 99 100 100 100 96 97

GFSMW_850_rhum_039.txt.gz
RH
30 30 33 35 33 32 35 37 37 40 45 52 64 75 80 81 92 98 99 84 83 79 82 84 82 86 73 34 34 39 40 40 36 30 23 25 20 17 26 25 26 32 24
24 26 28 32 35 35 37 38 37 41 47 56 64 75 81 86 92 100 98 90 85 88 90 89 86 85 41 35 39 41 42 42 37 26 25 29 27 30 20 31 24 20 25
22 20 21 24 30 35 35 39 39 41 50 56 72 86 87 94 100 100 100 100 83 96 95 92 88 68 35 38 42 43 44 41 37 25 18 24 27 24 22 22 29 20 29
22 22 21 20 21 27 35 39 41 46 55 55 71 72 53 74 91 100 100 98 95 99 97 92 86 38 39 41 43 45 45 41 33 24 19 16 16 27 26 26 28 28 27
19 20 22 25 23 22 33 42 46 55 64 58 76 66 70 76 82 99 100 100 100 100 96 90 53 38 41 43 45 46 46 41 28 21 17 22 25 30 33 37 31 28 30
19 20 23 24 26 28 31 43 54 65 77 75 55 56 82 77 80 100 98 100 99 99 97 69 39 41 43 44 46 47 45 37 26 19 18 19 23 26 32 32 31 34 31
20 20 20 24 29 30 33 50 65 73 75 54 67 76 94 79 86 99 98 98 98 97 68 44 42 42 44 46 47 47 41 31 22 19 20 20 22 25 32 39 40 43 33
20 26 27 26 36 38 39 52 71 75 67 64 82 91 96 86 96 100 99 99 96 88 57 42 42 44 46 47 48 44 35 25 21 21 22 22 22 26 34 43 49 53 49
23 28 29 33 30 43 48 62 74 75 71 82 88 96 91 94 100 100 98 96 89 65 50 44 43 46 47 48 46 40 29 23 23 24 24 25 27 30 33 38 48 59 61
28 32 37 42 31 43 54 65 73 77 78 87 92 91 92 99 100 94 92 90 63 50 45 44 45 47 48 48 43 32 25 24 26 27 27 28 29 30 31 42 53 56 61
34 39 47 52 39 46 62 70 75 80 84 84 79 84 95 100 99 91 88 76 60 44 44 45 47 48 48 44 35 27 26 27 28 30 32 29 28 31 39 44 50 57 61
30 52 61 58 52 61 75 78 80 81 82 74 74 89 91 98 95 84 81 68 50 47 45 47 48 48 45 38 30 28 28 30 32 33 31 29 38 41 44 53 59 63 67
33 59 65 68 69 80 84 82 80 76 74 72 80 92 90 91 81 82 69 52 45 46 47 48 48 46 40 32 29 30 32 33 34 34 34 37 43 50 56 62 68 74 80
47 66 72 70 73 82 82 78 74 72 72 78 87 84 79 82 86 63 49 45 47 47 49 49 46 42 35 30 30 33 34 34 36 42 46 48 50 57 66 71 80 87 84
54 72 76 74 76 79 77 70 68 68 76 82 82 79 77 72 62 51 45 47 48 50 50 48 43 36 31 31 34 35 33 30 35 37 44 53 60 62 80 91 91 92 90
73 75 77 77 80 73 67 65 67 73 80 83 81 72 67 58 50 46 49 48 50 51 49 46 38 31 32 35 35 34 28 20 22 43 42 52 64 69 77 88 90 90 93
83 78 77 79 68 69 72 64 70 80 83 80 64 58 54 47 47 48 50 52 52 50 48 38 31 33 35 35 35 29 18 14 28 44 59 69 71 78 83 86 87 89 91
83 76 76 70 68 71 68 67 78 78 71 55 57 56 54 48 49 57 53 52 51 47 37 31 33 35 37 36 28 16 14 19 41 65 69 76 78 82 84 88 91 84 86
75 72 67 65 68 75 73 68 60 56 55 56 61 61 56 60 52 52 52 50 45 38 31 33 34 37 37 28 16 14 14 29 60 66 71 74 81 80 86 92 88 91 91
75 74 68 69 82 66 62 65 66 75 77 72 56 52 50 51 52 51 49 47 47 30 32 33 37 38 26 19 15 15 18 55 71 73 76 78 78 85 91 94 97 95 90
93 90 88 85 87 92 89 80 70 52 48 48 50 50 51 52 50 58 72 34 30 30 33 39 37 27 24 24 27 28 32 73 90 87 86 82 88 92 93 93 93 94 95
59 55 52 50 49 48 48 47 46 48 49 50 51 51 52 66 74 44 30 28 29 34 41 36 26 33 48 53 60 48 78 95 94 91 89 88 94 92 94 95 96 98 100
68 61 58 53 51 52 58 59 54 49 49 51 57 69 66 50 39 28 27 29 35 41 30 27 39 44 47 52 65 76 89 92 91 92 92 93 94 94 92 90 97 98 97
74 70 64 61 56 49 45 46 49 50 65 63 55 52 50 34 26 26 28 38 41 24 22 31 35 28 37 59 68 63 85 92 91 90 92 98 93 85 86 88 88 93 97
60 54 52 47 45 46 47 49 52 52 52 54 54 46 30 25 25 30 42 35 20 18 18 17 16 23 34 53 84 97 95 96 97 99 86 83 82 85 89 89 90 90 94
58 54 49 47 46 47 49 49 50 53 57 57 40 27 24 27 37 44 26 18 19 18 15 15 20 28 39 66 89 100 100 100 100 93 90 88 91 94 92 94 91 91 94

GFSMW_850_rhum_042.txt.gz
RH
30 30 28 30 26 26 28 35 36 37 37 47 64 74 80 78 77 80 78 85 90 78 78 76 78 77 79 76 41 33 38 41 41 39 32 23 23 21 20 18 23 24 26
28 28 29 30 31 31 29 28 36 38 39 38 49 64 76 78 76 79 87 84 98 80 83 83 80 78 79 63 34 37 41 43 43 39 32 24 26 28 27 22 22 26 21
24 26 26 26 28 31 33 34 33 36 38 41 46 60 75 78 81 83 87 92 97 88 93 90 86 84 81 48 35 40 42 44 44 40 30 21 26 23 20 23 24 23 24
22 23 23 23 22 25 30 31 35 37 38 41 51 60 73 79 81 82 88 96 100 100 100 97 93 89 83 42 38 42 44 45 45 40 29 20 17 16 18 22 26 25 30
19 20 21 22 21 21 23 28 30 36 39 44 52 67 71 70 59 69 90 94 98 98 99 100 97 89 65 38 39 43 45 46 45 37 26 20 18 20 24 26 22 21 22
18 20 20 20 22 24 22 22 33 33 41 48 58 75 67 62 65 81 98 96 100 99 99 99 95 81 46 40 42 44 47 47 43 35 24 20 20 22 27 29 23 23 20
18 19 20 20 22 24 25 26 26 42 43 59 70 84 74 70 57 64 79 98 99 100 97 94 84 66 41 42 44 46 48 46 41 31 23 21 21 22 23 27 28 32 23
18 20 22 27 28 28 28 28 29 52 53 67 75 84 91 73 60 62 76 94 99 98 96 93 69 43 42 44 46 48 48 45 37 27 23 22 23 24 26 30 36 36 33
19 22 28 32 35 37 33 34 33 57 68 73 80 90 90 76 78 72 98 100 99 99 95 74 47 43 43 45 47 48 47 40 31 25 24 24 26 26 27 30 34 47 62
25 28 34 39 39 45 36 41 42 57 75 81 88 92 93 92 88 88 99 100 100 93 79 51 45 44 45 47 48 48 42 32 27 25 26 28 28 28 29 29 30 39 54
27 31 36 40 39 45 37 46 51 72 78 88 91 92 94 95 88 96 99 99 92 73 55 46 43 44 46 48 49 44 36 29 27 28 29 30 31 30 29 29 32 37 50
28 31 51 48 45 52 48 56 63 68 82 87 92 95 94 90 95 98 96 87 72 71 48 46 43 46 49 48 45 39 32 28 29 31 32 32 33 31 30 34 42 55 62
37 41 50 55 63 63 65 65 74 84 87 90 93 91 83 94 96 89 82 67 67 61 61 52 63 54 49 44 41 32 29 30 32 33 34 34 34 31 36 47 56 59 63
43 48 53 65 69 75 77 83 87 85 84 84 78 80 89 92 84 76 72 70 59 54 54 52 51 51 45 41 33 29 31 32 32 31 31 32 39 48 58 62 67 79 86
53 56 70 71 71 84 86 81 80 77 76 72 78 84 83 80 78 71 62 69 62 47 51 50 51 46 45 35 29 32 32 33 30 22 20 32 47 56 70 80 81 88 94
54 72 71 74 75 82 77 75 74 73 71 73 73 71 70 69 69 68 52 45 52 49 51 57 48 42 35 30 32 33 33 28 18 15 20 35 45 52 74 82 87 87 90
75 76 76 76 77 70 70 70 67 62 61 59 61 63 68 63 55 59 70 72 59 56 52 48 41 35 30 30 33 34 27 17 15 18 37 52 59 66 73 81 87 88 94
82 77 78 78 74 70 68 66 60 56 55 56 55 58 58 63 65 53 48 46 47 51 50 47 36 30 30 32 35 26 16 15 16 29 47 64 70 75 83 84 89 96 88
76 76 76 74 69 64 59 57 56 59 55 55 60 66 71 67 68 77 62 48 51 52 49 35 28 30 36 36 25 17 16 15 16 27 51 66 73 82 84 91 95 89 88
70 69 65 61 58 62 67 68 63 62 68 67 68 66 75 96 88 56 51 51 65 57 30 28 32 37 33 23 24 22 19 19 25 40 54 67 89 89 90 91 92 98 95
65 66 65 78 71 69 71 71 81 88 90 96 100 94 72 50 50 54 84 78 34 26 28 34 37 29 29 31 31 32 43 58 82 91 90 90 91 92 97 95 97 95 92
96 95 90 85 93 96 94 97 100 99 92 73 51 48 51 63 89 75 37 28 27 30 37 35 24 29 32 36 35 66 81 90 94 93 95 88 95 96 94 94 94 95 96
62 75 84 86 85 93 79 60 52 48 48 50 51 54 68 59 41 30 25 25 32 39 27 20 22 21 23 23 37 44 52 55 92 92 95 98 97 93 89 79 95 97 87
56 53 50 49 50 49 52 55 52 51 50 60 67 55 50 37 26 24 28 38 38 21 17 18 16 14 14 20 31 45 53 64 83 88 97 90 72 79 82 69 76 84 88
64 76 73 68 61 53 49 48 51 60 66 56 54 47 33 24 24 30 40 31 19 19 18 15 13 17 24 37 70 83 94 99 97 99 80 60 63 64 66 77 83 84 86
55 53 47 46 47 48 50 52 52 53 58 59 44 28 23 24 35 40 22 19 19 17 13 14 21 29 44 53 72 97 99 100 100 93 74 69 70 74 84 87 84 85 89

GFSMW_850_rhum_045.txt.gz
RH
30 30 29 28 27 26 25 27 32 39 53 62 66 72 84 86 76 76 77 82 83 82 89 81 78 75 74 75 73 67 32 38 41 42 38 32 26 24 23 20 20 20 20
27 28 29 30 30 29 26 25 27 35 44 60 62 56 69 80 79 71 78 78 78 85 84 81 78 77 76 74 72 39 33 40 42 42 41 29 31 26 25 23 20 22 25
26 27 27 28 29 29 30 30 30 31 39 42 49 58 62 73 74 74 74 80 80 81 80 84 82 82 80 78 73 35 34 40 42 44 41 29 25 23 20 22 28 30 25
24 24 23 23 24 26 27 28 30 32 34 40 39 39 57 70 76 72 75 81 84 80 71 90 90 89 85 84 68 36 38 41 44 44 42 36 27 20 17 20 20 22 22
21 21 20 21 21 22 23 24 26 28 30 36 42 40 43 54 62 69 68 71 68 81 78 92 94 93 90 83 48 37 40 43 45 46 41 35 25 20 19 20 19 19 20
21 20 21 22 22 22 22 22 22 26 30 27 39 43 42 45 59 66 61 63 68 80 89 96 99 93 92 79 49 39 42 45 46 45 41 32 24 20 21 22 21 22 20
19 19 18 20 20 22 24 23 24 24 25 33 31 46 46 50 52 56 58 57 71 96 97 96 98 97 91 64 43 42 44 46 47 44 38 29 23 22 22 24 25 27 24
18 19 20 24 26 26 27 28 28 26 26 32 38 40 49 58 65 60 60 68 82 98 98 95 98 92 66 53 44 43 46 48 46 42 34 26 23 24 26 28 31 33 29
18 21 27 28 31 32 28 31 32 32 30 31 52 49 57 67 65 64 74 95 100 100 95 96 96 78 59 47 43 45 48 47 42 36 30 26 25 27 28 30 32 37 50
22 27 32 34 34 33 27 30 36 38 35 55 60 59 71 71 65 74 86 84 100 100 97 96 82 79 49 48 44 47 48 46 40 33 28 27 29 30 31 30 30 33 44
27 31 32 31 31 29 26 38 34 41 42 60 69 70 87 71 70 87 82 86 99 100 99 92 75 56 45 43 45 45 44 41 34 29 28 30 31 31 31 30 29 33 41
36 40 42 44 42 39 36 46 43 46 56 64 71 86 88 83 86 93 91 99 100 98 93 88 55 42 42 53 64 46 44 37 30 29 30 32 33 33 32 32 34 40 44
51 46 54 49 38 46 55 62 62 59 65 70 82 76 85 90 95 94 96 100 99 95 71 62 62 63 70 82 57 41 36 32 30 30 32 31 32 29 32 37 42 47 61
56 56 58 56 41 50 80 71 66 70 73 79 79 84 84 92 94 94 96 93 87 75 69 60 70 74 55 40 41 36 31 30 30 31 30 26 24 31 42 49 61 77 81
71 60 56 59 54 68 86 81 81 85 89 93 87 88 94 89 88 89 79 66 73 59 59 69 84 79 45 39 47 37 31 31 31 27 18 17 23 39 47 68 80 84 86
84 64 66 72 78 76 85 86 86 86 89 91 88 85 81 80 84 65 62 62 59 67 80 71 47 54 78 34 34 31 32 31 24 16 16 18 27 38 53 72 82 88 89
90 78 75 76 81 83 85 80 73 77 78 77 73 73 74 67 60 70 69 78 70 60 64 86 82 39 36 34 32 32 32 22 16 15 14 16 30 59 68 71 83 88 92
86 79 76 72 70 76 80 73 69 68 68 66 60 59 62 76 70 72 70 78 88 88 76 57 59 43 35 31 34 31 19 17 16 13 13 27 43 51 67 87 92 98 92
78 76 71 67 70 71 66 65 60 60 58 59 70 74 61 67 88 91 80 90 97 89 42 39 49 32 34 35 26 18 18 16 13 16 30 47 50 66 93 91 92 86 82
73 76 79 72 66 62 59 59 57 57 66 88 92 92 100 98 94 99 96 59 42 48 89 34 33 36 32 23 22 21 17 20 26 30 39 50 79 95 94 96 98 99 95
68 69 66 65 65 60 60 59 71 88 97 98 100 100 100 100 100 88 59 74 92 38 31 36 36 26 23 25 31 34 56 68 79 63 52 64 78 98 97 96 97 95 93
77 79 76 94 97 98 99 99 99 100 100 100 99 100 95 60 60 96 80 36 31 33 38 31 22 24 25 28 21 26 44 68 62 61 71 85 99 98 98 94 93 97 99
98 100 100 99 99 100 100 100 100 100 100 98 68 55 71 92 54 34 30 28 34 37 22 19 19 18 15 13 17 24 34 39 67 82 99 100 100 69 52 55 66 70 76
98 99 98 98 98 100 100 100 95 80 69 55 73 87 56 36 30 27 30 39 27 19 19 17 14 11 14 21 27 35 50 71 91 91 100 89 62 55 56 65 75 79 83
62 68 65 74 74 76 69 50 49 50 80 81 52 40 31 26 28 38 34 21 20 18 14 12 14 20 24 39 78 93 95 100 96 99 72 54 51 61 75 78 80 81 84
57 52 54 56 52 51 49 49 53 56 56 51 36 28 27 36 40 24 20 20 17 12 12 18 32 54 65 93 96 98 99 100 100 76 61 58 77 84 84 84 83 84 86

GFSMW_850_rhum_048.txt.gz
RH
29 30 31 29 28 28 27 27 26 29 52 63 65 64 65 67 77 84 82 83 86 85 79 85 87 84 83 76 79 80 82 57 35 40 40 37 32 27 24 23 22 23 22
26 27 28 29 31 30 30 28 27 26 26 48 58 60 57 62 63 66 76 74 77 80 76 81 86 88 83 80 80 77 76 35 37 40 41 37 33 32 27 26 24 24 25
26 24 24 26 27 28 29 30 30 28 26 30 48 58 63 61 65 69 71 75 74 76 62 73 81 86 84 80 78 77 68 33 37 42 41 38 34 30 29 23 23 26 30
25 24 24 23 25 26 26 28 30 30 32 33 48 53 59 62 60 59 61 69 74 76 65 65 82 78 83 82 82 80 58 35 39 42 43 42 40 29 22 24 24 25 26
21 21 21 21 22 23 22 23 24 27 28 33 34 53 61 58 53 53 58 61 71 73 67 60 68 79 88 86 86 84 54 38 40 43 44 43 40 34 26 22 22 22 22
18 20 21 21 20 21 22 22 23 24 25 25 31 34 41 60 61 56 56 56 64 68 64 64 70 97 96 92 88 85 48 43 42 44 45 44 38 32 25 22 22 21 20
22 20 19 20 21 21 21 21 22 23 23 23 23 29 36 36 51 52 51 54 58 62 62 60 64 94 98 88 89 81 56 44 46 46 45 42 38 31 25 22 23 25 24
26 21 23 22 22 22 22 22 21 20 20 23 25 25 30 36 39 51 50 50 52 55 56 63 96 100 95 91 93 70 46 46 45 44 44 39 33 27 24 25 27 28 27
37 35 26 29 29 30 29 27 24 23 21 25 25 27 27 39 38 45 52 54 58 59 63 84 100 98 92 95 83 57 62 48 45 48 50 38 30 26 26 28 29 32 40
51 44 42 38 38 33 31 31 29 22 20 30 31 32 30 42 47 48 58 60 61 70 90 100 100 94 91 77 65 62 62 46 48 41 41 32 28 28 29 30 32 32 37
53 52 40 36 38 36 33 27 24 24 26 35 37 38 46 66 66 57 59 63 72 94 100 100 100 92 74 70 62 58 51 51 49 39 35 30 29 30 31 33 32 31 34
60 61 57 44 45 43 39 34 26 27 36 36 42 50 86 75 71 73 70 78 97 100 100 100 94 74 72 69 60 57 53 54 60 37 30 32 34 31 33 31 28 30 35
66 64 57 55 53 46 45 38 35 54 49 46 55 73 89 75 83 95 94 94 94 100 98 80 79 77 62 72 68 75 83 70 36 36 34 32 31 30 27 26 29 34 41
76 77 72 65 57 59 53 42 44 69 77 76 90 92 82 94 90 93 97 98 99 96 86 86 72 64 60 87 89 64 44 46 60 80 61 38 25 21 24 30 36 51 68
87 81 76 66 71 73 76 66 73 86 100 100 97 90 97 98 93 91 94 93 87 86 76 71 81 89 92 79 83 76 91 83 84 55 29 21 18 22 33 51 62 76 76
95 89 79 78 80 82 82 80 79 87 97 97 97 97 97 94 92 90 86 77 74 77 76 83 90 93 80 68 94 86 44 55 37 25 17 17 19 23 31 46 66 84 90
96 90 79 77 80 81 80 83 88 94 96 93 92 92 92 90 84 78 71 79 86 88 94 92 86 96 96 92 90 89 50 30 20 18 16 15 16 24 32 38 51 78 91
75 78 73 73 76 81 86 90 93 94 95 93 88 83 76 73 68 68 81 94 96 96 96 99 100 86 64 67 44 36 26 21 20 17 16 21 27 27 36 76 93 91 89
72 68 67 70 76 83 84 80 81 82 85 79 73 70 74 80 91 99 100 100 100 100 100 98 88 93 44 38 32 23 22 19 18 20 28 30 27 39 92 94 98 98 93
71 73 75 75 75 71 70 70 64 62 63 64 76 98 100 100 99 100 100 100 99 95 92 86 40 36 36 28 27 32 24 28 29 25 24 32 47 91 96 97 99 94 83
73 72 71 71 69 67 62 60 60 76 99 100 99 100 100 100 100 100 100 98 98 67 39 36 36 33 28 29 32 38 45 42 35 31 35 41 60 100 100 97 96 88 98
77 74 84 75 69 67 60 77 92 100 100 100 100 100 100 99 99 100 86 52 39 36 37 36 26 25 25 24 20 17 23 29 39 46 61 81 98 100 88 71 52 97 92
96 99 97 96 99 98 100 99 100 100 100 100 99 99 99 96 68 42 35 34 37 38 26 20 21 19 15 13 16 25 36 42 83 89 99 98 85 57 46 50 64 73 77
99 97 96 100 99 100 100 98 99 99 99 92 83 93 53 38 36 35 36 39 31 20 20 18 14 13 19 28 37 46 57 78 90 94 88 83 60 52 64 75 76 79 81
97 98 98 98 99 99 99 95 77 66 68 74 70 45 34 30 29 34 36 23 20 18 14 14 20 31 35 50 92 95 93 99 99 96 65 51 54 73 75 76 78 80 84
84 87 85 91 95 81 57 54 56 68 75 52 41 31 26 28 37 27 20 19 16 14 17 24 44 65 73 95 77 75 100 92 100 67 56 67 81 83 84 84 82 83 85

GFSMW_850_rhum_051.txt.gz
RH
31 31 31 30 31 30 26 30 31 30 29 30 61 72 71 70 76 74 71 67 75 76 84 76 71 74 79 82 87 90 86 84 84 49 36 38 37 34 28 25 24 23 24
29 28 28 29 29 31 31 28 27 28 28 29 28 57 64 66 64 63 60 55 64 77 74 77 74 75 80 86 88 87 82 82 81 39 39 38 38 36 31 28 28 26 25
27 24 23 23 24 25 30 30 31 30 30 29 29 44 68 66 65 64 64 63 60 64 60 62 72 76 80 87 86 84 82 79 75 36 39 40 38 34 33 30 29 27 28
25 24 23 24 24 22 22 26 27 28 30 31 34 31 31 48 60 61 62 59 62 64 62 57 66 80 81 88 93 91 84 81 72 36 39 42 41 36 34 31 27 26 27
23 22 21 20 20 22 24 24 25 26 28 29 29 36 45 49 62 60 63 59 58 60 66 64 62 74 69 78 97 96 88 82 67 37 40 42 42 41 36 30 29 26 26
26 23 23 21 20 20 20 21 22 22 22 24 25 28 31 43 56 72 64 66 60 58 61 63 61 63 67 77 99 97 88 82 69 44 42 44 44 42 39 34 28 25 24
34 33 26 22 22 22 21 21 21 21 21 22 24 24 25 31 38 43 56 62 63 59 56 59 64 64 66 80 99 93 88 79 64 52 45 44 43 46 38 32 28 25 24
38 38 38 34 27 28 27 23 22 21 21 22 23 24 25 24 26 36 36 45 58 60 58 58 63 65 74 98 100 95 81 81 52 50 46 44 55 36 35 32 28 26 26
52 46 46 45 39 35 32 32 27 24 22 21 21 20 22 26 27 25 36 40 46 54 60 60 60 64 89 99 96 85 76 71 72 47 63 67 50 38 30 28 27 28 33
56 52 48 52 44 42 38 33 32 31 28 27 23 20 20 30 30 30 31 45 50 53 63 65 71 97 100 99 92 79 77 55 59 70 62 68 50 33 30 28 28 30 33
62 58 52 54 53 52 50 44 40 36 30 25 23 22 29 34 35 39 49 60 65 66 68 85 96 100 100 92 82 82 70 64 65 78 58 35 34 31 31 30 31 32 35
68 62 70 70 58 52 54 48 46 39 34 31 31 39 40 42 47 64 81 89 90 99 99 99 100 100 94 80 82 71 69 74 78 72 65 59 39 40 47 47 36 32 31
78 81 79 74 68 58 56 54 49 43 40 38 55 62 66 63 88 100 100 100 100 100 100 100 100 88 83 78 71 69 68 74 75 86 87 54 70 97 58 34 27 28 35
85 87 86 72 65 61 60 63 67 63 52 49 57 90 98 98 99 100 99 100 100 100 100 100 92 84 78 71 73 74 92 98 83 64 86 97 88 44 24 21 26 33 41
83 86 91 80 75 73 77 78 76 81 86 91 86 98 100 99 100 100 100 99 100 99 99 84 73 73 75 76 86 95 90 94 99 99 65 32 24 20 19 24 37 54 70
80 95 88 84 83 82 84 83 82 87 97 100 100 100 100 100 99 97 93 92 87 77 74 76 78 79 86 98 99 96 98 100 99 49 27 21 18 19 19 21 31 48 75
67 77 77 76 79 81 80 83 89 94 96 97 94 86 85 84 87 79 78 78 80 82 83 87 95 99 99 100 100 100 85 46 32 25 20 19 16 15 21 24 32 53 70
69 68 68 72 78 82 88 92 99 96 97 95 94 97 96 87 85 88 86 89 94 96 98 100 100 100 99 100 77 36 35 29 25 21 18 20 26 26 28 46 83 86 86
79 77 70 75 80 85 90 92 92 91 99 100 99 92 91 87 94 91 96 99 100 100 100 99 100 98 58 43 39 31 28 29 27 30 37 40 34 31 53 92 99 98 86
76 79 76 74 75 72 72 69 69 72 74 77 76 76 76 86 99 100 100 98 99 99 99 93 43 42 40 38 39 40 43 42 34 32 36 37 41 46 96 98 98 95 75
75 74 74 74 70 67 66 64 67 75 83 96 100 100 100 100 100 100 100 100 99 76 37 38 38 38 35 35 40 42 34 30 28 28 30 35 52 100 100 100 92 75 96
79 80 74 74 66 63 65 74 98 100 99 100 100 100 100 100 100 99 74 38 38 41 41 39 32 29 28 26 23 18 19 28 37 41 50 70 95 98 80 54 48 97 98
97 97 94 89 71 80 100 99 100 100 99 99 99 99 99 79 43 37 35 35 38 39 30 21 21 20 17 16 22 28 36 42 76 69 93 82 75 57 48 55 74 78 80
96 96 98 99 99 100 100 98 99 100 100 98 94 60 38 33 31 31 34 38 29 22 22 19 16 17 22 26 30 36 41 56 63 80 78 69 52 52 73 81 82 82 83
92 98 98 99 99 100 100 99 94 83 82 71 48 37 31 31 33 37 31 23 22 19 16 14 16 18 24 31 36 67 76 93 78 81 51 48 61 78 80 81 83 84 83
96 100 99 99 97 91 74 66 71 76 62 49 38 32 31 36 36 24 22 20 17 14 13 16 23 29 33 38 42 46 56 48 58 54 53 68 83 85 87 86 82 82 84

GFSMW_850_rhum_054.txt.gz
RH
32 32 30 30 31 31 30 26 26 30 33 34 32 36 53 65 71 69 66 73 74 77 75 72 70 75 75 68 79 86 90 90 88 82 81 47 36 37 35 30 26 23 22
30 28 27 27 28 29 30 30 30 28 30 32 31 30 30 37 54 63 65 62 66 73 70 70 67 74 74 71 80 85 85 89 86 83 80 39 36 39 38 33 30 27 28
26 24 27 27 26 24 24 28 30 32 32 31 30 31 34 38 46 63 63 61 62 63 70 66 67 69 76 73 76 84 88 88 87 85 70 39 39 39 38 36 33 30 31
32 25 24 23 23 23 25 24 24 28 29 31 32 32 32 33 31 35 52 58 60 60 62 64 64 62 71 79 82 86 91 94 91 90 81 48 38 36 36 37 33 33 31
38 32 26 23 23 22 23 25 24 24 27 28 29 31 32 36 37 41 46 60 64 63 63 59 62 62 62 76 85 88 90 94 94 92 86 54 38 41 40 35 36 33 30
40 35 30 24 23 24 22 22 24 25 25 25 24 26 28 29 30 39 49 53 63 63 60 61 60 61 61 69 79 87 96 98 99 97 83 48 42 41 41 40 38 36 32
46 44 38 33 29 24 25 25 23 22 23 23 22 22 24 29 30 29 34 48 52 60 65 64 62 62 63 64 70 90 99 100 99 92 74 50 46 48 44 40 39 35 29
55 52 48 44 39 34 27 29 28 25 26 25 24 24 25 26 26 29 37 35 38 47 59 63 66 63 59 70 74 94 100 100 98 80 62 61 66 41 43 50 51 32 30
60 64 59 50 48 44 37 37 34 31 29 28 26 25 25 23 23 25 27 32 40 42 46 60 65 71 68 70 83 99 99 98 85 72 63 52 43 56 81 49 34 30 29
66 69 65 59 57 60 51 44 47 43 37 32 30 28 28 26 24 25 30 30 31 40 56 61 59 65 84 96 100 100 99 91 73 59 54 64 69 61 66 62 35 32 33
73 73 70 72 72 66 62 54 54 44 40 37 33 29 27 25 29 34 38 38 39 43 68 87 91 99 100 100 100 98 88 68 57 61 67 72 77 73 51 62 60 74 93
79 78 78 78 71 69 61 60 56 51 47 41 38 33 32 37 41 47 56 58 63 73 98 100 99 100 100 100 94 80 65 65 60 66 77 79 67 79 85 90 97 99 51
77 80 82 85 72 66 64 62 59 57 52 48 45 45 44 67 68 74 90 96 99 100 100 100 100 100 100 97 84 71 65 67 79 84 85 82 92 100 98 98 77 35 32
79 88 90 81 80 76 70 70 72 72 72 76 72 87 76 98 99 100 99 100 100 100 100 100 100 99 90 76 68 72 84 83 87 92 96 97 99 98 81 30 26 33 37
74 81 88 83 82 79 80 79 74 79 83 95 99 100 98 100 100 100 100 100 100 100 100 100 90 76 74 80 87 88 87 95 98 99 100 100 98 69 26 23 24 32 39
66 81 75 77 78 80 81 83 87 92 95 96 96 99 100 100 100 100 100 100 100 97 93 86 85 84 84 92 97 100 100 100 100 100 94 33 24 21 21 24 25 27 37
70 69 71 74 76 81 86 90 97 95 96 93 91 93 94 97 95 94 94 91 88 86 83 81 81 87 98 100 99 100 99 95 49 30 26 25 23 19 20 24 25 29 38
80 74 72 77 79 86 92 98 100 100 99 100 100 99 97 95 94 91 88 75 76 80 88 97 100 100 100 100 100 98 72 35 28 27 27 26 25 27 24 26 43 65 76
76 76 75 78 80 82 83 86 92 99 100 100 100 100 100 99 98 99 99 100 100 100 100 99 99 99 100 74 37 34 30 30 31 34 38 33 22 23 31 86 99 100 88
74 78 78 76 78 76 72 72 69 81 93 98 93 97 100 99 98 99 99 98 100 99 100 100 93 34 39 42 34 30 34 38 33 26 27 33 40 64 100 99 96 89 63
79 77 77 76 72 70 67 66 76 85 95 97 98 99 98 99 99 99 100 100 100 89 44 35 38 36 32 34 39 39 30 23 25 34 36 42 52 100 97 100 90 67 94
84 82 76 76 68 69 72 94 98 100 98 99 99 100 99 99 99 98 67 37 36 38 39 37 30 29 31 29 22 19 28 49 37 41 53 57 90 68 57 45 47 88 87
88 92 82 72 72 95 100 95 100 100 98 99 99 99 94 54 36 35 36 37 39 35 25 22 22 19 18 19 25 30 40 46 70 68 69 60 46 42 45 65 76 77 78
92 92 94 98 99 99 100 99 100 100 100 99 78 44 34 31 32 37 39 32 23 22 20 17 16 19 25 32 50 53 58 61 62 51 59 49 46 61 77 80 83 82 81
96 98 98 98 98 99 99 99 99 95 77 45 36 32 31 34 37 34 24 21 20 15 15 18 21 26 32 51 75 86 76 96 63 52 45 46 64 75 77 78 80 83 84
94 99 98 98 99 97 84 78 76 71 51 38 31 28 33 38 25 21 21 20 17 17 18 20 23 28 36 44 51 49 46 37 39 44 45 66 77 79 80 81 81 84 87

GFSMW_850_rhum_057.txt.gz
RH
33 33 33 32 32 32 33 31 30 29 34 36 38 43 42 46 57 50 58 62 66 71 74 78 71 57 59 76 83 78 85 91 94 90 86 82 78 48 35 35 33 28 25
29 26 24 23 24 26 28 31 32 31 31 31 33 34 36 38 37 45 54 60 59 61 64 70 70 71 60 73 83 77 80 89 96 89 85 73 66 62 38 37 36 31 28
33 25 24 24 26 25 24 25 29 31 31 33 32 33 35 37 37 36 38 42 50 59 61 58 64 68 76 71 75 75 75 86 91 90 82 74 69 48 38 37 37 34 32
40 36 30 26 26 25 24 24 23 25 30 33 32 34 34 35 32 31 31 31 42 56 62 64 63 60 65 73 77 78 75 81 91 90 87 81 66 45 39 38 38 37 34
48 41 36 32 28 26 24 24 25 26 26 28 31 31 31 31 33 36 36 38 38 44 61 66 65 61 62 64 68 80 80 80 91 93 90 88 80 66 66 39 38 38 36
55 48 42 36 32 28 26 26 25 26 28 29 31 32 32 31 33 34 35 36 38 39 50 63 68 68 63 61 62 72 86 85 92 96 95 96 94 86 71 42 43 38 40
61 59 52 44 39 33 30 26 28 29 28 27 27 27 28 30 30 33 39 50 43 44 44 45 53 65 66 66 64 66 85 89 94 98 97 96 98 89 61 48 46 42 37
65 67 64 57 52 47 42 34 30 31 33 32 30 29 29 28 27 27 28 31 38 43 54 55 56 55 63 69 71 73 90 95 99 99 98 99 90 61 59 49 57 46 42
71 73 72 68 66 61 57 54 41 38 38 35 32 31 30 29 27 26 26 25 27 31 41 56 63 73 70 71 75 75 95 100 100 100 100 95 72 57 54 73 46 54 79
73 74 74 76 72 67 64 60 59 51 46 42 38 35 33 32 30 29 27 26 25 26 35 49 65 71 91 100 100 100 100 100 99 100 98 76 58 62 61 57 68 66 56
74 71 74 77 74 70 71 64 59 57 53 45 41 37 34 31 30 31 29 28 32 37 40 51 69 89 99 100 100 100 100 100 100 93 73 58 53 55 69 73 75 76 75
72 78 82 83 77 71 67 63 61 59 56 52 48 44 42 39 38 43 47 48 57 55 61 73 98 99 100 100 100 100 100 99 88 69 59 56 73 80 83 86 98 100 99
72 79 83 80 81 79 78 76 73 72 70 68 64 57 48 46 46 52 68 84 95 98 97 96 99 100 100 100 100 100 96 80 69 60 70 74 81 91 99 100 100 100 97
74 79 82 80 78 78 77 74 74 77 79 82 83 87 80 71 70 88 97 99 99 100 100 100 100 100 100 100 93 74 64 67 72 74 84 96 100 99 100 100 99 83 44
71 75 79 78 76 78 78 81 83 83 85 88 96 96 98 99 100 99 100 100 100 100 100 100 100 100 95 84 75 73 71 78 90 98 100 100 100 100 97 37 24 26 26
70 73 75 76 77 84 84 84 87 85 87 91 94 98 100 100 100 100 100 100 100 100 100 99 90 72 69 81 85 90 90 97 100 99 99 98 60 27 29 28 26 24 27
76 75 73 77 84 87 91 88 89 96 94 95 92 88 91 94 94 98 99 99 96 90 86 87 92 96 97 100 100 100 99 100 99 98 86 32 26 25 27 26 24 21 30
78 78 75 79 83 87 90 85 83 89 96 98 99 98 98 96 96 94 95 97 93 90 95 99 99 100 99 99 100 100 100 84 41 31 30 29 27 24 22 24 30 41 64
75 77 77 80 82 80 77 77 73 87 92 95 100 99 100 100 99 99 98 97 99 99 99 100 100 100 99 99 97 46 32 32 33 31 25 19 18 22 33 70 65 70 71
74 77 79 80 76 74 71 70 77 89 88 94 98 99 100 99 100 99 99 99 100 99 99 99 97 84 45 32 26 26 28 28 23 22 20 24 30 40 97 98 95 77 54
82 80 80 77 73 66 71 82 90 91 97 98 98 99 99 99 99 99 100 99 99 77 42 36 35 35 37 36 37 31 22 17 23 27 36 40 46 100 90 81 53 46 86
85 81 78 72 68 76 96 98 99 99 99 99 100 99 98 99 99 81 45 35 38 37 33 29 27 27 27 24 21 25 27 29 30 37 39 41 47 42 41 40 51 94 72
89 80 76 70 88 96 95 93 99 100 100 100 98 97 72 38 32 33 36 35 27 22 20 19 17 16 18 22 26 35 42 51 54 42 40 41 39 40 56 71 76 75 76
83 77 78 98 97 96 96 99 100 100 99 88 51 34 31 31 35 34 26 22 21 18 15 16 18 23 29 38 48 44 44 37 40 40 40 40 48 68 77 80 81 82 83
95 88 88 92 95 97 96 95 96 94 58 38 31 29 32 36 29 23 21 18 16 13 15 18 22 24 30 46 70 78 76 67 57 41 44 50 70 77 78 79 80 83 85
99 99 98 98 98 98 98 92 80 60 41 31 27 31 37 26 21 20 17 16 14 16 17 19 23 30 38 46 47 40 45 39 40 42 46 66 74 75 76 76 77 82 85

GFSMW_850_rhum_060.txt.gz
RH
34 32 31 31 32 32 32 29 28 26 29 72 43 55 69 61 54 53 48 62 64 66 66 66 75 81 76 90 86 84 84 74 85 93 97 87 83 79 76 49 34 34 32
32 29 26 26 26 27 28 30 31 30 29 35 65 37 56 60 59 51 47 47 60 60 61 60 65 62 72 70 94 85 91 86 84 90 80 70 70 82 78 64 39 35 35
39 39 34 26 24 24 23 24 27 29 32 32 48 80 85 79 56 40 40 40 42 46 58 56 63 66 62 70 66 64 78 91 79 91 82 76 72 61 68 67 53 37 36
47 47 45 33 29 27 25 25 26 26 29 32 33 61 84 84 45 37 35 35 34 37 45 53 58 68 66 61 63 66 63 86 83 89 91 81 64 60 50 49 42 37 37
58 54 46 38 34 29 29 26 25 26 26 26 32 42 81 79 73 83 57 39 36 34 38 40 57 58 66 66 64 63 70 76 89 79 84 92 87 78 64 52 50 44 45
61 62 53 45 43 38 33 29 30 27 26 28 29 30 37 63 88 75 70 46 50 40 40 51 51 59 62 63 65 66 71 77 83 87 87 86 90 86 83 72 63 60 42
64 67 63 54 48 43 40 36 32 31 32 31 31 32 33 38 78 91 95 84 75 45 38 43 54 58 57 61 69 66 67 74 84 88 89 88 92 96 93 90 86 68 54
69 72 72 70 65 56 51 48 45 39 35 33 33 33 32 30 29 29 30 35 42 40 33 43 55 68 75 70 68 65 70 72 77 91 94 94 98 98 97 96 95 57 48
73 75 75 75 76 70 62 57 53 52 47 43 39 36 34 33 31 30 29 28 28 28 27 29 33 48 71 92 94 86 84 79 99 100 100 100 100 99 98 93 50 47 48
72 72 75 84 75 66 64 65 63 59 57 52 47 42 38 36 35 34 33 32 31 30 26 27 29 39 54 70 97 100 100 100 100 98 93 96 99 96 78 58 54 56 65
70 73 81 77 74 70 68 68 64 62 60 56 54 49 46 42 40 38 36 33 32 31 35 38 50 67 74 95 100 100 100 100 100 100 100 100 97 88 64 58 62 72 77
71 79 79 76 78 78 75 73 71 70 67 64 61 59 56 52 49 44 40 39 43 45 44 57 70 95 100 100 100 100 100 100 100 100 99 93 83 77 74 81 86 89 95
68 70 72 77 76 75 74 72 70 69 68 68 70 74 76 70 61 59 60 67 76 81 93 99 99 100 100 100 99 100 100 100 100 97 82 68 71 83 86 88 92 100 100
65 70 72 76 76 76 74 77 80 80 80 81 81 82 87 98 99 93 97 99 99 98 98 99 99 98 100 100 100 100 100 96 87 74 73 82 88 93 97 99 100 100 97
62 68 73 77 84 88 86 90 89 88 84 79 80 86 89 90 98 100 100 100 99 100 100 100 100 100 100 100 100 98 86 75 78 86 90 95 100 98 100 100 86 55 31
64 66 72 76 90 94 88 88 93 93 88 84 83 84 91 96 98 99 99 99 98 98 98 100 97 95 84 85 80 77 77 81 91 99 100 100 100 99 83 52 26 17 22
73 71 73 79 86 91 86 90 90 88 90 90 89 88 90 92 95 99 100 99 96 99 100 99 97 96 99 98 98 99 100 100 100 99 99 88 52 27 22 20 22 27 29
76 74 73 79 83 82 80 80 77 82 89 93 93 90 94 96 96 99 98 94 96 98 99 100 100 100 99 100 99 99 99 95 74 45 27 27 25 23 21 20 26 38 61
74 76 77 80 82 77 73 71 80 86 92 93 89 95 95 95 97 95 96 98 99 98 99 99 99 99 99 99 93 71 36 30 30 28 22 20 20 23 34 74 57 87 78
78 77 78 79 76 73 68 78 87 86 92 95 99 100 98 97 98 100 100 99 97 98 98 98 96 71 45 29 27 26 26 22 19 20 23 25 27 36 76 89 97 70 71
81 78 80 77 73 69 82 91 91 91 93 96 100 100 99 98 99 99 100 98 80 38 35 32 30 34 46 38 24 23 18 20 26 28 31 32 34 52 43 37 78 49 73
80 77 78 74 72 89 96 92 89 95 98 100 100 100 99 99 86 50 33 34 31 26 24 26 26 25 24 24 26 27 31 31 41 42 39 38 26 26 31 35 42 81 75
80 76 74 72 95 95 92 93 100 98 97 99 96 84 43 32 34 36 31 24 22 22 20 18 18 20 24 28 30 31 29 25 28 30 31 31 33 35 47 61 67 68 72
75 76 72 92 94 93 93 97 99 98 98 83 40 30 30 34 33 24 20 20 16 14 14 14 16 18 22 27 34 38 40 35 44 40 39 37 42 60 70 68 69 74 76
73 76 87 88 90 90 92 96 99 89 57 32 28 29 33 28 22 20 17 14 12 11 13 16 20 25 39 49 35 37 58 78 53 37 39 46 62 71 71 73 77 80 80
77 83 88 88 90 91 91 90 80 50 36 28 27 33 30 21 20 18 14 11 11 12 15 17 20 25 28 31 32 34 35 34 35 39 44 62 70 71 72 75 78 81 83

GFSMW_850_rhum_063.txt.gz
RH
23 28 33 33 33 34 35 35 35 35 37 47 60 81 52 36 52 60 67 94 95 96 97 89 93 96 94 91 90 100 98 93 84 80 72 72 84 82 80 77 68 53 36
28 28 30 31 30 31 33 35 35 36 36 32 42 62 55 34 34 43 50 59 63 77 86 80 71 84 93 94 98 99 99 99 87 79 74 77 76 85 82 79 74 64 47
32 33 34 38 37 36 30 29 33 37 40 40 40 45 74 86 92 68 54 59 58 65 96 91 91 93 89 91 86 96 99 99 87 81 75 80 75 66 66 74 74 67 56
39 42 42 46 48 33 27 25 25 26 29 35 40 44 55 74 83 85 92 84 68 54 49 80 99 99 100 99 94 92 86 100 90 82 84 74 70 70 63 63 65 64 58
47 46 51 54 51 32 30 30 30 28 28 28 29 33 41 54 71 81 81 82 86 91 53 42 50 67 99 99 99 100 99 98 95 74 77 84 80 67 57 56 56 55 54
51 54 56 58 60 50 40 34 33 41 31 28 29 30 36 56 68 76 80 86 91 92 90 66 55 51 58 90 92 99 86 87 99 98 85 82 83 82 79 73 69 64 58
53 58 60 63 66 69 59 53 51 50 40 34 33 32 34 40 56 71 82 87 87 86 77 53 65 62 68 98 96 100 94 78 86 99 96 89 94 90 84 85 84 70 70
58 64 67 69 70 74 72 66 62 62 60 46 40 43 44 37 36 40 51 74 82 82 86 82 42 34 42 60 94 96 100 100 100 100 100 100 99 100 97 96 95 80 76
62 63 64 66 76 76 69 60 63 66 66 61 56 57 50 44 45 48 52 58 64 72 78 85 98 59 68 92 100 99 100 100 100 100 100 98 100 100 100 100 97 97 98
62 62 65 76 75 73 64 69 70 70 69 62 59 53 48 46 43 40 38 38 37 43 48 42 37 33 39 63 98 100 100 100 100 100 100 100 100 100 100 100 99 96 96
62 65 72 72 76 80 76 76 72 72 67 66 67 66 59 54 49 45 44 45 44 45 44 45 45 44 46 62 99 99 98 99 100 100 100 100 100 99 100 100 100 95 72
64 69 70 70 74 78 77 73 68 68 69 70 72 71 68 69 66 60 54 49 48 48 53 62 79 93 99 100 98 100 100 99 100 100 100 100 100 100 100 99 93 90 89
62 62 64 67 71 76 77 75 73 72 72 74 76 76 77 79 77 80 79 70 65 66 82 97 98 98 97 97 100 100 98 100 100 100 100 100 100 96 87 83 86 87 92
59 63 65 67 72 76 78 81 80 77 74 75 79 80 80 82 91 98 97 99 100 97 99 98 98 99 99 100 100 99 100 100 100 99 95 87 80 83 86 89 93 99 98
60 62 65 68 76 80 84 88 88 84 80 81 82 87 89 90 91 95 92 95 94 95 98 99 99 99 100 100 100 100 100 97 91 83 82 90 95 97 99 98 100 96 81
63 62 65 71 82 89 93 96 98 90 86 87 91 87 90 89 91 97 97 95 94 94 100 98 100 94 97 95 93 90 87 90 92 97 98 100 100 100 100 92 66 29 24
64 65 65 71 83 92 95 96 95 87 85 91 90 88 90 90 92 92 91 93 98 98 98 98 95 98 96 99 99 99 99 100 100 100 100 100 96 60 29 22 24 24 25
68 68 67 74 82 88 90 91 82 84 88 89 88 86 90 84 93 94 88 91 94 93 96 98 97 94 99 99 99 99 99 99 97 69 34 30 27 22 17 19 29 32 38
66 68 74 77 83 87 85 81 90 86 89 87 88 87 87 88 91 92 95 98 95 96 94 95 97 96 95 97 83 52 38 37 31 24 19 17 17 16 20 27 47 73 92
71 76 82 78 78 74 81 95 88 88 92 92 89 88 90 91 99 99 99 100 100 97 99 92 58 37 28 27 23 20 20 20 19 22 22 22 27 31 40 46 92 89 78
85 88 89 79 78 71 82 90 88 91 96 93 94 92 94 97 99 100 100 74 42 33 29 26 28 26 22 18 13 14 18 25 29 32 35 33 28 27 25 25 38 77 61
88 93 90 80 71 85 92 90 89 90 92 100 98 99 100 90 54 36 36 33 26 23 22 20 16 15 16 18 18 18 20 22 34 46 49 62 31 29 29 34 38 54 65
93 95 82 70 85 92 90 92 94 90 89 95 96 65 35 32 34 33 25 22 20 18 15 14 15 16 18 22 25 29 29 30 30 34 32 32 32 34 43 53 65 65 66
85 86 72 74 87 89 96 95 99 96 94 76 35 30 31 33 26 20 18 18 15 16 16 15 18 19 23 31 56 63 65 62 59 42 33 32 35 48 63 66 68 70 72
77 93 75 84 83 86 94 99 97 92 72 34 28 30 32 26 20 18 15 11 10 10 12 13 15 19 29 31 24 27 30 35 34 31 35 40 54 67 73 74 74 73 72
72 77 84 83 82 84 90 94 82 65 36 28 26 31 26 20 18 15 12 9 9 10 12 13 14 17 20 24 26 29 31 32 32 35 44 62 76 76 76 76 76 76 77

GFSMW_850_rhum_066.txt.gz
RH
24 24 26 27 29 30 31 33 34 34 36 46 63 79 75 55 55 46 66 75 78 80 73 75 77 84 91 82 84 80 92 94 95 86 81 69 64 66 72 75 76 74 70
24 28 28 28 28 27 30 32 33 35 35 35 36 48 59 65 54 49 40 49 64 82 81 80 75 69 77 92 93 86 86 94 97 88 82 73 67 68 76 79 78 77 74
29 31 34 37 38 33 30 30 31 32 35 37 38 38 41 53 75 57 41 31 39 60 68 89 98 95 86 97 99 98 81 74 89 98 81 77 76 69 69 75 81 77 74
36 39 42 46 44 36 30 27 25 26 29 36 38 40 41 49 76 78 67 65 64 61 56 71 82 97 98 96 99 100 97 89 93 99 96 80 73 74 67 66 67 72 68
42 47 51 55 52 40 33 33 34 30 26 26 27 31 39 42 50 65 79 86 88 79 84 80 76 84 92 98 96 98 100 100 100 98 97 94 84 76 68 64 62 62 62
51 54 56 58 62 55 48 44 39 48 36 33 31 30 32 33 39 48 66 76 80 85 89 87 83 98 88 94 98 99 98 96 98 100 97 88 90 85 80 70 64 63 63
54 58 61 64 68 64 58 54 51 51 51 43 40 42 38 36 38 51 66 73 82 86 90 88 85 96 99 100 100 96 98 99 96 97 100 100 100 97 90 94 81 77 73
59 64 66 67 69 71 65 58 58 60 62 56 51 54 59 49 42 40 45 59 83 86 82 84 88 96 96 99 98 97 98 98 94 97 97 100 100 100 100 96 95 90 87
62 62 63 65 70 68 63 63 63 67 67 61 60 59 53 49 48 48 48 46 46 54 67 75 84 92 98 86 96 97 98 96 99 98 100 100 99 99 100 100 97 92 96
62 62 65 71 67 68 67 70 71 72 69 66 70 68 61 55 51 46 45 44 43 45 44 43 45 47 55 62 74 99 97 99 99 100 100 100 100 100 100 100 100 100 100
62 64 70 69 71 73 73 74 73 71 70 72 76 74 69 66 62 56 51 47 46 44 46 46 47 50 50 56 76 99 98 97 98 99 100 100 100 100 100 100 100 100 99
64 66 67 68 71 74 74 73 70 68 68 69 68 68 73 74 74 72 69 63 59 55 51 54 59 58 64 89 97 98 98 99 100 100 99 100 100 100 100 100 100 100 96
62 62 64 66 70 73 74 75 73 73 74 74 72 73 75 78 79 81 86 89 82 81 78 78 83 97 98 97 98 100 100 100 100 100 92 99 100 100 100 99 98 91 96
60 60 65 66 70 73 76 76 77 78 78 78 76 74 76 80 85 91 96 98 97 85 83 95 96 97 92 95 93 95 100 100 100 100 95 100 99 98 95 100 100 100 98
60 59 65 67 73 78 82 83 82 83 79 78 77 75 79 83 88 93 93 92 89 88 92 96 95 95 97 98 99 100 100 100 100 98 93 92 96 100 100 100 100 100 94
63 60 64 70 78 84 85 87 81 77 78 81 81 84 86 92 93 96 96 92 92 87 87 84 90 91 93 95 92 91 91 94 98 98 100 99 100 100 99 95 76 67 36
64 63 64 69 79 83 86 81 76 74 77 86 90 90 95 95 96 96 97 90 89 85 85 88 94 91 94 100 96 97 99 99 98 99 99 99 99 97 86 53 24 25 25
64 67 66 70 78 83 83 78 74 76 84 89 92 93 95 92 91 90 85 84 87 90 90 91 93 91 96 98 96 95 97 99 97 84 61 37 26 27 22 22 28 35 37
65 66 67 73 80 84 85 82 77 85 89 90 91 93 91 88 88 86 86 89 89 91 92 93 95 89 70 41 24 22 20 20 21 22 26 26 25 30 26 32 43 53 63
66 68 73 77 81 80 85 87 90 90 90 92 91 91 88 86 84 86 95 93 86 67 49 30 27 24 21 15 13 13 18 24 30 36 27 27 27 24 23 28 48 61 60
73 77 81 81 80 77 74 82 89 93 95 93 89 90 88 86 88 75 50 33 28 23 23 23 20 16 12 13 13 15 16 19 20 27 32 29 25 25 23 23 26 37 45
77 82 82 84 80 71 83 88 92 97 100 99 96 94 86 50 36 32 26 22 22 19 16 13 13 14 15 17 19 21 21 22 26 32 35 39 31 26 28 31 34 46 59
74 81 79 78 75 87 89 87 89 98 100 97 94 67 32 30 32 25 20 20 19 16 15 17 16 17 19 23 27 31 32 26 28 30 29 28 29 31 37 50 64 67 69
74 79 81 75 85 90 84 87 88 90 92 83 43 29 30 31 24 20 18 16 12 12 12 13 14 17 22 24 27 25 27 28 32 30 28 30 35 46 61 67 69 70 72
77 77 75 70 86 84 82 88 90 91 82 41 28 28 31 26 19 17 14 10 8 9 11 12 12 15 17 19 20 23 24 25 26 23 27 32 43 58 63 65 68 70 73
74 76 75 75 83 82 84 87 89 85 54 29 25 28 29 21 18 16 13 8 8 9 11 11 12 13 16 19 21 23 25 24 24 26 30 37 54 61 65 68 70 72 73

GFSMW_850_rhum_069.txt.gz
RH
23 24 24 25 24 25 28 30 34 38 40 40 46 68 73 56 60 67 66 72 72 67 80 85 79 81 88 84 80 79 85 92 89 94 88 90 83 72 67 63 66 70 72
26 29 29 28 26 26 29 32 33 34 34 36 37 38 48 55 56 55 60 67 64 66 70 80 94 85 80 79 88 91 87 85 93 95 90 87 84 81 72 66 63 69 71
30 30 30 29 28 26 25 26 27 28 30 34 35 36 36 38 43 48 58 62 61 51 59 71 72 71 80 81 73 79 86 93 83 87 91 85 82 76 69 67 65 66 73
34 36 38 35 32 32 32 30 30 31 32 34 36 38 39 40 41 56 84 80 71 65 70 70 70 83 83 85 89 82 84 93 94 99 99 94 79 73 70 65 65 69 73
39 40 41 40 39 37 35 37 35 32 29 27 29 34 38 42 43 47 58 74 87 89 83 77 67 70 75 85 87 91 92 88 89 85 94 100 97 90 79 73 70 71 74
47 50 52 59 61 58 51 45 42 41 35 31 29 28 27 28 31 35 42 50 68 80 83 86 82 81 87 99 93 94 90 87 92 96 96 90 98 97 95 88 77 74 75
55 58 60 64 69 65 58 55 51 51 46 42 40 35 33 32 32 34 36 50 68 79 81 81 84 93 89 97 97 97 96 95 91 91 98 99 95 99 91 100 92 81 80
58 61 64 65 66 64 63 60 58 58 54 54 56 53 49 48 48 43 40 42 55 69 84 81 78 84 86 97 98 99 95 97 92 93 92 96 97 100 100 99 100 100 99
62 64 63 62 61 61 58 58 60 62 61 63 62 59 57 56 52 50 48 47 47 48 54 72 80 81 82 90 96 98 87 94 89 92 92 92 92 92 98 100 100 100 100
63 63 62 63 64 62 62 63 62 62 64 64 62 60 60 58 55 50 48 46 44 43 42 44 46 48 49 55 67 65 70 78 98 98 98 91 94 100 100 100 100 100 100
63 62 63 66 66 68 69 69 68 67 68 65 65 66 64 63 61 59 57 56 52 48 47 47 48 48 48 46 45 50 60 91 97 98 95 96 99 96 99 98 100 100 100
63 62 65 66 68 70 72 72 69 67 65 64 64 65 66 68 70 70 69 67 66 62 59 56 54 52 53 57 64 76 96 99 98 99 97 99 99 100 100 99 99 100 100
63 62 62 64 66 69 73 71 70 70 70 70 70 70 73 76 78 78 78 82 81 79 79 78 74 75 80 87 87 87 91 92 95 96 98 99 100 100 100 96 98 100 100
63 61 63 64 66 70 72 72 73 75 75 74 71 71 74 78 82 87 91 96 94 86 82 76 85 88 88 91 99 98 95 97 100 100 100 99 99 98 98 94 98 99 100
61 60 63 66 68 72 74 76 79 80 80 77 74 74 77 82 86 91 93 91 86 82 82 85 85 84 82 87 92 98 99 98 98 98 97 95 96 97 94 97 99 99 99
63 60 61 67 70 75 81 82 82 85 80 79 78 79 81 87 89 90 87 87 84 84 88 86 81 79 83 88 86 88 88 91 93 94 94 97 98 94 96 99 99 98 95
69 66 62 64 70 78 82 84 85 82 80 81 80 82 87 90 88 89 88 89 91 90 86 82 81 80 85 89 89 96 98 99 99 98 98 96 98 98 86 67 39 32 28
68 63 64 65 69 76 83 83 82 76 77 79 83 87 87 87 87 87 90 93 91 87 84 84 85 85 88 88 77 60 74 78 66 52 34 28 22 21 18 18 22 30 37
61 64 66 67 71 79 81 82 80 74 80 84 86 83 83 85 88 88 89 89 89 85 83 80 40 22 18 15 12 14 16 16 17 18 18 17 19 22 25 27 31 39 53
62 65 66 68 73 79 82 81 79 82 87 87 85 83 86 88 90 90 89 84 60 26 22 21 18 14 13 12 11 13 16 21 20 22 28 30 29 29 28 26 31 40 49
65 67 71 74 76 80 79 82 80 86 88 89 86 86 91 91 89 70 35 25 20 19 15 13 11 11 12 14 12 14 16 18 21 25 27 29 26 25 22 22 25 34 43
68 72 77 80 80 80 76 76 86 91 89 87 92 91 93 79 42 31 23 20 18 15 12 12 13 13 14 16 17 16 17 17 22 26 26 25 23 23 25 30 38 51 61
71 75 76 78 80 75 77 84 88 93 91 90 92 92 61 36 32 26 21 17 15 13 12 12 12 14 16 20 20 20 20 20 22 24 22 24 25 29 38 54 64 66 66
72 68 73 80 79 75 82 85 85 91 90 91 86 45 29 30 26 22 20 16 13 11 12 11 12 14 16 18 18 18 19 21 22 21 20 23 26 38 54 62 65 66 67
75 71 71 79 74 78 80 80 85 86 89 81 42 27 29 28 20 18 16 13 9 9 10 10 11 12 14 16 18 18 19 20 20 19 22 28 37 53 62 65 66 68 71
81 74 70 71 70 76 75 79 87 87 84 54 29 27 29 26 19 18 15 10 8 8 9 10 10 12 14 17 20 21 21 21 21 21 25 31 43 58 63 66 67 70 71

GFSMW_850_rhum_072.txt.gz
RH
26 25 25 24 24 24 28 37 39 41 44 47 48 58 76 80 79 84 83 82 84 78 85 83 86 90 91 82 84 88 88 86 89 96 92 88 88 88 89 88 78 64 61
26 27 27 26 25 25 25 26 32 35 37 38 41 47 46 47 60 68 73 76 76 77 79 80 81 82 85 84 78 84 84 83 87 85 98 98 88 84 87 88 86 74 68
28 29 29 28 27 27 27 27 28 31 34 35 36 38 38 42 40 41 47 52 63 80 79 67 63 74 76 78 82 82 80 78 76 81 88 90 89 80 75 73 74 79 71
31 30 30 30 29 28 27 25 24 25 27 30 31 34 37 38 39 41 41 40 43 51 63 69 65 69 76 78 80 83 86 88 89 80 81 86 94 90 82 76 70 71 72
33 35 36 37 36 33 30 29 31 33 31 29 30 31 34 37 39 41 44 48 54 66 67 78 83 78 66 77 82 86 91 93 93 95 91 86 93 100 100 95 87 82 78
42 44 46 45 46 42 40 38 39 39 37 33 31 30 30 30 31 33 35 38 46 50 73 78 82 77 76 91 86 85 91 94 97 97 98 98 100 96 100 100 100 97 88
49 51 51 54 54 53 52 51 50 47 44 42 40 36 34 34 34 32 31 33 40 55 70 78 82 84 86 84 86 91 91 97 90 90 90 96 95 95 97 100 98 99 97
55 57 59 60 59 60 59 58 56 53 54 52 49 47 46 46 43 44 44 40 39 43 56 72 82 84 78 74 83 85 95 89 96 86 89 90 97 96 88 93 99 98 100
61 61 62 61 61 61 59 56 55 56 57 59 58 57 56 55 55 54 52 50 48 47 45 48 52 64 81 83 85 88 90 67 76 78 80 91 97 92 100 97 99 100 100
65 63 62 61 61 61 60 59 60 60 61 62 63 62 62 62 62 61 57 53 51 49 48 47 47 47 50 52 55 60 64 68 74 77 73 86 98 94 91 98 98 100 100
62 62 62 62 64 63 64 64 66 65 65 66 68 68 67 64 63 63 62 60 58 57 55 54 52 51 49 49 48 48 50 53 58 73 89 97 94 95 98 99 95 96 100
60 62 62 63 63 65 67 69 70 68 66 65 65 66 66 66 67 68 69 68 66 65 65 62 60 57 55 55 58 64 71 78 92 94 96 95 93 91 92 98 99 98 99
63 64 63 62 63 64 67 71 71 69 69 68 68 69 69 70 74 76 77 75 74 75 71 71 70 68 70 77 82 87 84 83 83 89 87 87 87 92 98 98 98 98 99
63 63 63 62 62 64 67 71 72 72 72 73 74 72 69 70 74 80 83 85 86 82 80 78 77 79 79 76 82 96 94 86 79 95 100 98 100 100 98 97 98 99 100
64 63 62 61 64 66 68 72 75 76 76 76 76 73 71 73 78 83 90 90 85 83 79 80 80 76 74 78 87 91 92 88 91 94 94 95 93 91 94 97 99 100 100
64 63 62 62 63 66 69 73 78 80 80 79 77 76 77 81 86 90 88 87 84 80 78 75 74 76 77 84 86 87 87 88 92 92 91 93 95 96 98 99 100 100 100
63 62 62 63 64 68 71 76 80 83 82 78 79 80 82 86 88 88 88 84 82 80 76 78 80 80 82 83 82 84 87 91 94 92 92 92 95 93 78 52 25 24 25
65 68 67 64 65 70 75 79 85 85 82 78 80 81 86 86 86 85 86 85 81 80 84 85 81 73 53 27 15 15 16 18 22 20 16 17 17 17 14 18 21 27 32
63 65 63 63 65 69 73 82 84 81 76 79 82 86 85 82 82 86 84 83 84 85 81 32 19 15 10 9 8 8 10 11 13 14 14 16 17 21 17 18 21 27 37
59 58 63 66 68 71 77 81 80 78 77 83 87 84 82 83 84 86 86 87 60 27 24 18 14 10 12 10 9 10 11 12 13 16 18 19 19 21 21 19 21 27 42
58 61 65 66 69 72 77 80 80 77 86 88 86 85 85 86 88 85 52 27 22 19 14 11 11 12 13 13 12 12 14 15 16 18 20 22 20 20 19 19 24 30 32
61 64 67 72 75 77 80 80 81 79 87 90 89 85 83 85 72 37 25 19 17 14 12 13 13 14 14 15 14 12 14 16 21 23 22 21 23 25 27 33 40 52 58
65 68 71 76 78 80 81 76 75 86 89 94 95 85 87 63 34 27 20 18 15 12 12 13 12 13 13 15 15 15 14 15 18 19 18 19 24 28 36 48 58 63 65
72 69 68 69 74 76 75 78 86 91 92 90 88 90 64 36 30 23 19 16 12 10 10 11 11 10 11 12 13 14 15 16 17 18 19 20 24 29 44 58 64 65 66
75 73 67 66 71 77 75 83 91 89 88 91 91 68 36 31 29 23 19 15 11 10 9 10 10 10 10 11 11 13 15 17 18 18 20 24 29 41 54 60 63 65 68
77 78 73 72 74 74 73 79 86 84 87 85 75 37 28 30 27 20 18 14 10 8 8 9 10 10 10 10 11 14 16 19 20 20 22 26 28 40 56 62 65 68 69

GFSMW_850_rhum_078.txt.gz
RH
29 28 35 40 44 56 71 77 79 81 84 84 84 86 82 84 85 86 86 88 88 87 88 89 90 90 92 90 92 92 93 92 91 99 97 93 91 86 83 77 79 84 83
33 30 27 28 31 34 40 55 68 70 72 72 76 78 82 83 81 81 80 80 80 82 84 84 84 80 81 83 83 85 86 91 94 100 96 93 86 93 77 73 72 72 79
33 33 28 27 26 27 28 34 42 45 45 48 60 68 62 62 58 56 58 61 67 73 79 79 82 90 94 92 94 81 75 84 91 95 100 93 85 84 89 90 86 81 82
33 33 29 28 27 28 28 28 28 29 32 34 35 35 35 36 38 44 51 54 51 46 44 45 48 50 70 82 69 70 76 78 79 90 95 92 96 100 96 94 91 94 89
35 33 30 32 31 30 30 29 29 29 28 28 28 28 28 30 34 37 38 38 38 39 41 42 45 50 66 74 78 84 82 78 82 87 90 99 95 94 100 99 89 86 84
35 33 34 35 34 33 32 31 31 31 31 31 32 32 32 32 33 34 35 36 38 40 41 43 45 50 58 74 86 80 83 79 91 93 93 90 81 90 91 90 86 90 86
37 33 34 36 36 35 35 35 36 37 38 39 40 40 40 39 38 36 35 34 34 34 36 37 40 45 53 67 83 88 91 94 89 98 94 83 84 84 94 94 92 97 90
39 36 37 39 40 42 44 44 44 46 47 48 48 48 49 48 48 47 46 45 45 44 43 42 48 65 77 88 94 97 99 98 90 90 88 92 89 86 100 98 100 97 97
39 44 47 46 49 51 53 54 52 51 52 53 54 54 55 55 56 55 54 53 52 52 51 51 50 50 53 62 74 84 96 94 95 98 100 100 88 84 89 92 94 100 99
50 55 56 59 60 60 57 54 52 52 53 54 55 56 57 58 59 59 60 59 59 58 57 55 53 52 52 53 56 59 66 75 78 77 71 66 75 92 94 89 94 94 98
56 62 65 65 64 61 58 56 56 56 56 57 58 59 60 60 60 59 58 59 59 60 60 60 60 58 56 55 54 54 55 57 57 60 65 73 80 88 94 94 91 90 85
59 62 65 65 62 60 60 59 58 59 61 63 63 63 62 61 62 62 63 65 66 66 65 63 62 62 60 60 60 60 62 65 69 76 80 88 96 94 92 90 85 88 88
64 66 66 64 63 62 61 60 60 61 64 66 67 66 66 67 68 67 68 71 74 75 72 71 72 73 73 74 75 77 78 82 82 82 82 85 87 86 85 91 98 99 96
64 66 66 64 64 64 62 61 62 64 67 69 69 70 71 72 70 69 71 77 81 85 83 82 82 81 81 81 81 82 87 91 88 82 85 99 98 97 96 92 93 95 94
67 64 62 62 65 65 63 62 63 65 68 71 73 75 74 74 72 72 78 86 91 89 86 83 81 81 80 82 90 91 91 88 85 86 89 92 90 90 92 92 91 93 94
61 59 59 64 64 64 63 64 66 68 72 74 77 78 78 76 75 80 92 98 95 88 84 83 79 79 83 86 86 85 82 82 84 85 87 86 88 86 85 81 68 49 41
50 52 54 57 61 63 64 65 68 71 76 80 82 83 81 78 80 92 98 98 94 86 83 81 81 81 81 76 60 47 34 26 21 24 22 18 14 12 13 14 14 14 13
44 46 50 56 62 66 66 68 72 74 80 86 87 85 82 83 92 97 98 96 92 87 84 83 77 40 14 10 7 6 8 7 8 9 10 11 10 10 12 12 13 13 15
39 40 45 57 63 64 66 69 73 76 82 85 88 87 84 89 95 96 94 93 89 86 78 33 14 10 7 6 6 7 8 8 8 9 11 11 12 12 10 11 11 13 16
37 44 52 61 64 65 67 70 74 78 80 86 86 88 96 98 95 93 92 90 89 73 18 13 10 8 9 7 7 7 8 8 8 10 11 10 10 11 12 12 11 14 19
46 47 58 58 58 61 65 70 74 76 83 85 85 97 100 100 98 92 88 90 63 24 15 12 10 10 10 10 8 7 8 8 9 10 11 11 10 10 11 11 14 18 25
49 59 57 56 58 62 67 70 73 80 83 84 86 100 100 99 94 91 90 57 26 19 13 10 10 10 11 11 9 8 8 8 9 10 11 12 11 11 12 14 18 28 43
62 58 58 59 60 64 69 73 76 80 84 86 98 100 100 98 94 90 59 24 20 14 11 10 10 10 10 10 9 9 9 10 11 12 11 11 12 14 18 22 26 46 50
61 61 63 64 63 66 70 75 80 83 84 85 100 100 99 96 93 76 28 22 17 13 11 10 10 10 9 9 10 10 10 11 12 13 13 13 14 16 20 28 39 47 52
66 66 68 70 70 67 69 76 80 83 86 94 100 100 98 90 86 38 27 21 19 15 11 9 9 9 9 9 9 9 10 11 11 11 13 15 15 16 18 24 32 43 51
78 74 70 72 76 72 69 74 78 80 84 97 98 95 88 85 70 35 31 23 20 16 11 8 7 8 8 8 9 9 9 9 9 10 13 15 15 17 18 20 24 29 40

GFSMW_850_rhum_081.txt.gz
RH
40 34 47 64 68 64 66 73 77 79 84 84 81 84 82 84 83 83 86 88 89 90 88 85 86 89 87 87 92 89 86 81 80 92 83 84 90 88 77 76 76 69 73
43 33 31 37 62 66 59 62 69 75 78 79 78 79 78 75 73 79 85 86 84 80 79 75 76 80 81 80 79 81 82 84 82 89 97 89 82 78 70 81 80 78 80
44 35 31 29 32 41 44 46 54 67 71 68 64 64 66 63 65 68 68 66 68 73 69 68 71 73 76 76 85 89 92 94 76 72 100 92 84 78 78 79 77 81 86
41 36 32 32 28 28 31 33 38 48 50 49 52 53 52 53 47 43 44 52 58 64 62 57 49 45 48 49 53 80 86 81 79 78 73 84 100 100 92 92 85 79 75
39 38 35 32 30 29 30 32 35 35 35 34 34 33 32 32 31 32 35 40 43 45 45 43 40 39 43 50 60 76 82 90 86 82 75 93 97 94 87 93 87 81 79
36 35 34 34 32 32 32 32 31 30 30 30 29 29 29 29 28 29 32 35 37 38 39 39 40 42 46 50 60 78 95 95 88 84 88 97 98 91 97 88 88 84 83
34 34 32 33 32 33 32 33 32 32 32 32 32 32 32 33 33 33 33 34 35 35 36 36 36 36 38 41 47 64 95 98 94 92 96 95 99 100 100 100 99 96 85
35 39 37 33 31 32 35 35 35 36 36 36 37 38 40 40 41 42 41 41 41 40 40 40 40 41 45 53 66 85 99 97 90 99 96 100 100 100 100 100 98 94 95
34 40 38 37 40 40 41 43 44 44 45 47 47 47 47 48 49 50 51 51 52 52 52 52 52 52 52 54 60 72 97 99 94 89 86 93 97 100 98 97 99 99 99
36 42 45 55 56 57 56 54 53 52 50 50 51 52 52 53 54 55 56 56 56 56 57 57 58 57 56 55 57 61 66 74 87 95 94 92 86 76 70 92 95 91 91
43 48 62 66 62 59 58 57 54 53 52 53 53 55 56 58 58 59 58 56 56 56 56 56 57 59 60 59 58 57 56 57 57 57 57 60 66 76 85 91 95 87 88
49 60 66 65 64 64 60 57 56 56 56 57 59 59 59 60 59 60 60 60 60 60 61 60 59 59 60 60 60 60 59 60 61 65 70 76 82 92 93 92 88 84 88
64 64 66 63 63 62 60 58 57 58 60 61 63 64 64 63 64 65 65 64 64 66 69 69 66 67 69 69 69 69 70 74 78 81 81 83 88 87 86 87 92 96 93
58 61 65 65 65 64 62 61 61 60 61 64 67 68 69 69 68 68 67 67 70 74 76 77 77 76 78 80 82 80 79 82 87 83 81 89 100 98 94 93 88 88 87
65 64 63 63 64 63 64 63 61 63 64 67 69 73 74 75 73 71 70 69 75 83 88 84 80 80 81 81 84 88 92 92 88 85 86 89 88 88 86 82 84 84 84
64 62 61 63 61 60 63 64 63 64 68 69 72 74 78 78 78 75 76 84 93 91 89 84 82 81 82 86 86 86 85 84 83 81 80 79 80 65 38 37 20 11 13
55 62 59 57 57 60 63 64 65 67 70 72 76 79 81 82 79 78 89 97 98 94 88 85 82 82 84 85 83 79 64 50 36 24 13 10 8 7 8 10 9 11 10
49 56 57 54 57 61 65 67 68 69 71 73 78 82 84 84 81 85 99 99 99 95 92 86 83 74 40 14 8 7 7 7 8 8 8 7 8 8 8 8 8 10 13
40 48 47 50 54 59 63 67 68 71 73 75 80 85 86 85 86 97 100 99 97 93 88 81 35 14 8 6 6 8 9 10 9 9 9 8 9 8 8 8 9 10 12
38 43 47 44 53 60 65 67 69 72 74 78 83 90 89 91 98 100 100 99 98 92 66 20 12 10 9 7 7 7 9 9 10 9 9 9 9 7 8 9 10 12 14
39 41 40 50 58 62 63 66 70 71 76 82 87 88 91 99 100 100 98 98 94 71 22 17 13 12 11 9 8 8 10 9 10 10 10 11 9 9 9 9 13 15 21
48 50 52 60 58 57 59 63 68 74 78 83 87 86 97 100 100 99 96 95 92 40 23 16 13 12 11 11 10 9 9 8 10 10 11 10 10 11 13 14 16 19 30
56 59 62 57 56 57 60 66 71 76 80 85 87 90 100 100 100 99 94 92 45 26 20 14 12 11 11 12 11 9 9 9 10 11 10 10 11 13 15 18 24 31 39
64 63 59 60 61 61 62 68 75 79 83 87 90 98 100 100 100 97 92 64 27 21 14 12 12 12 11 10 10 11 10 10 10 11 11 12 12 14 16 19 26 34 39
66 64 63 66 71 67 65 67 74 79 83 85 89 100 100 100 98 91 81 29 23 20 18 16 13 11 10 10 10 10 10 10 10 9 10 13 14 15 16 18 20 23 29
74 74 73 68 70 73 73 69 72 78 83 85 91 100 100 100 95 90 60 28 23 21 19 16 11 10 9 9 9 9 9 9 8 9 10 12 13 14 16 17 19 19 20

GFSMW_850_rhum_084.txt.gz
RH
45 41 37 70 73 66 63 66 72 80 83 86 87 86 83 83 83 81 83 84 84 85 86 86 86 86 86 88 90 92 91 87 80 84 82 93 93 91 84 85 89 84 80
45 44 39 33 66 66 64 60 60 70 71 78 84 84 80 79 81 78 75 80 83 84 84 83 84 79 82 82 83 85 86 84 88 91 100 93 67 65 87 79 78 75 77
45 49 44 34 31 63 61 57 54 54 58 61 68 74 75 70 72 69 67 72 76 75 73 73 74 71 75 78 82 84 86 97 97 89 95 93 72 83 82 87 74 79 76
50 51 44 33 31 30 47 49 53 53 55 61 78 79 79 78 72 63 62 60 54 55 57 62 66 66 63 55 54 65 76 97 99 92 76 82 96 97 87 85 79 77 82
47 48 45 36 34 32 29 34 39 45 58 68 66 62 55 47 42 38 35 34 35 38 43 47 52 53 50 47 48 55 69 88 90 88 89 84 97 99 98 99 95 80 76
45 44 42 39 36 33 32 31 34 37 41 42 38 33 31 30 29 29 30 30 31 34 38 42 44 42 41 42 45 51 63 90 97 97 93 92 98 89 92 90 100 86 97
46 40 45 40 36 34 32 32 33 33 32 31 31 30 30 30 30 30 30 32 33 34 35 36 36 36 36 35 36 38 44 97 95 96 98 100 96 93 94 93 95 93 95
36 38 39 39 35 35 32 33 35 35 34 33 33 34 34 33 34 35 35 36 38 38 39 38 38 38 38 37 38 45 59 88 95 96 98 100 99 89 99 97 98 99 96
32 29 33 36 44 37 38 38 38 39 39 38 37 37 38 39 40 41 42 42 43 44 45 47 48 48 48 48 50 52 65 97 94 91 92 95 88 85 94 98 98 98 97
37 33 33 39 48 47 45 47 46 45 44 44 43 44 44 46 47 47 48 49 49 50 50 50 51 52 54 54 56 58 62 70 76 91 96 87 90 99 99 93 85 97 96
51 40 50 56 57 55 56 54 52 51 50 48 47 48 50 51 51 52 54 54 53 52 51 50 51 52 54 57 59 59 59 61 66 71 79 85 78 66 71 82 85 90 88
57 68 65 58 57 58 56 56 56 54 52 53 54 54 55 56 57 58 57 57 57 57 57 58 58 58 58 59 61 61 62 61 61 61 62 62 68 74 78 87 89 88 85
67 75 77 64 60 59 58 57 56 55 56 56 58 59 60 61 63 63 64 64 63 64 65 67 68 69 67 67 68 69 67 67 66 69 72 77 78 80 85 86 87 89 90
68 76 79 73 66 62 62 59 56 57 57 57 59 61 64 66 68 69 68 68 67 69 72 76 76 76 75 76 77 77 79 79 80 82 82 79 80 89 90 90 91 88 88
66 70 74 67 62 63 62 59 60 60 60 61 62 65 68 71 73 74 74 71 70 72 81 85 83 80 78 81 83 83 82 84 88 86 83 82 87 92 89 84 82 80 79
63 70 74 71 62 62 62 61 62 62 61 63 65 66 68 72 74 75 74 73 75 87 88 89 84 81 82 82 84 89 91 92 89 85 82 81 82 82 71 48 27 11 9
50 59 68 58 63 61 61 60 63 64 64 66 67 69 70 74 77 78 77 77 96 100 96 88 84 83 84 86 87 86 85 83 82 75 57 30 15 8 9 8 6 6 7
48 56 64 61 59 60 60 62 66 66 66 67 69 71 76 79 80 81 83 92 99 100 98 89 87 87 87 84 70 50 30 16 11 9 8 8 9 10 7 6 7 8 10
45 50 56 53 58 58 60 62 66 68 69 70 72 74 79 84 86 86 93 100 100 100 98 91 86 65 27 10 8 7 8 9 9 9 9 9 9 8 5 7 8 9 10
42 40 50 54 56 57 59 64 67 70 71 72 74 77 83 87 89 92 100 100 100 100 92 81 47 19 12 7 7 8 9 9 9 9 10 9 8 6 6 9 10 12 13
44 40 49 49 49 51 56 62 66 68 70 74 78 82 85 89 90 100 100 100 100 99 90 51 20 15 12 9 7 7 9 10 10 10 11 11 8 8 9 9 13 14 18
44 42 48 46 45 55 61 61 62 66 72 76 80 82 88 88 97 100 100 100 100 98 61 22 16 14 13 12 9 8 8 9 11 13 12 11 9 10 12 13 16 17 23
53 51 52 53 59 60 57 58 62 66 72 76 79 84 88 94 99 99 100 100 100 94 40 20 15 13 12 12 11 10 9 10 11 12 12 10 10 11 13 15 19 24 31
59 60 62 63 58 58 58 61 63 68 72 76 80 84 88 98 100 100 100 100 97 87 28 20 14 14 13 12 11 12 11 10 10 11 11 11 12 12 14 15 18 24 29
65 63 62 61 63 64 65 64 64 69 74 78 81 86 89 99 100 100 99 95 90 44 24 17 15 13 12 11 12 12 12 12 12 13 12 12 14 15 14 16 17 19 20
70 77 82 79 74 79 79 70 67 69 74 77 79 84 92 99 99 100 99 95 68 31 25 19 16 13 11 11 11 11 11 11 11 11 10 12 14 15 14 14 15 16 18

GFSMW_850_rhum_087.txt.gz
RH
37 47 45 49 66 93 95 98 96 85 95 93 95 94 94 96 95 98 100 99 100 99 98 97 98 98 98 98 97 98 96 94 99 99 86 90 87 84 78 80 79 83 91
32 46 44 37 51 70 74 87 78 82 84 96 97 95 92 97 92 93 91 89 93 94 87 89 92 96 89 83 84 94 97 94 89 99 99 93 75 62 60 78 82 86 90
28 37 42 36 35 50 73 65 65 69 76 84 98 86 78 80 90 93 90 88 81 84 86 83 85 86 91 79 78 95 100 100 100 99 97 94 73 67 70 82 85 81 80
36 33 44 42 35 36 55 64 67 64 64 65 58 55 59 72 79 88 86 54 57 63 58 58 59 64 70 72 71 86 99 100 96 97 95 92 96 93 88 75 81 88 86
43 38 46 42 39 34 32 43 59 60 53 57 58 50 51 66 68 54 64 47 36 34 33 34 36 42 47 55 61 60 64 77 99 97 100 100 100 98 94 97 75 79 92
40 44 46 44 44 36 35 31 31 40 47 52 56 64 71 63 52 40 33 31 30 29 30 31 33 38 43 46 45 45 48 73 98 97 99 98 97 98 95 99 88 84 81
35 42 44 45 46 41 36 33 32 30 34 41 48 51 43 35 31 30 31 31 31 30 29 31 33 35 36 38 39 40 42 44 85 96 94 94 93 98 97 88 94 94 93
34 41 44 43 45 40 37 35 34 31 33 36 36 34 32 34 33 32 32 32 34 34 34 35 36 36 37 36 38 41 42 46 83 99 100 97 86 98 97 98 99 98 90
32 39 42 43 51 51 40 36 34 36 36 39 39 37 35 35 34 34 36 38 40 41 43 44 45 45 46 48 50 53 53 57 77 91 94 92 91 97 100 91 89 91 92
32 35 36 48 54 56 50 46 47 44 39 40 41 41 41 40 40 43 45 45 44 46 48 50 51 51 51 52 55 57 58 63 71 96 100 100 96 100 90 90 95 98 97
37 38 46 55 59 60 58 44 49 42 45 46 44 43 43 44 47 48 49 51 52 52 51 51 51 50 50 51 54 59 60 63 63 76 89 96 97 95 88 75 70 81 88
51 52 53 67 61 59 55 58 53 52 52 50 47 47 48 49 50 51 52 54 55 54 54 53 53 53 53 55 59 60 63 66 68 68 71 72 71 65 67 73 81 85 88
56 59 64 70 75 73 67 63 57 55 51 49 49 49 51 53 54 55 56 57 58 58 58 59 58 58 59 61 64 67 68 69 69 68 68 67 72 76 77 81 86 86 87
53 57 64 70 71 75 73 63 59 56 52 52 53 53 54 56 58 60 61 63 63 63 62 63 64 67 70 71 71 72 76 76 75 76 76 80 81 84 84 85 86 88 86
46 57 63 66 68 73 71 67 63 57 54 55 56 58 60 62 64 65 66 66 67 65 66 69 72 77 78 76 77 81 88 93 93 91 90 88 84 87 88 86 84 82 81
40 51 62 64 68 70 69 64 60 56 57 58 59 60 63 65 67 69 70 70 70 70 70 75 84 85 80 80 84 86 98 100 99 95 89 88 90 88 86 81 69 53 29
41 43 56 63 65 68 68 65 63 59 60 60 61 62 65 67 69 72 73 76 74 75 89 96 93 85 82 83 91 94 99 99 94 87 84 81 66 42 13 8 7 6 6
39 45 45 56 64 68 71 69 63 60 61 62 63 65 68 72 73 76 80 79 81 95 100 98 91 88 87 89 88 89 91 91 78 61 31 14 9 9 9 7 7 7 8
42 41 44 49 62 69 72 67 63 62 65 67 68 70 72 75 75 79 82 84 92 100 99 100 95 90 91 84 51 29 22 14 10 9 9 10 10 10 6 7 8 9 10
47 45 52 55 62 71 69 62 60 61 64 67 69 71 74 76 76 81 86 92 100 99 99 100 97 82 46 14 7 7 10 11 11 10 10 9 10 8 6 8 10 12 12
50 53 50 65 70 74 65 62 58 60 66 69 72 73 76 78 81 87 92 100 100 100 100 98 79 45 20 11 8 8 10 12 12 11 11 10 8 7 8 9 12 15 16
52 48 46 66 69 62 56 53 53 60 65 68 70 74 77 79 83 90 96 100 100 99 100 95 70 26 14 13 10 8 9 11 12 12 11 10 9 8 10 11 12 15 17
56 52 56 56 55 52 51 55 62 62 62 66 71 75 79 82 89 91 100 99 100 100 100 95 38 19 14 13 12 11 9 9 10 12 12 11 10 10 10 12 14 18 23
67 63 60 58 58 62 64 63 59 60 64 69 74 77 79 84 89 94 100 99 100 100 100 86 30 18 12 11 11 12 11 9 9 10 11 10 10 12 13 14 14 16 21
66 67 68 67 64 61 61 61 62 64 66 71 76 77 79 84 88 99 100 99 100 100 99 86 28 19 12 11 12 12 12 12 13 13 12 12 12 14 15 15 15 16 17
70 70 69 67 67 67 73 79 83 75 69 71 76 77 78 83 88 99 99 100 100 100 96 58 28 19 14 12 13 13 12 12 12 12 10 10 11 12 15 15 14 14 15

GFSMW_850_rhum_090.txt.gz
RH
36 44 44 53 67 79 88 80 86 89 94 92 91 93 90 87 83 85 90 95 92 94 96 92 100 97 97 96 98 99 100 99 95 96 94 83 73 71 68 78 83 73 78
30 43 43 46 54 62 82 88 80 78 83 86 80 80 78 85 81 83 88 88 88 97 96 100 100 100 99 100 98 98 100 99 100 100 100 94 77 69 65 63 78 78 84
30 44 41 42 46 51 63 74 79 75 70 80 84 78 76 78 79 76 80 83 89 90 87 96 96 96 100 99 100 100 98 98 94 96 98 98 84 77 71 64 66 74 79
32 40 43 41 42 48 50 63 67 69 69 72 73 72 67 64 67 69 72 65 57 66 64 71 77 77 74 72 89 99 99 99 97 95 98 91 94 95 90 74 81 84 87
34 36 44 40 38 38 47 56 63 69 68 70 65 67 60 68 60 58 54 53 59 50 39 39 37 38 39 40 44 53 71 95 99 97 95 87 82 90 95 94 84 89 94
33 38 44 45 39 36 36 41 63 67 68 65 63 58 56 63 52 57 64 54 46 35 29 30 31 32 34 36 40 45 48 48 67 84 81 85 92 80 84 90 87 83 94
30 37 46 48 40 39 36 35 34 37 46 61 65 52 65 68 74 64 49 35 32 29 28 29 29 31 33 35 38 40 40 41 41 61 80 88 85 96 99 93 97 95 94
31 36 44 46 44 43 40 39 35 34 38 40 41 49 57 56 47 36 31 31 31 30 30 32 34 35 37 38 40 40 43 45 50 59 80 92 97 92 86 94 100 99 98
28 38 39 45 45 43 41 40 38 36 37 40 39 35 35 35 33 32 33 34 33 36 38 40 41 42 44 46 48 51 53 50 54 63 92 99 99 87 87 91 79 99 95
31 32 41 46 47 45 47 45 42 36 41 45 41 38 35 34 34 35 37 35 35 38 42 44 47 49 49 49 50 53 55 54 57 65 100 90 100 97 92 93 100 95 95
32 34 37 39 53 54 55 52 51 44 39 42 46 36 36 41 45 41 37 38 42 45 46 47 49 48 47 48 49 50 52 57 59 65 87 100 99 99 98 99 96 91 84
46 44 41 42 50 58 64 59 61 66 56 49 47 46 50 45 41 40 44 47 48 49 51 52 51 50 50 50 52 56 58 64 64 68 71 78 89 90 84 72 69 73 82
45 53 55 53 47 58 64 63 68 68 64 57 51 48 46 44 46 49 50 52 54 56 56 57 57 56 56 57 60 63 65 72 73 74 73 72 70 69 68 74 79 83 86
44 51 61 66 67 62 65 71 76 71 62 57 52 51 51 53 54 54 55 57 59 60 62 62 61 62 62 64 69 72 72 73 75 76 72 70 73 79 83 83 84 86 88
37 46 55 65 70 73 73 75 73 64 60 56 54 54 56 56 56 59 60 61 63 65 65 66 65 65 68 71 74 77 83 90 94 98 89 88 89 88 86 85 85 87 85
37 37 50 62 67 72 75 74 67 62 60 57 56 57 58 58 60 62 63 63 66 68 70 68 70 72 76 78 77 79 97 100 100 100 100 97 92 93 95 94 86 80 77
36 37 40 50 64 68 68 67 64 61 59 57 59 58 59 61 63 64 66 68 71 72 73 74 76 86 86 82 78 87 98 100 100 100 96 94 90 89 84 76 51 23 9
39 39 42 45 49 65 68 66 64 61 60 59 61 62 63 66 66 68 68 69 74 76 76 84 95 91 86 85 89 92 98 99 98 95 91 83 52 23 10 8 8 8 8
46 42 41 44 48 58 67 70 67 61 60 59 61 62 65 66 68 70 71 73 79 81 94 100 100 93 90 92 92 92 92 86 71 51 27 13 12 11 8 6 8 9 9
47 46 45 43 46 60 67 69 66 61 56 58 60 65 68 71 72 73 74 81 84 93 99 98 99 98 93 89 50 19 15 14 12 13 13 11 12 13 7 7 9 10 11
49 50 48 48 54 63 68 70 68 64 61 65 67 69 71 73 74 75 78 83 89 100 99 99 100 99 76 38 13 8 8 13 14 13 12 14 11 8 7 8 11 13 15
54 55 52 59 64 67 70 72 70 71 68 68 71 74 75 76 77 78 83 88 94 100 99 100 100 84 56 29 15 10 8 11 13 13 12 13 12 9 8 9 11 13 14
60 60 65 69 72 73 74 73 74 71 71 73 71 71 74 74 76 80 86 91 100 100 100 100 99 88 45 20 15 16 10 9 12 12 12 12 12 10 9 10 12 14 15
69 65 65 69 70 71 70 70 72 71 70 66 65 69 72 75 77 84 89 94 100 100 100 100 100 85 29 18 16 14 13 11 10 9 10 11 11 10 11 12 13 13 15
69 72 72 70 69 70 70 68 65 64 63 64 67 69 70 72 76 83 89 98 100 100 100 99 100 78 26 16 15 14 14 14 16 15 12 11 11 12 12 13 14 14 15
72 71 68 68 66 66 66 68 70 75 78 76 72 71 75 79 78 84 91 99 99 100 99 100 99 77 26 19 14 14 14 14 13 13 12 11 11 11 11 12 14 13 12

GFSMW_850_rhum_093.txt.gz
RH
42 41 36 49 81 80 80 83 83 76 95 94 99 94 83 83 83 84 87 85 87 80 81 81 89 99 99 98 97 98 97 92 97 99 98 98 95 82 58 65 78 91 74
38 47 41 41 59 80 85 82 84 78 80 82 78 96 83 84 80 84 83 83 87 85 95 99 99 99 99 95 98 99 96 94 95 90 90 78 81 68 74 69 67 87 79
34 44 46 42 42 50 69 76 76 75 78 80 84 88 90 91 85 83 82 82 82 84 84 87 88 100 99 99 98 98 98 98 95 91 90 85 89 78 78 78 78 80 80
35 38 43 44 42 36 45 61 64 64 72 76 79 78 74 74 75 76 78 77 72 73 67 56 59 55 68 96 98 98 94 97 98 95 92 88 94 98 91 85 82 85 90
32 39 42 42 42 42 46 61 73 75 67 74 70 73 76 75 73 68 69 65 53 47 48 48 50 65 56 42 42 48 63 96 96 97 95 93 96 98 93 93 86 88 90
31 32 36 37 43 42 44 59 73 77 83 69 67 70 68 72 72 64 65 64 55 52 46 49 41 34 34 31 31 35 40 47 58 65 97 99 97 84 88 88 82 86 100
31 33 35 36 46 41 39 47 55 71 75 76 73 71 71 67 65 59 62 62 67 68 45 32 30 30 28 28 30 32 35 37 40 42 52 72 90 96 99 95 92 96 99
32 34 34 44 45 42 37 37 37 42 56 70 73 67 73 64 64 74 71 68 47 32 30 30 30 30 30 32 33 36 38 39 41 41 46 44 69 85 86 94 89 99 97
28 34 38 43 47 45 39 36 36 36 36 38 51 71 74 65 68 68 53 42 34 34 34 33 32 34 37 37 38 42 44 45 45 48 52 62 67 85 99 94 95 84 100
31 38 46 48 46 45 44 44 44 39 38 39 41 46 50 50 44 37 35 35 36 38 39 36 39 44 40 42 44 44 45 45 47 48 53 66 84 99 87 96 100 91 99
30 31 34 43 48 48 46 46 43 41 40 46 45 50 48 44 40 40 41 42 42 39 36 46 48 44 45 46 46 47 48 48 48 49 55 74 100 98 100 96 94 95 95
37 37 37 38 39 50 51 51 49 49 55 50 54 61 60 47 43 44 46 40 39 42 51 51 47 50 50 50 50 52 52 55 56 57 61 63 88 99 99 100 100 100 91
35 33 34 37 44 48 57 58 60 60 58 57 58 61 66 68 69 59 57 59 53 54 56 54 54 55 55 56 56 56 58 62 66 70 74 74 73 76 80 82 75 77 80
41 40 38 36 44 54 66 71 72 72 75 76 66 70 76 67 56 51 48 53 57 58 58 58 58 59 60 60 61 64 68 72 73 73 80 80 74 75 81 84 85 85 87
44 39 37 38 43 53 66 79 75 71 68 62 56 58 59 58 55 52 55 60 61 61 61 62 62 64 64 64 64 69 75 78 87 92 93 91 87 88 88 88 87 88 88
35 36 37 38 43 49 58 65 72 68 64 60 60 60 59 57 56 57 59 62 63 65 66 66 67 65 64 68 72 76 86 100 100 99 100 100 99 100 98 95 93 90 88
37 38 38 41 42 45 56 60 62 67 66 65 62 60 59 58 59 60 63 64 66 68 71 73 73 71 69 80 83 81 94 100 98 98 99 100 100 98 97 97 93 85 76
37 38 38 40 44 49 59 62 62 65 67 64 61 59 60 62 63 66 68 69 71 73 76 77 78 78 82 85 84 92 100 100 99 99 100 100 95 90 78 54 37 18 8
47 46 46 42 45 49 56 63 66 65 67 66 62 62 64 64 65 67 69 71 72 73 78 82 97 100 99 90 90 93 94 99 100 99 95 82 52 23 12 11 10 9 9
47 46 47 45 43 50 54 62 65 65 66 67 65 67 68 68 70 72 74 76 76 79 84 98 99 98 100 98 94 93 86 79 64 38 22 14 15 13 12 8 8 11 11
54 50 51 51 46 46 57 65 66 67 65 69 70 71 71 72 77 76 77 78 80 85 97 100 99 98 100 95 70 28 12 13 15 14 14 13 12 11 11 7 10 12 14
56 54 54 52 48 49 62 66 68 70 72 72 72 72 73 75 75 75 77 78 83 89 100 100 99 99 100 77 41 21 10 11 14 14 15 15 14 13 9 8 8 12 15
60 62 66 65 63 67 70 69 72 74 74 73 72 73 73 73 73 75 77 80 87 95 100 100 100 100 99 72 39 20 16 10 11 14 14 14 14 13 10 9 10 11 14
69 63 66 72 76 77 76 78 77 76 74 72 74 71 68 70 70 72 76 83 88 99 99 99 99 100 99 74 29 18 16 14 10 11 13 14 14 13 12 11 11 13 16
70 70 70 68 68 70 72 72 72 73 74 72 70 68 70 71 72 76 79 82 88 98 100 100 100 100 99 58 23 18 15 15 16 18 14 12 11 12 12 12 14 15 16
74 72 71 69 67 67 67 67 67 68 69 70 72 74 77 77 80 86 86 86 94 99 99 99 99 100 99 54 25 17 16 15 18 21 17 16 15 13 14 14 14 15 16

GFSMW_850_rhum_096.txt.gz
RH
42 42 55 69 73 81 82 84 82 83 90 93 94 92 82 79 83 85 81 76 76 80 78 80 86 97 96 95 96 95 94 92 87 88 82 82 85 82 77 64 65 84 83
43 43 44 62 60 68 77 80 80 78 82 90 95 98 92 82 78 81 78 82 83 84 76 79 90 92 94 94 93 88 91 92 90 89 79 83 78 75 73 70 65 68 81
38 38 42 44 58 53 53 64 70 74 77 78 75 87 91 94 83 80 87 85 83 81 83 79 77 74 80 79 85 89 92 91 93 90 90 83 87 81 80 81 83 86 80
33 34 37 39 42 57 61 57 55 59 66 72 73 72 72 71 82 83 83 82 83 83 82 76 73 71 64 48 54 59 96 99 99 90 87 91 94 97 86 80 88 88 83
32 31 35 36 41 43 57 76 78 76 74 77 74 70 69 71 79 84 83 82 83 81 74 75 60 49 49 59 48 64 74 75 78 83 85 90 86 85 93 97 94 94 93
34 34 34 33 42 46 48 72 72 80 82 83 80 74 69 70 71 76 81 81 78 71 66 54 62 53 52 57 45 35 35 39 44 48 66 87 92 97 97 97 99 99 95
30 35 34 34 36 39 42 44 55 75 69 67 65 69 71 73 73 71 73 70 67 68 62 66 59 50 41 31 28 28 32 33 34 38 44 50 54 98 99 90 91 96 98
29 33 34 32 34 35 36 43 43 51 68 70 66 69 67 69 71 72 73 76 72 69 74 73 50 32 32 28 29 32 36 36 36 37 39 41 46 61 86 98 97 99 99
32 30 31 34 36 35 42 44 41 42 46 62 73 70 72 68 69 71 71 72 68 66 66 43 33 33 31 31 33 35 40 44 46 46 48 49 48 57 70 98 97 96 99
30 31 32 33 38 43 45 42 38 38 39 42 49 61 70 84 87 83 73 70 65 55 40 34 40 41 39 38 40 40 44 46 47 50 50 49 52 72 81 81 99 99 99
33 40 48 47 48 47 46 44 41 40 41 39 40 45 54 58 60 59 53 44 41 41 44 45 42 41 42 43 42 45 48 46 47 49 50 51 57 82 88 99 99 100 100
32 31 35 39 44 50 50 50 49 48 46 42 42 43 45 46 44 43 45 47 46 45 46 47 48 47 43 45 49 51 51 52 53 56 55 58 65 85 100 98 98 100 99
33 31 31 29 31 35 44 53 54 51 47 48 52 56 55 50 47 48 55 63 70 65 62 64 60 51 52 54 57 56 57 58 57 59 66 73 77 84 96 99 100 100 99
36 34 33 30 28 34 38 49 58 60 59 60 61 61 61 58 58 63 70 77 78 64 56 50 54 56 59 60 61 62 63 63 66 71 77 82 84 83 86 97 94 86 83
40 38 34 33 32 29 34 43 55 66 68 71 71 70 76 79 72 70 73 66 61 59 58 58 59 61 64 63 65 65 67 70 74 79 90 93 98 97 86 86 91 89 88
35 34 34 35 35 36 35 41 50 62 71 74 77 76 70 63 59 58 59 61 63 60 62 65 67 67 69 69 64 66 72 79 91 100 99 99 99 100 100 100 97 95 95
36 37 38 38 39 40 40 41 47 59 69 73 75 71 66 62 59 59 60 63 65 68 68 67 70 73 72 71 72 76 83 96 100 99 99 97 99 100 99 100 99 97 95
37 37 38 39 40 42 46 48 57 62 73 74 73 72 66 62 60 61 63 67 69 69 69 69 71 76 83 88 83 86 94 100 99 99 100 99 99 100 100 100 98 95 89
51 50 48 44 43 41 44 52 60 65 73 72 70 68 65 62 63 65 67 70 72 72 73 75 77 86 99 100 97 90 99 100 99 99 99 99 100 92 81 54 25 17 11
47 44 46 46 46 44 45 52 60 68 67 66 65 66 66 67 69 71 73 75 76 76 78 79 84 100 99 99 100 93 98 100 100 100 97 85 53 28 17 13 14 16 13
53 52 50 48 49 46 43 49 60 63 64 66 69 70 68 71 74 75 76 77 78 78 80 83 97 98 98 98 100 99 83 52 43 33 22 15 17 15 20 14 10 15 15
57 56 55 55 54 50 47 49 58 62 68 71 71 71 71 73 75 78 80 80 78 79 84 94 100 99 99 99 100 62 28 14 12 17 20 18 19 17 13 10 9 14 16
64 62 66 65 57 52 52 58 63 69 72 74 74 74 74 78 80 79 77 76 77 79 85 100 99 98 100 100 97 56 29 18 10 14 17 20 19 18 14 10 10 10 15
68 64 69 78 78 74 72 74 74 74 75 76 77 77 77 78 77 76 74 75 76 80 87 98 99 100 100 100 98 67 27 20 14 11 13 16 17 17 16 14 11 11 14
68 69 70 71 77 80 79 79 79 79 80 80 80 79 78 74 74 76 79 78 81 84 89 97 100 100 99 99 100 56 26 21 19 20 16 14 13 14 14 14 13 14 14
74 75 72 70 71 73 74 74 76 78 78 76 73 71 73 76 81 84 85 87 92 92 97 99 98 99 99 100 95 39 24 22 22 24 22 18 15 13 13 13 14 15 17

GFSMW_850_rhum_099.txt.gz
RH
44 58 71 83 82 82 82 79 77 79 85 91 90 87 85 86 86 84 78 79 78 75 74 80 85 83 78 84 84 88 91 86 81 82 76 78 77 73 74 74 70 73 72
45 44 50 60 67 77 82 84 81 79 78 78 84 89 87 85 86 83 78 76 78 78 77 77 78 83 80 79 81 83 88 85 87 86 84 80 81 77 72 72 68 66 67
42 42 44 44 47 58 69 73 78 80 79 79 85 84 91 92 91 86 81 78 74 78 81 78 78 78 91 78 67 72 53 47 53 85 86 92 84 84 78 82 78 70 81
43 40 38 38 40 40 41 49 63 63 68 78 82 84 78 80 74 79 79 80 84 82 81 80 81 77 70 75 74 54 51 58 56 55 90 86 82 84 85 90 89 82 85
41 40 39 37 34 36 39 48 51 50 61 65 72 69 81 76 72 71 74 77 84 84 85 83 83 78 79 82 70 65 63 59 45 61 72 76 81 83 92 95 98 94 84
33 35 37 32 34 34 40 48 60 66 64 65 66 69 69 72 74 73 75 78 78 80 83 84 85 81 69 62 67 61 61 53 36 34 40 46 76 72 84 83 87 85 90
31 31 33 34 32 35 38 47 54 63 73 70 74 75 73 72 74 74 72 72 72 72 74 85 87 63 64 66 57 51 40 37 28 26 35 43 47 76 92 81 93 100 93
28 28 29 30 33 34 35 43 45 45 53 58 64 64 65 68 73 74 72 72 74 74 75 77 76 86 70 56 38 31 33 34 33 33 38 40 47 58 67 98 99 99 99
32 30 29 29 34 34 35 36 36 39 44 48 58 67 69 66 67 72 71 71 76 82 77 83 78 74 62 54 35 36 36 40 42 44 47 47 51 57 58 70 99 99 100
34 32 30 29 30 34 35 37 41 45 46 48 50 52 64 74 75 76 76 76 78 82 75 69 66 65 48 41 40 38 40 43 45 47 46 48 53 54 53 88 98 100 98
32 32 34 33 34 37 37 40 46 45 42 41 40 40 41 49 67 81 86 87 82 78 66 49 40 42 45 49 47 45 45 46 48 49 51 50 54 56 59 94 100 98 96
32 34 39 47 48 48 46 47 46 43 42 42 43 43 44 48 55 60 64 58 47 41 43 46 50 56 53 55 59 61 53 50 51 52 54 57 59 65 68 88 97 96 99
36 33 31 31 36 46 48 50 50 49 49 49 50 49 49 51 52 50 46 43 42 44 54 65 66 60 65 63 54 54 53 55 56 57 61 62 69 71 75 87 99 98 99
37 35 33 31 29 30 31 34 45 55 55 53 52 51 53 53 52 52 50 59 63 62 65 72 72 62 58 59 60 56 57 59 61 62 66 74 77 86 93 94 99 99 100
37 35 34 33 32 32 31 31 39 52 58 58 58 61 64 66 63 61 63 76 74 71 65 55 58 62 62 64 61 59 62 63 66 66 73 85 93 99 100 96 93 99 96
36 34 33 34 34 34 36 38 38 46 58 64 67 70 72 68 68 79 84 80 66 53 56 62 65 64 64 64 62 66 66 66 71 80 99 98 99 99 98 100 100 99 100
40 38 36 35 36 37 38 40 41 50 58 72 78 81 82 83 81 74 66 60 58 59 63 65 66 67 70 69 69 68 71 77 92 99 98 100 99 99 97 98 99 100 98
39 37 36 36 38 39 40 42 47 53 60 69 79 82 80 74 68 63 62 62 63 66 68 70 70 70 71 76 80 82 86 98 100 100 99 99 99 98 99 100 99 99 100
44 45 46 44 41 41 40 40 47 55 63 67 73 75 73 70 65 64 64 66 69 71 73 74 73 74 79 90 100 100 100 100 100 99 99 99 99 100 99 94 85 85 88
49 47 46 44 44 46 47 45 44 56 60 64 68 73 74 71 67 67 69 71 73 74 74 75 78 82 87 99 99 100 98 100 100 99 99 99 100 92 68 38 26 20 17
55 54 51 50 48 49 48 46 47 55 57 68 72 73 74 72 70 72 73 74 77 78 80 81 84 89 99 99 98 98 100 97 88 84 80 60 39 24 22 24 19 16 18
58 54 55 56 55 56 53 47 46 54 64 71 73 74 74 74 75 75 75 76 78 79 80 81 86 97 100 99 98 99 98 64 31 18 19 21 24 20 20 18 16 17 14
64 57 60 63 61 55 53 53 56 65 70 73 74 75 77 77 78 80 79 78 76 76 76 78 84 96 100 99 99 99 97 51 26 15 15 21 26 23 20 18 14 12 14
68 66 64 73 77 73 66 66 68 72 74 74 76 78 79 79 78 80 79 76 75 77 79 81 83 92 100 99 99 99 92 59 26 19 14 17 25 25 21 19 16 12 14
71 69 71 72 79 81 78 76 70 74 77 79 79 80 80 80 80 80 78 80 82 82 85 87 94 98 99 99 100 99 99 68 31 28 23 20 22 21 19 19 19 17 16
77 78 74 73 75 77 79 81 81 81 82 82 82 82 82 83 80 80 82 84 87 88 91 93 97 99 98 99 99 99 99 49 29 28 25 29 25 17 15 16 17 18 16

GFSMW_850_rhum_102.txt.gz
RH
68 62 71 80 79 76 69 70 72 60 70 86 80 76 63 84 88 86 82 83 81 79 79 78 79 82 82 77 76 79 79 85 84 77 76 72 78 76 72 71 68 66 63
49 58 64 70 81 78 80 81 85 81 80 83 66 74 71 76 83 81 81 79 83 81 78 76 78 72 71 75 82 82 81 74 82 77 75 69 64 72 76 76 74 72 67
42 46 51 61 68 73 73 76 84 87 86 84 82 78 84 86 87 87 83 82 82 83 77 76 82 78 73 86 91 93 76 74 73 72 75 73 73 82 83 78 76 80 79
40 40 44 46 52 54 60 69 72 77 84 80 78 76 75 71 71 78 76 80 84 85 85 85 83 86 83 75 84 82 78 70 65 67 66 68 67 89 94 82 82 80 85
40 39 40 40 38 39 43 54 68 68 71 76 73 72 71 74 79 75 75 85 89 87 83 81 85 85 92 95 86 87 86 71 66 72 70 63 57 63 82 91 93 87 85
42 37 39 41 39 38 36 38 47 61 66 62 64 69 69 75 72 73 74 74 77 84 85 82 81 89 91 100 97 80 70 67 60 51 39 38 57 60 67 88 85 98 96
38 37 34 36 40 37 32 33 36 43 60 67 70 70 68 66 68 74 76 76 75 74 78 79 81 80 91 79 77 73 61 48 36 31 30 31 34 45 49 75 93 100 89
28 26 27 33 34 35 33 34 35 41 46 51 58 64 62 68 70 72 71 71 73 74 76 78 81 83 70 73 81 56 37 33 35 34 35 35 42 44 49 64 70 89 96
32 29 26 27 31 32 32 33 35 44 46 46 48 51 54 59 63 64 67 69 75 74 78 84 86 79 74 74 66 57 48 40 40 37 38 40 40 47 50 64 64 77 100
40 37 31 31 29 29 33 36 37 41 43 43 47 50 51 57 64 67 69 71 77 83 84 89 88 88 78 75 66 46 41 40 43 43 43 44 47 52 48 53 63 79 99
36 38 36 33 30 30 35 38 39 40 43 46 47 48 47 44 43 46 60 73 86 94 99 93 82 68 52 45 46 49 47 54 60 57 53 53 54 55 59 59 62 76 99
36 36 38 41 43 39 37 41 42 45 47 45 43 42 41 41 43 54 74 88 96 95 85 68 46 44 51 59 59 62 63 58 52 55 56 58 56 59 64 69 74 89 98
34 31 30 32 45 50 50 48 49 48 46 46 46 46 46 46 48 56 68 73 67 56 48 47 53 65 68 69 67 60 54 56 57 57 57 61 62 64 70 74 81 94 98
36 34 32 30 30 31 35 40 46 50 52 53 52 53 52 51 52 53 52 49 48 49 51 65 68 69 70 66 61 55 58 59 61 61 62 63 65 73 77 84 94 98 98
38 35 35 34 32 32 31 31 31 33 43 54 57 57 56 56 56 55 54 52 57 74 77 76 69 61 57 56 59 59 61 63 64 65 69 69 74 94 98 99 100 100 100
41 36 35 35 35 36 36 36 36 37 39 47 59 63 64 66 68 66 63 60 69 81 75 63 58 58 60 61 62 62 62 65 68 71 71 76 99 98 98 98 99 100 100
45 40 40 37 36 37 40 40 41 42 42 48 62 71 74 75 75 73 70 78 84 68 59 60 61 64 65 64 65 65 68 68 72 78 89 98 98 98 99 98 97 98 98
46 40 39 37 37 38 39 40 41 44 46 51 62 73 78 80 79 81 86 80 66 63 63 64 65 68 69 69 71 73 72 74 89 99 100 99 99 98 99 99 99 99 98
44 42 42 40 39 40 41 41 41 42 49 52 58 69 82 85 84 82 75 68 66 66 66 68 70 72 73 76 79 85 97 93 100 100 99 99 99 99 99 100 98 96 98
52 50 49 47 44 44 46 48 46 44 43 53 59 72 81 80 76 74 69 68 69 69 69 71 72 72 74 78 83 96 99 100 99 99 99 99 100 99 97 86 68 55 37
53 53 53 51 49 49 47 45 46 46 44 58 68 75 79 78 76 72 70 72 73 72 73 74 72 72 75 81 93 97 96 99 100 99 98 99 92 64 42 23 24 21 19
63 60 57 58 56 54 55 55 50 49 54 68 73 76 81 81 78 76 75 76 76 76 77 73 71 74 81 95 99 96 94 95 89 60 29 24 24 24 23 20 22 21 16
67 66 61 69 68 61 56 55 56 56 66 73 77 79 81 80 79 78 78 78 78 78 73 72 74 78 83 94 94 98 99 100 90 42 25 16 19 25 25 20 22 20 14
69 70 69 76 80 78 67 59 62 67 71 75 76 77 78 78 80 80 81 82 81 76 76 78 77 84 89 92 96 99 100 99 91 59 30 20 16 22 23 23 24 20 15
74 72 75 78 83 83 81 79 76 76 78 76 76 78 80 81 82 83 84 84 82 80 81 83 86 87 92 96 99 99 99 100 97 69 36 31 24 19 21 19 22 21 20
77 81 77 76 79 82 83 82 81 80 82 83 83 83 83 84 85 86 85 81 81 83 86 90 93 93 92 96 96 99 99 100 100 69 33 25 29 24 19 17 19 20 20

GFSMW_850_rhum_105.txt.gz
RH
70 78 71 70 74 52 53 50 51 51 57 76 81 78 82 81 77 72 66 76 79 79 79 78 81 80 78 78 82 82 86 86 87 83 79 71 67 61 59 48 63 62 67
84 74 72 79 67 58 56 61 58 62 63 68 80 86 80 82 84 79 77 68 71 80 80 77 80 81 75 76 86 87 91 92 90 75 71 77 74 70 69 65 65 69 69
48 64 75 69 72 78 68 60 70 67 65 71 66 74 63 75 97 78 86 73 79 80 81 78 78 81 85 76 82 81 87 88 89 79 76 79 76 73 74 74 79 72 70
45 45 51 71 72 71 76 78 80 81 78 75 81 76 73 69 74 82 72 90 87 79 76 80 87 93 98 99 88 85 91 84 82 78 74 77 78 81 82 73 76 86 90
42 41 40 45 55 64 63 69 74 78 77 64 83 90 93 81 88 70 85 88 82 85 84 87 88 93 88 83 92 89 94 80 74 84 68 64 68 63 82 97 77 81 86
40 37 37 39 42 46 53 63 70 73 77 75 74 78 82 79 84 75 77 82 77 82 82 84 83 80 80 81 90 99 89 84 87 78 63 55 42 38 49 71 77 94 92
38 36 36 37 39 42 41 41 41 48 61 68 70 68 71 75 72 71 72 72 74 74 75 75 79 79 81 86 89 99 76 81 75 65 36 34 36 38 40 49 76 93 98
36 35 41 36 37 39 40 39 33 34 41 49 60 66 67 67 68 69 70 71 72 73 73 75 77 78 96 98 99 82 77 73 47 38 38 39 41 43 45 47 58 88 98
35 34 31 33 34 36 39 35 33 34 37 44 52 57 57 60 56 58 59 64 65 64 74 73 80 90 94 79 79 80 56 49 44 42 39 40 42 43 45 50 61 71 99
46 38 28 26 25 31 34 35 34 34 40 48 50 50 51 55 55 54 58 60 65 65 69 79 85 88 84 82 78 71 67 52 43 44 49 56 55 52 50 53 56 59 84
49 50 42 33 33 33 34 34 35 36 39 44 42 43 49 53 55 54 54 57 71 86 98 99 98 94 94 86 73 54 46 48 48 58 58 52 50 52 54 57 61 64 75
43 50 51 46 38 34 34 36 39 38 39 40 46 48 48 45 44 45 51 59 77 99 100 100 99 89 70 48 48 56 60 61 60 54 51 53 56 58 61 62 67 69 95
39 37 38 49 52 49 43 41 43 44 44 48 47 44 43 41 42 45 55 73 90 99 99 97 74 52 50 61 67 68 64 56 52 53 55 57 58 61 62 67 73 76 86
40 37 35 35 34 42 51 52 52 51 50 48 48 49 49 49 50 52 61 76 85 82 70 53 52 64 71 71 69 63 58 55 54 55 59 61 62 64 68 76 81 91 96
39 37 35 35 35 35 35 34 34 37 46 52 55 55 56 55 54 56 60 60 56 54 54 60 72 73 69 63 56 57 59 57 56 60 62 66 69 73 79 86 97 100 99
45 42 38 36 36 36 37 37 37 37 36 40 56 63 61 59 58 58 56 56 56 59 79 80 77 68 59 59 60 61 60 58 60 63 67 71 80 100 98 98 98 98 99
44 42 38 38 38 37 37 38 40 41 40 41 52 63 67 67 65 66 64 62 61 72 82 78 63 62 65 64 63 61 60 59 61 64 73 92 100 98 98 98 97 96 96
50 46 42 40 39 39 39 39 40 42 42 43 46 56 69 75 76 77 76 73 72 83 78 63 66 68 70 68 65 62 62 62 66 78 98 100 99 98 98 96 94 99 98
48 46 45 44 44 43 42 43 40 41 44 46 48 52 63 78 82 81 79 81 88 79 65 66 70 72 72 69 64 64 67 74 78 96 100 99 99 99 99 98 98 96 97
56 54 52 50 47 46 45 45 45 48 43 41 49 59 66 77 84 86 89 88 78 70 68 70 72 73 74 70 70 70 78 87 100 100 99 99 99 98 98 96 91 77 69
57 55 55 53 51 49 47 44 44 41 47 51 56 66 72 80 89 90 84 77 73 71 73 73 76 74 70 71 73 74 84 91 93 98 98 99 99 98 90 67 34 29 26
66 66 61 56 57 60 56 53 55 57 52 53 60 71 78 86 85 82 80 77 76 76 76 77 74 70 72 74 78 81 88 90 92 94 74 41 34 33 27 23 21 24 22
70 67 64 63 67 68 65 59 60 59 57 59 70 78 82 84 83 81 79 78 78 79 79 77 72 74 75 81 87 90 90 93 94 99 59 32 20 21 27 28 24 23 19
74 73 71 73 80 82 79 70 67 67 69 75 77 79 80 82 84 84 83 82 82 82 82 76 76 79 81 85 89 90 91 96 99 97 81 47 29 18 20 26 26 23 22
76 76 76 77 82 85 84 83 80 79 80 82 81 80 79 81 82 84 84 85 88 89 85 79 82 84 88 87 90 91 93 98 100 99 93 70 38 31 20 26 24 23 23
78 82 81 77 76 81 85 83 83 84 86 85 85 84 83 84 86 87 87 91 94 89 83 83 86 90 92 89 91 94 91 95 100 98 96 82 40 28 30 24 21 21 22

GFSMW_850_rhum_108.txt.gz
RH
76 77 91 95 97 81 83 82 78 74 86 87 91 90 80 74 64 53 53 60 62 73 73 75 76 79 77 77 81 82 82 84 88 82 82 80 69 73 65 61 58 62 52
74 74 89 91 94 87 82 74 72 63 60 69 75 86 89 93 83 79 66 64 67 78 84 86 84 83 80 80 80 86 83 88 84 89 73 76 78 80 67 65 71 71 65
86 78 97 84 82 97 79 73 76 68 58 59 71 81 89 87 87 85 88 87 82 82 86 88 89 85 84 86 89 94 90 88 88 79 76 91 77 81 80 76 77 78 76
74 80 90 89 63 61 84 75 68 77 71 58 62 75 70 64 74 78 82 79 72 77 78 79 84 85 82 89 94 98 88 86 83 74 89 86 83 87 81 87 72 70 70
56 61 72 83 79 73 63 74 77 76 70 57 47 64 71 72 84 84 79 70 72 64 66 69 83 80 92 96 93 96 94 94 76 57 77 88 80 88 96 82 74 72 64
50 49 53 60 72 74 76 76 81 79 83 95 84 66 69 75 92 78 83 62 71 65 69 72 77 78 76 81 84 96 97 96 83 69 75 84 93 85 85 84 82 86 91
51 51 47 44 44 53 70 71 69 74 81 84 88 81 79 89 81 83 73 74 78 74 70 77 78 72 76 84 90 99 98 99 98 80 79 74 56 41 41 46 55 87 88
46 42 39 38 38 41 45 50 59 66 72 75 79 80 84 86 84 86 84 80 76 75 75 76 75 75 78 80 99 100 100 96 81 79 72 43 39 42 42 44 61 86 88
41 43 35 34 36 38 42 41 42 41 45 61 69 72 73 72 73 75 75 74 72 71 70 71 72 73 76 99 100 100 99 81 74 54 40 43 42 44 45 49 49 60 83
39 37 40 36 39 37 37 40 42 36 36 41 50 63 68 70 70 68 68 68 67 69 70 74 80 84 96 100 96 83 85 68 52 51 46 44 51 57 55 52 53 58 66
48 46 38 32 33 33 32 36 40 36 37 40 46 53 57 59 63 60 59 62 67 70 76 83 92 99 100 88 86 81 70 67 54 47 49 58 58 54 52 54 57 62 67
60 54 49 39 39 36 34 37 40 38 38 42 49 48 46 48 52 53 56 60 64 70 78 90 98 100 94 94 86 78 56 50 53 59 60 56 52 52 52 56 60 64 75
48 51 58 51 45 48 45 40 38 40 42 46 45 46 50 53 50 48 46 49 52 64 93 99 100 100 100 88 58 52 60 65 64 58 54 54 54 54 55 59 66 72 80
48 44 40 47 55 52 50 50 47 47 49 49 52 51 47 45 44 45 47 52 68 96 100 99 99 94 65 52 60 69 69 66 60 56 56 57 57 57 59 66 72 78 86
47 44 41 37 36 36 42 52 54 54 54 52 49 48 48 48 48 49 50 61 84 100 100 99 79 54 57 69 71 68 60 59 58 57 56 57 58 59 64 72 85 88 95
50 48 42 40 39 37 36 34 33 36 44 50 53 54 54 55 55 56 58 66 76 79 70 57 57 68 75 70 61 58 59 59 60 59 59 59 64 72 79 96 98 96 97
54 48 46 41 40 40 39 39 38 36 36 38 42 52 59 60 60 61 61 62 62 57 56 64 80 78 71 61 60 61 61 61 60 60 63 67 77 96 96 97 97 94 94
57 53 47 44 42 42 41 42 44 43 41 40 41 44 53 63 65 64 63 61 59 59 66 78 79 70 61 62 63 63 64 66 66 65 72 83 98 99 98 96 95 94 95
55 53 50 48 46 46 46 45 43 42 43 45 45 48 57 65 71 70 68 69 67 67 72 80 72 63 67 67 69 67 69 72 72 71 77 96 100 99 98 97 99 95 92
63 57 52 51 49 48 47 46 46 46 46 43 46 54 59 67 74 78 80 83 82 82 88 77 70 72 73 72 68 70 74 77 78 80 91 98 99 98 98 97 98 93 85
74 67 61 56 53 51 49 47 47 45 47 48 52 56 68 74 82 88 89 86 87 94 81 77 77 77 77 72 70 74 78 80 85 88 92 99 99 98 98 94 87 60 39
80 76 71 65 61 57 55 53 50 52 51 52 51 53 63 73 85 91 92 97 98 84 79 80 79 78 73 73 76 78 83 88 90 90 90 81 57 60 62 42 24 19 21
76 75 73 71 71 73 72 70 58 59 61 61 56 58 71 81 88 93 95 91 84 81 80 80 81 76 73 76 78 84 87 87 89 91 93 77 39 24 20 23 26 20 20
76 74 73 71 73 80 81 80 71 66 68 68 68 76 82 87 92 90 88 84 80 81 82 82 82 76 77 78 84 85 87 88 89 92 92 91 62 35 19 20 24 25 24
79 79 79 77 79 84 84 84 83 79 80 82 84 85 84 86 86 87 87 85 85 84 84 84 82 81 81 85 86 87 88 90 93 97 97 94 87 52 34 22 27 26 24
79 78 84 84 80 82 87 85 85 88 89 89 90 90 91 93 92 89 88 91 94 94 91 92 93 92 87 89 90 88 90 91 98 96 95 94 96 72 38 32 25 24 22

GFSMW_850_rhum_111.txt.gz
RH
95 86 94 95 96 96 100 100 91 98 99 90 82 76 72 78 98 93 92 96 98 91 90 95 98 96 98 97 97 97 91 90 92 92 85 89 89 91 90 86 79 82 58
97 88 90 94 80 84 93 100 98 93 98 95 83 72 85 78 78 83 86 94 97 94 98 99 98 99 98 98 98 96 95 94 90 83 86 74 69 82 78 85 74 76 64
84 91 88 85 84 84 84 95 89 98 97 94 97 99 96 97 95 94 82 64 66 65 81 93 95 93 94 95 94 88 88 90 85 79 74 69 76 75 79 75 73 70 68
80 61 71 92 80 77 77 82 73 89 78 90 81 75 80 86 82 87 90 90 88 85 85 85 86 87 85 83 84 94 92 91 81 76 72 68 69 80 82 90 85 77 69
94 83 75 93 95 78 64 62 80 93 90 86 83 78 72 71 70 67 75 78 89 83 71 68 78 76 71 76 82 92 99 99 81 84 76 73 72 84 88 88 84 81 76
77 87 82 89 95 73 64 92 78 86 91 87 78 77 69 56 52 58 62 76 75 73 80 72 70 69 64 62 78 86 89 92 86 84 82 70 87 93 84 87 80 76 82
65 66 71 83 80 75 63 78 71 65 79 70 72 74 71 56 50 62 62 64 54 70 71 74 73 73 65 70 87 88 92 77 82 90 83 74 84 86 78 58 49 61 64
50 56 59 58 65 71 65 75 86 72 76 81 74 68 68 62 53 68 61 56 80 91 61 69 80 70 75 81 78 94 93 93 99 100 98 86 87 79 40 42 48 61 80
36 47 49 52 50 45 61 77 69 74 80 81 85 84 80 77 84 94 87 76 79 76 72 74 76 76 77 81 92 100 99 100 100 100 99 89 67 39 42 43 47 60 88
42 45 48 47 50 52 53 51 62 74 72 71 76 74 78 85 88 83 86 89 87 80 74 75 74 75 82 96 99 99 99 100 99 89 83 49 45 45 45 55 58 66 71
54 56 57 48 40 40 44 55 54 54 53 58 51 66 66 72 75 74 75 76 69 71 71 70 74 81 84 99 100 99 100 95 90 64 53 52 47 50 60 58 57 64 85
55 64 58 40 36 36 38 44 47 46 53 57 47 51 63 70 75 75 73 75 73 72 71 76 90 99 100 99 99 96 88 76 67 64 51 50 57 59 54 54 60 73 79
43 52 62 65 49 40 46 51 51 50 54 43 47 57 62 62 63 62 64 65 70 72 74 83 95 98 100 100 94 87 80 73 53 54 62 62 56 55 56 59 62 70 80
42 45 48 63 72 73 54 56 58 51 58 60 56 56 54 56 56 54 52 51 53 64 84 100 100 100 100 98 94 83 56 56 66 66 63 59 56 55 55 57 60 65 73
45 44 46 48 53 68 70 70 62 56 55 54 58 60 60 54 48 45 46 50 59 67 97 99 99 99 100 96 62 54 67 68 64 57 56 56 57 58 60 64 70 74 85
50 49 47 46 50 52 46 52 60 62 64 63 60 55 51 50 50 51 53 56 64 95 100 100 100 99 82 56 64 71 67 60 56 57 56 56 57 59 67 74 82 88 86
54 54 51 48 44 42 43 46 42 40 45 51 54 55 56 56 57 58 63 69 80 98 100 99 89 63 60 72 72 65 59 59 59 58 58 58 59 63 70 85 93 94 96
58 59 61 53 45 43 41 41 43 44 42 42 42 45 50 56 60 62 63 67 76 83 83 69 60 66 77 74 66 60 62 62 61 60 59 60 62 71 90 99 95 95 92
70 70 72 58 50 47 45 44 42 41 41 44 45 45 48 55 61 65 65 65 65 63 60 60 72 81 77 68 63 65 66 65 62 63 64 67 74 89 99 97 97 95 93
81 76 66 74 75 59 50 47 45 44 42 42 42 46 50 52 56 66 69 69 67 66 66 72 78 80 72 66 69 70 66 64 66 70 70 76 89 98 99 97 95 96 92
84 79 73 71 71 62 58 56 54 49 47 45 44 46 48 57 63 66 73 74 74 75 78 81 85 80 72 70 71 68 66 68 70 73 79 84 95 99 97 98 96 92 79
78 78 77 70 66 63 60 61 62 58 55 54 50 47 51 57 65 70 78 83 86 88 85 88 88 77 77 73 70 67 69 70 75 84 88 86 85 92 97 95 81 44 23
82 80 76 73 71 69 73 76 75 69 64 64 67 64 59 63 72 81 83 90 92 90 94 95 82 76 76 75 69 71 72 78 82 88 93 94 82 44 28 24 23 24 22
85 80 82 81 80 80 83 82 82 77 76 76 76 81 78 74 83 85 88 93 94 98 97 84 79 78 77 71 72 75 81 85 89 93 95 96 91 77 45 25 20 22 25
84 79 82 84 81 79 83 84 85 87 86 92 92 93 99 95 94 93 95 99 97 92 85 81 81 80 83 77 83 87 88 87 89 96 100 99 95 92 71 39 22 21 26
84 80 80 85 85 83 78 83 85 88 93 96 96 95 96 96 96 94 93 93 94 92 89 89 92 93 90 88 92 94 93 93 92 96 96 96 93 92 92 58 34 25 24

GFSMW_850_rhum_117.txt.gz
RH
99 83 99 93 91 82 85 82 73 65 84 89 82 83 91 85 87 80 84 78 70 62 58 45 46 47 51 52 58 66 74 78 83 84 80 79 85 89 90 86 84 89 80
82 83 96 93 97 95 88 86 80 74 88 93 81 78 74 78 83 85 83 74 60 54 53 66 70 74 73 70 78 83 80 81 82 82 85 86 81 88 88 86 83 80 67
74 86 81 90 99 88 86 87 91 96 83 98 91 83 79 75 75 77 76 63 51 51 64 87 92 87 86 84 97 92 87 82 82 84 88 86 75 76 84 88 86 75 77
68 64 83 87 93 99 99 96 87 87 84 96 99 90 85 87 88 79 78 74 77 80 74 88 92 91 90 88 87 88 82 78 83 82 89 91 88 80 85 87 85 85 81
68 82 83 83 82 87 94 91 100 98 83 66 90 88 77 74 84 74 89 98 98 95 88 80 77 84 85 87 82 80 81 86 95 88 81 68 82 93 86 85 86 89 86
84 75 74 74 75 94 79 100 94 100 96 81 74 86 73 67 68 98 99 99 99 93 88 74 77 80 80 76 74 73 71 70 85 87 84 56 55 77 91 85 83 90 83
94 84 82 80 73 73 78 87 92 95 97 86 73 78 58 61 65 67 76 76 78 82 80 80 75 76 76 63 65 63 59 62 78 82 77 73 63 75 100 95 86 86 84
92 98 85 72 73 70 80 79 87 93 90 98 89 80 80 74 71 71 68 67 67 65 70 67 66 65 63 60 56 56 50 56 64 85 82 79 81 96 100 99 90 90 59
66 77 82 78 83 74 87 83 80 78 82 77 98 95 89 88 86 81 77 80 77 76 75 67 67 64 66 66 71 75 56 61 76 89 81 92 100 100 100 98 96 76 51
59 61 70 68 72 78 79 87 84 82 82 80 82 75 71 69 78 78 73 79 76 77 80 74 72 76 73 88 81 76 70 76 87 90 95 99 100 100 98 90 76 47 49
65 59 54 54 58 58 58 66 82 78 82 88 84 86 91 85 83 79 68 81 78 77 70 74 74 77 82 81 84 75 84 74 93 100 99 100 99 95 92 63 50 52 60
67 69 65 55 51 56 64 63 72 78 79 79 86 90 91 96 91 95 89 85 73 79 70 69 77 68 84 85 89 95 94 87 80 94 100 98 97 92 56 54 53 61 61
56 64 71 70 58 50 58 66 66 70 73 79 86 95 90 86 81 72 72 72 73 76 73 72 79 77 78 79 99 100 100 100 95 100 97 95 86 62 55 56 62 58 59
52 59 66 74 77 73 66 59 65 70 72 67 63 72 66 69 68 69 66 61 64 63 65 66 72 82 97 99 100 98 99 100 100 99 95 74 64 57 63 62 60 57 59
62 59 57 62 69 71 75 75 71 73 77 86 64 62 60 61 64 67 61 61 66 68 77 82 89 98 100 99 99 100 100 100 99 85 80 60 63 66 59 54 53 55 57
69 67 62 56 56 62 60 65 76 75 72 71 74 71 65 59 62 57 67 73 70 64 65 71 78 94 99 100 99 100 100 97 86 74 60 67 62 54 54 53 54 54 57
73 70 68 64 57 51 52 53 57 62 69 76 78 75 66 57 60 68 69 62 58 56 56 64 82 100 100 100 100 100 96 84 64 68 67 60 55 55 54 53 54 56 61
79 75 69 67 62 59 52 48 46 49 52 52 56 60 62 64 62 58 59 61 60 60 65 77 93 97 93 91 99 100 76 71 72 65 60 58 58 56 54 57 63 68 74
84 84 81 76 69 60 55 52 49 47 46 45 46 49 48 50 54 56 62 65 63 66 69 91 99 98 93 98 99 72 77 73 67 63 61 60 58 58 61 63 67 73 82
81 83 83 79 72 66 63 57 53 51 51 50 50 49 50 51 55 59 60 63 70 74 85 94 100 98 95 89 69 79 75 70 66 63 63 60 61 64 66 68 73 84 88
89 81 77 76 75 69 65 62 60 58 58 56 52 50 50 51 55 59 60 63 68 74 78 84 88 91 79 71 80 80 74 70 68 67 64 66 66 68 70 77 85 94 97
90 84 79 76 74 72 70 69 68 66 64 61 58 56 56 58 58 64 70 73 77 80 80 78 77 73 72 79 84 80 75 72 72 70 72 74 71 72 77 81 86 92 92
82 88 80 80 79 76 72 70 73 75 75 76 68 63 63 64 68 70 72 77 83 85 85 82 79 78 79 82 83 83 79 78 77 73 74 74 74 77 79 74 53 46 42
68 84 79 77 78 81 81 82 75 75 76 79 80 83 88 91 94 98 92 96 100 96 92 89 86 86 87 87 87 88 86 82 80 79 81 81 80 80 80 80 70 46 32
68 82 77 74 74 77 78 82 84 82 84 86 87 94 100 99 96 97 99 100 100 100 100 96 94 94 92 83 86 89 85 84 82 85 84 83 81 82 86 86 86 70 41
80 82 88 77 72 74 72 76 83 86 86 93 93 99 98 99 99 99 98 99 99 99 100 100 100 100 100 100 98 95 92 92 92 89 93 93 90 85 89 90 91 90 69

GFSMW_850_rhum_120.txt.gz
RH
83 80 70 59 65 81 74 87 99 100 94 97 90 99 100 99 92 69 58 51 85 77 66 51 51 50 47 41 43 53 61 61 69 77 80 84 89 90 88 90 84 86 88
99 86 80 75 76 71 71 71 100 94 96 84 70 82 99 99 72 75 70 80 90 82 72 59 55 53 44 42 47 57 61 74 78 84 84 88 87 90 91 88 84 85 86
99 100 98 90 83 53 68 79 84 96 95 91 83 84 90 98 90 88 88 89 88 84 78 68 55 44 53 55 61 66 69 75 83 87 88 90 79 78 87 90 90 93 80
100 98 93 91 86 67 86 94 84 92 99 94 93 84 81 84 96 85 82 86 85 79 72 61 55 64 74 74 72 76 82 83 85 82 86 88 74 76 86 93 94 84 79
81 96 94 84 96 85 90 91 94 95 92 96 90 88 85 82 76 94 91 86 81 68 64 76 84 86 77 76 75 80 81 81 79 78 82 88 85 90 79 84 89 78 77
78 82 92 81 86 99 94 96 86 93 92 86 86 86 79 83 80 76 76 85 76 59 67 89 95 89 76 79 86 89 86 81 81 80 68 60 72 88 93 88 88 85 82
74 88 84 90 84 90 86 86 100 100 96 100 99 93 85 78 82 80 70 70 69 87 83 87 93 92 91 89 78 86 76 76 67 68 65 64 53 65 99 99 91 90 89
100 90 94 89 86 86 84 86 88 100 100 100 100 100 93 82 77 92 73 69 63 66 72 92 96 89 80 81 68 71 72 72 68 68 67 81 81 80 80 100 99 97 92
88 99 97 100 89 85 90 88 88 93 99 100 94 92 91 89 73 76 77 78 70 67 65 66 70 72 73 75 76 72 73 74 75 81 82 85 85 90 92 100 100 99 93
67 68 78 85 93 86 92 98 96 94 94 100 99 88 95 96 84 78 80 82 78 76 74 72 80 78 79 82 78 77 80 84 90 92 83 85 65 93 100 100 100 100 91
76 68 66 56 61 64 66 78 96 100 96 90 98 92 91 89 90 92 96 88 89 85 81 80 87 78 74 78 80 74 86 94 99 93 96 74 80 96 100 100 92 87 50
79 80 72 63 55 66 71 77 98 92 96 97 91 94 94 89 82 89 93 87 92 89 85 85 86 83 77 78 77 79 86 86 100 94 76 82 91 100 100 95 83 52 54
62 71 81 76 71 58 64 70 74 86 88 90 94 91 85 93 94 90 86 90 92 92 93 97 90 83 87 84 81 89 82 77 94 84 87 89 95 100 92 76 57 56 63
65 63 66 74 80 75 64 65 67 78 78 78 95 99 100 88 89 98 95 97 97 98 98 87 98 87 79 88 87 87 86 97 100 100 98 99 100 93 74 66 59 63 62
68 66 62 59 61 67 76 76 71 74 79 78 80 85 86 85 82 85 82 83 84 81 82 85 91 91 87 82 79 80 96 99 100 100 100 100 94 69 61 64 64 58 55
74 71 68 64 56 54 57 67 75 79 77 88 85 82 87 81 77 68 68 81 82 88 100 99 88 88 88 98 99 99 99 99 100 100 99 83 76 68 67 61 56 56 57
81 72 71 68 63 56 53 50 53 57 65 76 81 82 78 77 76 73 69 61 75 70 71 68 71 80 98 100 99 99 99 99 99 97 87 73 67 68 58 55 54 53 52
84 82 76 70 65 59 53 50 48 46 46 49 55 61 65 68 70 68 68 71 66 60 62 66 76 91 100 98 100 100 100 98 93 80 69 73 71 60 58 56 54 55 59
85 86 84 78 71 64 58 54 51 48 46 46 45 46 48 49 51 55 61 63 64 65 70 74 80 92 99 96 100 100 100 96 78 75 78 70 64 61 58 56 60 63 69
85 82 82 81 77 70 64 60 56 52 50 47 45 44 45 46 46 49 49 50 54 62 70 82 88 98 96 94 98 100 100 79 77 75 68 65 64 62 58 61 62 66 74
87 85 81 79 79 74 71 67 62 60 58 54 52 50 47 46 47 50 52 54 58 61 66 76 93 100 99 96 99 98 79 78 77 72 68 66 65 63 65 63 64 72 78
83 87 83 80 81 80 77 73 71 72 70 68 65 60 57 56 56 58 60 64 71 74 78 81 86 91 97 98 86 79 82 81 77 73 72 72 71 71 69 68 72 77 84
64 75 87 83 82 81 79 80 82 79 78 81 80 76 70 66 65 67 74 84 88 90 89 90 88 85 83 82 82 86 87 83 79 77 79 78 78 77 75 77 75 67 65
65 66 72 82 79 80 78 78 77 78 84 84 89 90 86 83 88 98 99 99 100 100 100 100 97 90 88 86 86 87 87 86 86 85 84 84 83 81 79 78 76 68 50
65 69 70 84 76 76 77 76 76 78 81 86 92 97 100 100 100 98 99 99 98 99 99 99 100 100 96 87 89 92 92 89 90 92 91 85 82 82 80 80 78 78 71
72 71 71 87 82 72 72 76 78 75 76 77 84 95 95 94 97 99 100 100 100 99 98 99 99 97 98 100 100 100 100 99 98 97 94 87 86 86 87 96 87 86 86

GFSMW_850_rhum_123.txt.gz
RH
80 82 73 70 90 87 53 64 67 73 100 100 99 98 96 100 95 94 92 98 96 56 56 45 52 47 46 41 45 49 51 60 68 73 76 76 82 85 86 82 87 90 86
82 83 76 83 81 65 66 61 77 76 100 98 85 76 83 96 93 98 87 99 78 43 48 51 54 50 47 56 55 45 54 68 70 76 82 87 88 87 84 85 87 90 86
92 98 94 89 99 69 55 61 63 80 96 100 100 98 95 88 98 100 100 99 61 52 51 56 58 49 51 50 42 46 52 58 67 78 78 89 83 84 88 91 92 90 86
100 100 98 98 90 74 67 63 75 78 79 98 98 100 91 96 99 100 98 77 85 83 77 62 56 52 59 52 42 46 54 62 64 76 83 80 71 72 82 85 85 88 90
98 100 100 90 92 89 90 77 68 63 88 90 92 98 93 98 99 100 91 94 90 95 83 78 72 69 59 48 48 56 62 68 71 73 77 88 82 76 73 82 87 94 84
99 100 100 100 100 99 97 64 94 82 79 89 99 99 94 88 94 94 81 89 91 82 86 84 77 71 55 65 64 68 74 77 82 81 78 78 77 58 63 55 60 75 81
100 100 99 99 97 99 92 96 95 100 99 99 99 100 100 96 79 84 87 94 93 94 91 82 74 63 69 77 77 76 68 65 69 68 67 74 67 65 66 60 58 78 87
100 100 100 94 84 88 89 88 98 100 96 98 99 100 99 93 89 80 91 80 69 90 84 68 60 72 77 75 73 73 71 73 69 71 75 73 68 68 73 83 79 96 95
100 92 96 100 100 97 90 90 91 95 97 100 100 100 100 92 83 86 88 87 66 70 85 66 60 74 84 98 86 81 74 72 73 75 70 68 67 82 88 92 95 93 99
94 86 82 86 95 96 94 95 100 95 88 99 100 100 100 100 99 97 98 94 87 78 69 64 71 76 92 81 78 77 71 75 77 76 77 77 86 88 94 92 92 99 100
89 94 81 78 75 67 71 75 83 99 98 100 100 98 100 100 100 98 93 94 91 84 80 80 78 76 67 78 83 85 76 78 79 81 80 83 85 93 86 77 76 98 100
78 90 92 84 80 78 78 83 87 92 96 100 100 97 94 100 100 94 88 89 84 90 92 84 82 81 78 85 91 86 84 79 83 89 91 92 85 100 99 94 85 99 100
66 66 75 83 87 84 81 81 84 83 81 81 92 98 93 94 100 100 100 91 89 91 92 94 94 83 83 90 82 87 90 84 94 91 91 95 85 91 96 96 100 100 73
72 66 61 64 77 86 81 78 83 80 77 84 91 94 94 93 96 88 80 94 100 99 99 92 86 90 88 83 85 92 92 91 94 100 100 98 89 99 89 100 100 72 60
71 73 69 61 57 62 74 81 84 89 94 83 87 98 79 75 75 78 78 86 93 87 94 92 94 95 88 93 99 89 94 92 99 100 100 100 90 100 100 99 74 66 64
80 73 70 66 61 57 58 63 72 85 90 94 95 92 86 84 84 86 90 95 89 85 89 95 98 96 98 98 95 84 85 89 94 99 100 99 99 99 99 77 65 68 62
84 81 76 71 66 60 57 53 54 61 67 81 86 89 91 94 94 90 85 81 75 69 73 86 99 100 100 100 99 100 100 99 100 100 98 100 100 94 78 70 70 60 57
80 82 80 74 67 64 58 56 52 50 50 53 59 65 69 71 78 82 84 82 78 69 62 68 77 75 84 98 98 98 100 100 99 99 98 100 94 84 75 69 62 63 56
82 80 79 79 75 68 63 60 56 52 51 49 50 51 51 55 60 66 70 73 74 71 72 72 66 71 89 100 99 100 100 100 100 100 97 88 73 73 80 82 73 60 57
83 81 78 77 74 71 68 66 63 59 56 52 49 48 48 49 50 48 48 52 56 63 66 68 76 83 89 92 95 99 100 100 99 93 82 81 86 86 84 71 63 61 65
82 84 81 78 77 75 73 71 70 66 67 64 61 57 52 48 47 48 50 53 56 57 62 68 77 92 100 100 98 99 100 100 100 89 83 80 74 72 68 64 66 71 75
64 83 87 82 81 80 79 76 74 73 70 65 63 62 64 63 59 56 55 57 59 62 67 72 78 84 95 99 99 100 100 100 95 84 83 77 73 71 69 68 72 69 66
63 64 72 89 86 83 80 78 75 70 67 73 73 75 72 71 71 71 72 73 72 75 80 82 81 84 87 92 99 100 96 88 88 86 82 80 77 75 74 74 72 66 67
63 65 66 71 87 83 80 78 77 75 72 80 87 89 85 80 80 85 94 99 98 98 97 98 100 99 97 95 93 89 87 86 88 87 84 82 82 81 82 81 78 69 70
62 64 68 67 82 83 78 77 76 78 75 74 76 82 92 98 98 98 99 98 93 97 98 98 99 98 99 99 99 97 93 91 92 93 91 92 90 85 82 82 78 76 73
75 71 73 72 79 89 83 79 70 74 74 74 78 79 76 81 85 86 82 84 90 98 100 99 100 96 98 100 100 100 100 100 100 99 99 98 94 89 86 82 80 78 76

GFSMW_850_rhum_126.txt.gz
RH
89 61 58 66 71 54 44 51 89 80 82 85 100 100 98 96 96 99 81 83 92 94 97 55 51 62 48 43 46 45 48 60 55 62 72 75 73 73 76 83 82 81 89
98 90 88 89 74 59 56 67 100 79 93 100 100 97 100 84 91 97 87 72 86 97 100 66 48 58 56 53 50 48 54 58 57 64 74 80 82 85 85 86 80 83 88
99 93 85 90 88 93 76 92 99 79 77 90 94 98 91 86 99 97 92 84 90 99 98 81 61 58 55 51 50 49 55 50 61 70 70 86 82 87 88 84 85 85 88
98 91 98 93 88 93 76 100 89 76 68 59 99 100 99 100 100 96 89 97 91 99 100 84 60 61 68 55 50 54 56 54 58 72 75 76 74 83 88 84 86 80 77
82 91 99 95 94 93 95 99 90 76 66 72 69 94 99 100 99 98 100 97 100 100 100 66 63 70 64 58 61 60 55 52 58 64 69 83 74 69 68 72 73 76 76
100 92 99 91 92 98 99 99 98 80 72 54 75 69 100 97 95 99 100 100 99 99 85 68 47 70 71 66 62 59 56 52 62 71 76 77 79 73 69 67 68 70 69
100 92 100 100 100 100 100 100 100 99 92 76 82 85 83 100 99 96 92 93 99 92 88 77 90 79 66 63 68 59 51 55 69 78 80 78 76 75 80 70 68 67 68
100 99 99 100 100 98 95 92 90 87 85 88 86 84 92 97 90 95 99 100 78 89 76 78 84 87 79 76 70 54 60 68 75 79 73 73 75 76 69 75 77 77 82
100 100 96 98 98 100 100 97 93 85 72 69 86 96 98 95 99 100 98 86 88 86 90 82 65 62 63 77 67 61 77 75 75 74 75 79 74 71 77 80 80 84 97
97 96 99 98 94 94 87 75 82 94 94 87 99 99 100 98 100 100 94 95 91 97 92 98 76 73 84 79 62 66 66 73 76 76 76 71 78 79 77 84 90 96 100
92 95 94 96 100 98 100 100 100 97 100 99 98 100 100 100 100 100 100 100 100 100 86 85 88 82 87 71 67 69 75 75 77 82 82 83 81 81 83 93 95 99 99
75 83 88 89 84 93 97 98 89 97 98 97 100 99 96 100 100 100 100 99 97 99 98 94 93 90 84 70 71 71 80 81 87 84 77 78 83 85 88 90 92 99 86
75 73 67 77 87 89 85 87 85 85 94 100 99 100 100 99 98 96 97 95 98 96 100 94 89 87 87 87 84 82 82 83 86 74 91 83 89 92 94 92 93 100 100
76 73 68 64 69 83 87 87 94 93 90 99 100 97 100 100 99 95 83 80 86 90 85 85 86 90 97 98 91 93 93 75 90 95 94 94 96 96 94 92 98 100 100
82 77 73 65 61 59 69 83 92 100 100 100 96 93 99 98 98 98 92 89 99 97 92 98 98 90 87 89 95 92 95 94 97 94 91 92 89 94 100 100 96 100 100
81 82 75 69 63 59 59 60 70 86 86 92 94 95 89 92 98 93 86 95 90 88 88 88 89 98 90 82 94 95 95 99 95 89 74 97 88 95 100 100 100 100 90
83 81 80 76 70 66 61 58 57 56 62 79 88 89 88 89 86 85 88 82 79 77 76 76 81 83 86 92 93 95 99 100 97 88 90 99 100 100 100 100 100 93 77
80 79 77 78 72 68 64 59 55 52 50 48 50 53 60 65 70 77 81 83 84 83 80 80 76 68 74 80 95 100 99 100 100 99 100 100 100 100 100 98 86 81 74
82 82 82 80 78 74 71 68 62 58 55 51 50 48 48 48 51 54 57 62 70 75 78 80 80 79 80 75 81 93 95 95 92 96 99 100 100 100 99 97 91 86 76
72 78 79 80 81 76 75 73 70 67 64 61 59 57 55 52 50 50 51 54 56 59 63 66 69 74 80 83 89 100 98 90 93 91 97 98 100 98 88 85 84 96 88
62 72 83 79 78 76 76 74 73 68 70 69 70 68 66 64 63 61 59 56 57 57 60 66 69 72 78 89 98 100 100 100 100 98 98 98 91 86 88 97 98 90 77
62 59 64 83 83 83 79 75 71 68 65 66 73 79 81 80 77 74 73 73 71 71 70 72 77 80 82 89 100 100 100 100 100 100 100 99 90 90 92 92 91 87 73
62 64 64 64 85 84 81 78 76 73 69 65 67 74 78 79 79 79 81 83 84 88 92 92 86 77 88 98 97 99 100 100 100 100 100 97 93 91 86 83 83 83 80
64 65 64 64 66 86 83 81 78 76 74 72 70 71 72 69 74 88 91 91 92 90 93 95 97 97 98 98 99 99 99 99 100 96 95 98 96 92 88 89 89 87 84
60 62 66 65 70 77 86 84 80 75 74 73 72 72 71 74 78 80 82 83 84 86 85 90 95 92 92 92 95 96 100 99 99 100 100 98 98 96 95 93 92 91 93
74 71 63 67 72 76 89 89 86 75 71 70 69 70 69 68 69 68 65 80 90 92 92 86 86 90 98 98 99 98 98 100 100 99 100 100 99 98 95 93 95 96 93